<?xml version="1.0" encoding="UTF-8" standalone="no" ?>
<gpx xmlns="http://www.topografix.com/GPX/1/1" xmlns:xsi="http://www.w3.org/2001/XMLSchema-instance" xsi:schemaLocation="http://www.topografix.com/GPX/1/1 http://www.topografix.com/GPX/1/1/gpx.xsd" version="1.1" creator="VisuGPX - https://www.visugpx.com">
  <metadata>
    <name>Capian Nord</name>
    <desc><![CDATA[Randonnée VTT]]></desc>
  </metadata>
  <trk>
    <name><![CDATA[Colinneau capian baudin]]></name>
    <trkseg>
      <trkpt lat="44.75514" lon="-0.31372">
        <ele>96</ele>
        <time>2013-05-20T12:25:38Z</time>
      </trkpt>
      <trkpt lat="44.75462" lon="-0.31397">
        <ele>91</ele>
        <time>2013-05-20T12:25:46Z</time>
      </trkpt>
      <trkpt lat="44.75448" lon="-0.31399">
        <ele>90</ele>
        <time>2013-05-20T12:25:48Z</time>
      </trkpt>
      <trkpt lat="44.754" lon="-0.31389">
        <ele>85</ele>
        <time>2013-05-20T12:25:54Z</time>
      </trkpt>
      <trkpt lat="44.75366" lon="-0.31379">
        <ele>83</ele>
        <time>2013-05-20T12:25:59Z</time>
      </trkpt>
      <trkpt lat="44.75355" lon="-0.31378">
        <ele>83</ele>
        <time>2013-05-20T12:26:04Z</time>
      </trkpt>
      <trkpt lat="44.75351" lon="-0.31377">
        <ele>84</ele>
        <time>2013-05-20T12:26:10Z</time>
      </trkpt>
      <trkpt lat="44.7535" lon="-0.31377">
        <ele>84</ele>
        <time>2013-05-20T12:26:11Z</time>
      </trkpt>
      <trkpt lat="44.75349" lon="-0.31376">
        <ele>84</ele>
        <time>2013-05-20T12:26:12Z</time>
      </trkpt>
      <trkpt lat="44.75347" lon="-0.31376">
        <ele>84</ele>
        <time>2013-05-20T12:26:13Z</time>
      </trkpt>
      <trkpt lat="44.75337" lon="-0.31371">
        <ele>85</ele>
        <time>2013-05-20T12:26:20Z</time>
      </trkpt>
      <trkpt lat="44.7532" lon="-0.31367">
        <ele>87</ele>
        <time>2013-05-20T12:26:28Z</time>
      </trkpt>
      <trkpt lat="44.75299" lon="-0.3136">
        <ele>90</ele>
        <time>2013-05-20T12:26:37Z</time>
      </trkpt>
      <trkpt lat="44.75285" lon="-0.31352">
        <ele>92</ele>
        <time>2013-05-20T12:26:44Z</time>
      </trkpt>
      <trkpt lat="44.75269" lon="-0.31345">
        <ele>94</ele>
        <time>2013-05-20T12:26:51Z</time>
      </trkpt>
      <trkpt lat="44.75254" lon="-0.3134">
        <ele>96</ele>
        <time>2013-05-20T12:26:57Z</time>
      </trkpt>
      <trkpt lat="44.75239" lon="-0.31337">
        <ele>98</ele>
        <time>2013-05-20T12:27:03Z</time>
      </trkpt>
      <trkpt lat="44.75224" lon="-0.31335">
        <ele>100</ele>
        <time>2013-05-20T12:27:10Z</time>
      </trkpt>
      <trkpt lat="44.75205" lon="-0.31333">
        <ele>102</ele>
        <time>2013-05-20T12:27:18Z</time>
      </trkpt>
      <trkpt lat="44.75183" lon="-0.31333">
        <ele>103</ele>
        <time>2013-05-20T12:27:26Z</time>
      </trkpt>
      <trkpt lat="44.75159" lon="-0.31334">
        <ele>103</ele>
        <time>2013-05-20T12:27:35Z</time>
      </trkpt>
      <trkpt lat="44.75136" lon="-0.31334">
        <ele>104</ele>
        <time>2013-05-20T12:27:43Z</time>
      </trkpt>
      <trkpt lat="44.751" lon="-0.31339">
        <ele>104</ele>
        <time>2013-05-20T12:27:53Z</time>
      </trkpt>
      <trkpt lat="44.75067" lon="-0.31344">
        <ele>104</ele>
        <time>2013-05-20T12:28:02Z</time>
      </trkpt>
      <trkpt lat="44.7504" lon="-0.3135">
        <ele>103</ele>
        <time>2013-05-20T12:28:10Z</time>
      </trkpt>
      <trkpt lat="44.75018" lon="-0.31355">
        <ele>103</ele>
        <time>2013-05-20T12:28:18Z</time>
      </trkpt>
      <trkpt lat="44.74987" lon="-0.31362">
        <ele>102</ele>
        <time>2013-05-20T12:28:26Z</time>
      </trkpt>
      <trkpt lat="44.74983" lon="-0.31363">
        <ele>102</ele>
        <time>2013-05-20T12:28:27Z</time>
      </trkpt>
      <trkpt lat="44.74953" lon="-0.31366">
        <ele>100</ele>
        <time>2013-05-20T12:28:33Z</time>
      </trkpt>
      <trkpt lat="44.74928" lon="-0.31361">
        <ele>99</ele>
        <time>2013-05-20T12:28:37Z</time>
      </trkpt>
      <trkpt lat="44.74903" lon="-0.31349">
        <ele>99</ele>
        <time>2013-05-20T12:28:41Z</time>
      </trkpt>
      <trkpt lat="44.74896" lon="-0.31348">
        <ele>98</ele>
        <time>2013-05-20T12:28:42Z</time>
      </trkpt>
      <trkpt lat="44.74884" lon="-0.31346">
        <ele>98</ele>
        <time>2013-05-20T12:28:44Z</time>
      </trkpt>
      <trkpt lat="44.74878" lon="-0.31346">
        <ele>99</ele>
        <time>2013-05-20T12:28:45Z</time>
      </trkpt>
      <trkpt lat="44.74844" lon="-0.31354">
        <ele>100</ele>
        <time>2013-05-20T12:28:52Z</time>
      </trkpt>
      <trkpt lat="44.74807" lon="-0.3136">
        <ele>101</ele>
        <time>2013-05-20T12:29:00Z</time>
      </trkpt>
      <trkpt lat="44.74767" lon="-0.3135">
        <ele>101</ele>
        <time>2013-05-20T12:29:08Z</time>
      </trkpt>
      <trkpt lat="44.74725" lon="-0.31329">
        <ele>102</ele>
        <time>2013-05-20T12:29:17Z</time>
      </trkpt>
      <trkpt lat="44.74678" lon="-0.31315">
        <ele>102</ele>
        <time>2013-05-20T12:29:27Z</time>
      </trkpt>
      <trkpt lat="44.74633" lon="-0.31304">
        <ele>101</ele>
        <time>2013-05-20T12:29:36Z</time>
      </trkpt>
      <trkpt lat="44.74594" lon="-0.31301">
        <ele>100</ele>
        <time>2013-05-20T12:29:42Z</time>
      </trkpt>
      <trkpt lat="44.74551" lon="-0.31306">
        <ele>98</ele>
        <time>2013-05-20T12:29:49Z</time>
      </trkpt>
      <trkpt lat="44.74529" lon="-0.31311">
        <ele>98</ele>
        <time>2013-05-20T12:29:53Z</time>
      </trkpt>
      <trkpt lat="44.74515" lon="-0.31316">
        <ele>98</ele>
        <time>2013-05-20T12:29:56Z</time>
      </trkpt>
      <trkpt lat="44.74507" lon="-0.3132">
        <ele>98</ele>
        <time>2013-05-20T12:29:58Z</time>
      </trkpt>
      <trkpt lat="44.74499" lon="-0.31325">
        <ele>98</ele>
        <time>2013-05-20T12:30:00Z</time>
      </trkpt>
      <trkpt lat="44.74495" lon="-0.31328">
        <ele>98</ele>
        <time>2013-05-20T12:30:01Z</time>
      </trkpt>
      <trkpt lat="44.74492" lon="-0.31332">
        <ele>98</ele>
        <time>2013-05-20T12:30:02Z</time>
      </trkpt>
      <trkpt lat="44.7449" lon="-0.31337">
        <ele>97</ele>
        <time>2013-05-20T12:30:03Z</time>
      </trkpt>
      <trkpt lat="44.74488" lon="-0.31342">
        <ele>97</ele>
        <time>2013-05-20T12:30:04Z</time>
      </trkpt>
      <trkpt lat="44.74486" lon="-0.31347">
        <ele>97</ele>
        <time>2013-05-20T12:30:05Z</time>
      </trkpt>
      <trkpt lat="44.74484" lon="-0.31352">
        <ele>96</ele>
        <time>2013-05-20T12:30:06Z</time>
      </trkpt>
      <trkpt lat="44.74482" lon="-0.31358">
        <ele>96</ele>
        <time>2013-05-20T12:30:07Z</time>
      </trkpt>
      <trkpt lat="44.74477" lon="-0.3137">
        <ele>95</ele>
        <time>2013-05-20T12:30:09Z</time>
      </trkpt>
      <trkpt lat="44.74475" lon="-0.31378">
        <ele>95</ele>
        <time>2013-05-20T12:30:10Z</time>
      </trkpt>
      <trkpt lat="44.74474" lon="-0.31386">
        <ele>94</ele>
        <time>2013-05-20T12:30:11Z</time>
      </trkpt>
      <trkpt lat="44.74472" lon="-0.31405">
        <ele>93</ele>
        <time>2013-05-20T12:30:13Z</time>
      </trkpt>
      <trkpt lat="44.74475" lon="-0.31476">
        <ele>91</ele>
        <time>2013-05-20T12:30:20Z</time>
      </trkpt>
      <trkpt lat="44.74479" lon="-0.31502">
        <ele>93</ele>
        <time>2013-05-20T12:30:23Z</time>
      </trkpt>
      <trkpt lat="44.74497" lon="-0.31564">
        <ele>95</ele>
        <time>2013-05-20T12:30:31Z</time>
      </trkpt>
      <trkpt lat="44.74521" lon="-0.31637">
        <ele>95</ele>
        <time>2013-05-20T12:30:42Z</time>
      </trkpt>
      <trkpt lat="44.7454" lon="-0.31681">
        <ele>93</ele>
        <time>2013-05-20T12:30:48Z</time>
      </trkpt>
      <trkpt lat="44.74558" lon="-0.31724">
        <ele>88</ele>
        <time>2013-05-20T12:30:53Z</time>
      </trkpt>
      <trkpt lat="44.7458" lon="-0.31793">
        <ele>80</ele>
        <time>2013-05-20T12:31:00Z</time>
      </trkpt>
      <trkpt lat="44.74603" lon="-0.31868">
        <ele>74</ele>
        <time>2013-05-20T12:31:07Z</time>
      </trkpt>
      <trkpt lat="44.74607" lon="-0.31878">
        <ele>73</ele>
        <time>2013-05-20T12:31:08Z</time>
      </trkpt>
      <trkpt lat="44.74624" lon="-0.31932">
        <ele>68</ele>
        <time>2013-05-20T12:31:14Z</time>
      </trkpt>
      <trkpt lat="44.74626" lon="-0.31944">
        <ele>68</ele>
        <time>2013-05-20T12:31:16Z</time>
      </trkpt>
      <trkpt lat="44.74626" lon="-0.31949">
        <ele>67</ele>
        <time>2013-05-20T12:31:17Z</time>
      </trkpt>
      <trkpt lat="44.74625" lon="-0.31954">
        <ele>67</ele>
        <time>2013-05-20T12:31:18Z</time>
      </trkpt>
      <trkpt lat="44.74623" lon="-0.31958">
        <ele>67</ele>
        <time>2013-05-20T12:31:19Z</time>
      </trkpt>
      <trkpt lat="44.74621" lon="-0.31961">
        <ele>67</ele>
        <time>2013-05-20T12:31:20Z</time>
      </trkpt>
      <trkpt lat="44.74619" lon="-0.31963">
        <ele>67</ele>
        <time>2013-05-20T12:31:21Z</time>
      </trkpt>
      <trkpt lat="44.74618" lon="-0.31965">
        <ele>67</ele>
        <time>2013-05-20T12:31:22Z</time>
      </trkpt>
      <trkpt lat="44.74616" lon="-0.31967">
        <ele>67</ele>
        <time>2013-05-20T12:31:23Z</time>
      </trkpt>
      <trkpt lat="44.74614" lon="-0.31972">
        <ele>67</ele>
        <time>2013-05-20T12:31:28Z</time>
      </trkpt>
      <trkpt lat="44.74613" lon="-0.31977">
        <ele>67</ele>
        <time>2013-05-20T12:31:40Z</time>
      </trkpt>
      <trkpt lat="44.74612" lon="-0.31979">
        <ele>67</ele>
        <time>2013-05-20T12:31:50Z</time>
      </trkpt>
      <trkpt lat="44.74614" lon="-0.3198">
        <ele>66</ele>
        <time>2013-05-20T12:32:00Z</time>
      </trkpt>
      <trkpt lat="44.74616" lon="-0.3198">
        <ele>66</ele>
        <time>2013-05-20T12:32:01Z</time>
      </trkpt>
      <trkpt lat="44.74619" lon="-0.31981">
        <ele>66</ele>
        <time>2013-05-20T12:32:02Z</time>
      </trkpt>
      <trkpt lat="44.74623" lon="-0.31981">
        <ele>66</ele>
        <time>2013-05-20T12:32:03Z</time>
      </trkpt>
      <trkpt lat="44.74627" lon="-0.31981">
        <ele>66</ele>
        <time>2013-05-20T12:32:04Z</time>
      </trkpt>
      <trkpt lat="44.74653" lon="-0.31982">
        <ele>66</ele>
        <time>2013-05-20T12:32:10Z</time>
      </trkpt>
      <trkpt lat="44.74684" lon="-0.31984">
        <ele>66</ele>
        <time>2013-05-20T12:32:18Z</time>
      </trkpt>
      <trkpt lat="44.74702" lon="-0.31987">
        <ele>67</ele>
        <time>2013-05-20T12:32:23Z</time>
      </trkpt>
      <trkpt lat="44.7472" lon="-0.31995">
        <ele>70</ele>
        <time>2013-05-20T12:32:29Z</time>
      </trkpt>
      <trkpt lat="44.74733" lon="-0.32003">
        <ele>71</ele>
        <time>2013-05-20T12:32:34Z</time>
      </trkpt>
      <trkpt lat="44.74746" lon="-0.32015">
        <ele>74</ele>
        <time>2013-05-20T12:32:42Z</time>
      </trkpt>
      <trkpt lat="44.74754" lon="-0.32025">
        <ele>75</ele>
        <time>2013-05-20T12:32:48Z</time>
      </trkpt>
      <trkpt lat="44.74755" lon="-0.32027">
        <ele>75</ele>
        <time>2013-05-20T12:32:49Z</time>
      </trkpt>
      <trkpt lat="44.74762" lon="-0.32031">
        <ele>76</ele>
        <time>2013-05-20T12:32:54Z</time>
      </trkpt>
      <trkpt lat="44.74772" lon="-0.32043">
        <ele>78</ele>
        <time>2013-05-20T12:33:00Z</time>
      </trkpt>
      <trkpt lat="44.7478" lon="-0.32054">
        <ele>80</ele>
        <time>2013-05-20T12:33:07Z</time>
      </trkpt>
      <trkpt lat="44.74791" lon="-0.32069">
        <ele>83</ele>
        <time>2013-05-20T12:33:14Z</time>
      </trkpt>
      <trkpt lat="44.74799" lon="-0.32077">
        <ele>84</ele>
        <time>2013-05-20T12:33:20Z</time>
      </trkpt>
      <trkpt lat="44.74804" lon="-0.32086">
        <ele>85</ele>
        <time>2013-05-20T12:33:28Z</time>
      </trkpt>
      <trkpt lat="44.74804" lon="-0.32092">
        <ele>85</ele>
        <time>2013-05-20T12:33:34Z</time>
      </trkpt>
      <trkpt lat="44.74809" lon="-0.321">
        <ele>86</ele>
        <time>2013-05-20T12:33:41Z</time>
      </trkpt>
      <trkpt lat="44.74816" lon="-0.32109">
        <ele>87</ele>
        <time>2013-05-20T12:33:48Z</time>
      </trkpt>
      <trkpt lat="44.74826" lon="-0.32118">
        <ele>89</ele>
        <time>2013-05-20T12:33:56Z</time>
      </trkpt>
      <trkpt lat="44.74838" lon="-0.32123">
        <ele>91</ele>
        <time>2013-05-20T12:34:03Z</time>
      </trkpt>
      <trkpt lat="44.74848" lon="-0.32131">
        <ele>92</ele>
        <time>2013-05-20T12:34:10Z</time>
      </trkpt>
      <trkpt lat="44.74855" lon="-0.32139">
        <ele>93</ele>
        <time>2013-05-20T12:34:17Z</time>
      </trkpt>
      <trkpt lat="44.74867" lon="-0.32145">
        <ele>94</ele>
        <time>2013-05-20T12:34:25Z</time>
      </trkpt>
      <trkpt lat="44.74876" lon="-0.32149">
        <ele>95</ele>
        <time>2013-05-20T12:34:31Z</time>
      </trkpt>
      <trkpt lat="44.74889" lon="-0.3216">
        <ele>95</ele>
        <time>2013-05-20T12:34:39Z</time>
      </trkpt>
      <trkpt lat="44.74903" lon="-0.3217">
        <ele>96</ele>
        <time>2013-05-20T12:34:47Z</time>
      </trkpt>
      <trkpt lat="44.74914" lon="-0.32178">
        <ele>97</ele>
        <time>2013-05-20T12:34:53Z</time>
      </trkpt>
      <trkpt lat="44.74925" lon="-0.32185">
        <ele>97</ele>
        <time>2013-05-20T12:34:59Z</time>
      </trkpt>
      <trkpt lat="44.7494" lon="-0.32196">
        <ele>98</ele>
        <time>2013-05-20T12:35:07Z</time>
      </trkpt>
      <trkpt lat="44.7496" lon="-0.32213">
        <ele>99</ele>
        <time>2013-05-20T12:35:16Z</time>
      </trkpt>
      <trkpt lat="44.74975" lon="-0.32223">
        <ele>99</ele>
        <time>2013-05-20T12:35:23Z</time>
      </trkpt>
      <trkpt lat="44.74979" lon="-0.32225">
        <ele>99</ele>
        <time>2013-05-20T12:35:25Z</time>
      </trkpt>
      <trkpt lat="44.74981" lon="-0.32226">
        <ele>99</ele>
        <time>2013-05-20T12:35:26Z</time>
      </trkpt>
      <trkpt lat="44.74982" lon="-0.32228">
        <ele>99</ele>
        <time>2013-05-20T12:35:27Z</time>
      </trkpt>
      <trkpt lat="44.74993" lon="-0.32239">
        <ele>100</ele>
        <time>2013-05-20T12:35:34Z</time>
      </trkpt>
      <trkpt lat="44.75006" lon="-0.3225">
        <ele>100</ele>
        <time>2013-05-20T12:35:41Z</time>
      </trkpt>
      <trkpt lat="44.75008" lon="-0.32252">
        <ele>100</ele>
        <time>2013-05-20T12:35:42Z</time>
      </trkpt>
      <trkpt lat="44.75009" lon="-0.32254">
        <ele>101</ele>
        <time>2013-05-20T12:35:43Z</time>
      </trkpt>
      <trkpt lat="44.75011" lon="-0.32255">
        <ele>101</ele>
        <time>2013-05-20T12:35:44Z</time>
      </trkpt>
      <trkpt lat="44.75012" lon="-0.32256">
        <ele>101</ele>
        <time>2013-05-20T12:35:45Z</time>
      </trkpt>
      <trkpt lat="44.75014" lon="-0.32257">
        <ele>101</ele>
        <time>2013-05-20T12:35:46Z</time>
      </trkpt>
      <trkpt lat="44.75017" lon="-0.32259">
        <ele>101</ele>
        <time>2013-05-20T12:35:47Z</time>
      </trkpt>
      <trkpt lat="44.7503" lon="-0.32268">
        <ele>101</ele>
        <time>2013-05-20T12:35:53Z</time>
      </trkpt>
      <trkpt lat="44.75042" lon="-0.32278">
        <ele>101</ele>
        <time>2013-05-20T12:35:59Z</time>
      </trkpt>
      <trkpt lat="44.75063" lon="-0.32297">
        <ele>101</ele>
        <time>2013-05-20T12:36:08Z</time>
      </trkpt>
      <trkpt lat="44.75085" lon="-0.32312">
        <ele>102</ele>
        <time>2013-05-20T12:36:16Z</time>
      </trkpt>
      <trkpt lat="44.75104" lon="-0.32323">
        <ele>103</ele>
        <time>2013-05-20T12:36:23Z</time>
      </trkpt>
      <trkpt lat="44.75126" lon="-0.32337">
        <ele>103</ele>
        <time>2013-05-20T12:36:31Z</time>
      </trkpt>
      <trkpt lat="44.75148" lon="-0.32355">
        <ele>103</ele>
        <time>2013-05-20T12:36:40Z</time>
      </trkpt>
      <trkpt lat="44.75172" lon="-0.32374">
        <ele>104</ele>
        <time>2013-05-20T12:36:50Z</time>
      </trkpt>
      <trkpt lat="44.75189" lon="-0.32385">
        <ele>104</ele>
        <time>2013-05-20T12:36:57Z</time>
      </trkpt>
      <trkpt lat="44.75191" lon="-0.32387">
        <ele>104</ele>
        <time>2013-05-20T12:36:58Z</time>
      </trkpt>
      <trkpt lat="44.75193" lon="-0.32388">
        <ele>104</ele>
        <time>2013-05-20T12:36:59Z</time>
      </trkpt>
      <trkpt lat="44.75209" lon="-0.32399">
        <ele>105</ele>
        <time>2013-05-20T12:37:06Z</time>
      </trkpt>
      <trkpt lat="44.75229" lon="-0.32414">
        <ele>105</ele>
        <time>2013-05-20T12:37:15Z</time>
      </trkpt>
      <trkpt lat="44.75243" lon="-0.32427">
        <ele>105</ele>
        <time>2013-05-20T12:37:22Z</time>
      </trkpt>
      <trkpt lat="44.75247" lon="-0.32433">
        <ele>105</ele>
        <time>2013-05-20T12:37:27Z</time>
      </trkpt>
      <trkpt lat="44.75247" lon="-0.32435">
        <ele>105</ele>
        <time>2013-05-20T12:37:28Z</time>
      </trkpt>
      <trkpt lat="44.75247" lon="-0.32437">
        <ele>105</ele>
        <time>2013-05-20T12:37:29Z</time>
      </trkpt>
      <trkpt lat="44.75247" lon="-0.32439">
        <ele>105</ele>
        <time>2013-05-20T12:37:30Z</time>
      </trkpt>
      <trkpt lat="44.75247" lon="-0.32441">
        <ele>105</ele>
        <time>2013-05-20T12:37:31Z</time>
      </trkpt>
      <trkpt lat="44.75246" lon="-0.32443">
        <ele>105</ele>
        <time>2013-05-20T12:37:32Z</time>
      </trkpt>
      <trkpt lat="44.75246" lon="-0.32444">
        <ele>105</ele>
        <time>2013-05-20T12:37:33Z</time>
      </trkpt>
      <trkpt lat="44.75245" lon="-0.32446">
        <ele>105</ele>
        <time>2013-05-20T12:37:34Z</time>
      </trkpt>
      <trkpt lat="44.75244" lon="-0.3245">
        <ele>105</ele>
        <time>2013-05-20T12:37:36Z</time>
      </trkpt>
      <trkpt lat="44.75245" lon="-0.32452">
        <ele>105</ele>
        <time>2013-05-20T12:37:41Z</time>
      </trkpt>
      <trkpt lat="44.75245" lon="-0.32452">
        <ele>105</ele>
        <time>2013-05-20T12:37:51Z</time>
      </trkpt>
      <trkpt lat="44.75245" lon="-0.32453">
        <ele>105</ele>
        <time>2013-05-20T12:38:02Z</time>
      </trkpt>
      <trkpt lat="44.75245" lon="-0.32452">
        <ele>105</ele>
        <time>2013-05-20T12:38:11Z</time>
      </trkpt>
      <trkpt lat="44.75246" lon="-0.32452">
        <ele>105</ele>
        <time>2013-05-20T12:38:25Z</time>
      </trkpt>
      <trkpt lat="44.75246" lon="-0.32452">
        <ele>105</ele>
        <time>2013-05-20T12:38:36Z</time>
      </trkpt>
      <trkpt lat="44.75245" lon="-0.32453">
        <ele>105</ele>
        <time>2013-05-20T12:38:54Z</time>
      </trkpt>
      <trkpt lat="44.75244" lon="-0.32455">
        <ele>105</ele>
        <time>2013-05-20T12:38:55Z</time>
      </trkpt>
      <trkpt lat="44.75244" lon="-0.32456">
        <ele>105</ele>
        <time>2013-05-20T12:38:56Z</time>
      </trkpt>
      <trkpt lat="44.75239" lon="-0.32475">
        <ele>105</ele>
        <time>2013-05-20T12:39:03Z</time>
      </trkpt>
      <trkpt lat="44.75234" lon="-0.32495">
        <ele>105</ele>
        <time>2013-05-20T12:39:10Z</time>
      </trkpt>
      <trkpt lat="44.75227" lon="-0.32524">
        <ele>105</ele>
        <time>2013-05-20T12:39:19Z</time>
      </trkpt>
      <trkpt lat="44.75222" lon="-0.32546">
        <ele>105</ele>
        <time>2013-05-20T12:39:27Z</time>
      </trkpt>
      <trkpt lat="44.75217" lon="-0.32571">
        <ele>104</ele>
        <time>2013-05-20T12:39:34Z</time>
      </trkpt>
      <trkpt lat="44.7521" lon="-0.32602">
        <ele>103</ele>
        <time>2013-05-20T12:39:42Z</time>
      </trkpt>
      <trkpt lat="44.75199" lon="-0.32648">
        <ele>102</ele>
        <time>2013-05-20T12:39:52Z</time>
      </trkpt>
      <trkpt lat="44.75193" lon="-0.3268">
        <ele>101</ele>
        <time>2013-05-20T12:39:59Z</time>
      </trkpt>
      <trkpt lat="44.75182" lon="-0.3272">
        <ele>101</ele>
        <time>2013-05-20T12:40:08Z</time>
      </trkpt>
      <trkpt lat="44.75172" lon="-0.32754">
        <ele>101</ele>
        <time>2013-05-20T12:40:16Z</time>
      </trkpt>
      <trkpt lat="44.75167" lon="-0.32773">
        <ele>101</ele>
        <time>2013-05-20T12:40:22Z</time>
      </trkpt>
      <trkpt lat="44.75161" lon="-0.32797">
        <ele>101</ele>
        <time>2013-05-20T12:40:29Z</time>
      </trkpt>
      <trkpt lat="44.75155" lon="-0.32829">
        <ele>102</ele>
        <time>2013-05-20T12:40:36Z</time>
      </trkpt>
      <trkpt lat="44.75148" lon="-0.32868">
        <ele>103</ele>
        <time>2013-05-20T12:40:45Z</time>
      </trkpt>
      <trkpt lat="44.7514" lon="-0.32897">
        <ele>104</ele>
        <time>2013-05-20T12:40:52Z</time>
      </trkpt>
      <trkpt lat="44.75133" lon="-0.32924">
        <ele>105</ele>
        <time>2013-05-20T12:40:59Z</time>
      </trkpt>
      <trkpt lat="44.7512" lon="-0.32951">
        <ele>105</ele>
        <time>2013-05-20T12:41:07Z</time>
      </trkpt>
      <trkpt lat="44.751" lon="-0.32971">
        <ele>106</ele>
        <time>2013-05-20T12:41:15Z</time>
      </trkpt>
      <trkpt lat="44.75079" lon="-0.3299">
        <ele>105</ele>
        <time>2013-05-20T12:41:23Z</time>
      </trkpt>
      <trkpt lat="44.75053" lon="-0.33015">
        <ele>106</ele>
        <time>2013-05-20T12:41:32Z</time>
      </trkpt>
      <trkpt lat="44.75035" lon="-0.33035">
        <ele>106</ele>
        <time>2013-05-20T12:41:39Z</time>
      </trkpt>
      <trkpt lat="44.75015" lon="-0.33048">
        <ele>105</ele>
        <time>2013-05-20T12:41:45Z</time>
      </trkpt>
      <trkpt lat="44.75001" lon="-0.33063">
        <ele>105</ele>
        <time>2013-05-20T12:41:51Z</time>
      </trkpt>
      <trkpt lat="44.74991" lon="-0.33079">
        <ele>105</ele>
        <time>2013-05-20T12:41:58Z</time>
      </trkpt>
      <trkpt lat="44.74987" lon="-0.33083">
        <ele>105</ele>
        <time>2013-05-20T12:42:00Z</time>
      </trkpt>
      <trkpt lat="44.74985" lon="-0.33085">
        <ele>105</ele>
        <time>2013-05-20T12:42:01Z</time>
      </trkpt>
      <trkpt lat="44.74983" lon="-0.33087">
        <ele>105</ele>
        <time>2013-05-20T12:42:02Z</time>
      </trkpt>
      <trkpt lat="44.74981" lon="-0.33089">
        <ele>105</ele>
        <time>2013-05-20T12:42:03Z</time>
      </trkpt>
      <trkpt lat="44.7498" lon="-0.33092">
        <ele>105</ele>
        <time>2013-05-20T12:42:04Z</time>
      </trkpt>
      <trkpt lat="44.74968" lon="-0.33107">
        <ele>105</ele>
        <time>2013-05-20T12:42:10Z</time>
      </trkpt>
      <trkpt lat="44.74951" lon="-0.33131">
        <ele>104</ele>
        <time>2013-05-20T12:42:19Z</time>
      </trkpt>
      <trkpt lat="44.74946" lon="-0.33137">
        <ele>104</ele>
        <time>2013-05-20T12:42:22Z</time>
      </trkpt>
      <trkpt lat="44.74946" lon="-0.3314">
        <ele>104</ele>
        <time>2013-05-20T12:42:23Z</time>
      </trkpt>
      <trkpt lat="44.74947" lon="-0.33143">
        <ele>104</ele>
        <time>2013-05-20T12:42:24Z</time>
      </trkpt>
      <trkpt lat="44.74948" lon="-0.33145">
        <ele>104</ele>
        <time>2013-05-20T12:42:25Z</time>
      </trkpt>
      <trkpt lat="44.74948" lon="-0.33148">
        <ele>104</ele>
        <time>2013-05-20T12:42:26Z</time>
      </trkpt>
      <trkpt lat="44.74949" lon="-0.33151">
        <ele>104</ele>
        <time>2013-05-20T12:42:27Z</time>
      </trkpt>
      <trkpt lat="44.74947" lon="-0.33154">
        <ele>104</ele>
        <time>2013-05-20T12:42:28Z</time>
      </trkpt>
      <trkpt lat="44.74945" lon="-0.33156">
        <ele>104</ele>
        <time>2013-05-20T12:42:29Z</time>
      </trkpt>
      <trkpt lat="44.74942" lon="-0.33157">
        <ele>104</ele>
        <time>2013-05-20T12:42:30Z</time>
      </trkpt>
      <trkpt lat="44.74939" lon="-0.33157">
        <ele>104</ele>
        <time>2013-05-20T12:42:31Z</time>
      </trkpt>
      <trkpt lat="44.74936" lon="-0.33157">
        <ele>104</ele>
        <time>2013-05-20T12:42:32Z</time>
      </trkpt>
      <trkpt lat="44.74933" lon="-0.33157">
        <ele>104</ele>
        <time>2013-05-20T12:42:33Z</time>
      </trkpt>
      <trkpt lat="44.7493" lon="-0.33158">
        <ele>104</ele>
        <time>2013-05-20T12:42:34Z</time>
      </trkpt>
      <trkpt lat="44.74905" lon="-0.33168">
        <ele>105</ele>
        <time>2013-05-20T12:42:42Z</time>
      </trkpt>
      <trkpt lat="44.74878" lon="-0.33187">
        <ele>105</ele>
        <time>2013-05-20T12:42:51Z</time>
      </trkpt>
      <trkpt lat="44.74842" lon="-0.33213">
        <ele>106</ele>
        <time>2013-05-20T12:43:02Z</time>
      </trkpt>
      <trkpt lat="44.74807" lon="-0.33238">
        <ele>106</ele>
        <time>2013-05-20T12:43:12Z</time>
      </trkpt>
      <trkpt lat="44.74772" lon="-0.33265">
        <ele>105</ele>
        <time>2013-05-20T12:43:22Z</time>
      </trkpt>
      <trkpt lat="44.74742" lon="-0.33287">
        <ele>105</ele>
        <time>2013-05-20T12:43:30Z</time>
      </trkpt>
      <trkpt lat="44.747" lon="-0.33319">
        <ele>104</ele>
        <time>2013-05-20T12:43:41Z</time>
      </trkpt>
      <trkpt lat="44.74659" lon="-0.33345">
        <ele>103</ele>
        <time>2013-05-20T12:43:51Z</time>
      </trkpt>
      <trkpt lat="44.74615" lon="-0.33371">
        <ele>102</ele>
        <time>2013-05-20T12:44:02Z</time>
      </trkpt>
      <trkpt lat="44.74578" lon="-0.33391">
        <ele>102</ele>
        <time>2013-05-20T12:44:11Z</time>
      </trkpt>
      <trkpt lat="44.74537" lon="-0.33416">
        <ele>103</ele>
        <time>2013-05-20T12:44:21Z</time>
      </trkpt>
      <trkpt lat="44.74488" lon="-0.33444">
        <ele>104</ele>
        <time>2013-05-20T12:44:33Z</time>
      </trkpt>
      <trkpt lat="44.7448" lon="-0.33449">
        <ele>104</ele>
        <time>2013-05-20T12:44:35Z</time>
      </trkpt>
      <trkpt lat="44.74451" lon="-0.33467">
        <ele>104</ele>
        <time>2013-05-20T12:44:43Z</time>
      </trkpt>
      <trkpt lat="44.74415" lon="-0.33495">
        <ele>105</ele>
        <time>2013-05-20T12:44:53Z</time>
      </trkpt>
      <trkpt lat="44.74387" lon="-0.33522">
        <ele>106</ele>
        <time>2013-05-20T12:45:01Z</time>
      </trkpt>
      <trkpt lat="44.74383" lon="-0.33524">
        <ele>106</ele>
        <time>2013-05-20T12:45:02Z</time>
      </trkpt>
      <trkpt lat="44.74379" lon="-0.33522">
        <ele>106</ele>
        <time>2013-05-20T12:45:03Z</time>
      </trkpt>
      <trkpt lat="44.74376" lon="-0.33518">
        <ele>106</ele>
        <time>2013-05-20T12:45:04Z</time>
      </trkpt>
      <trkpt lat="44.74373" lon="-0.33512">
        <ele>106</ele>
        <time>2013-05-20T12:45:05Z</time>
      </trkpt>
      <trkpt lat="44.74371" lon="-0.33506">
        <ele>106</ele>
        <time>2013-05-20T12:45:06Z</time>
      </trkpt>
      <trkpt lat="44.7437" lon="-0.335">
        <ele>106</ele>
        <time>2013-05-20T12:45:07Z</time>
      </trkpt>
      <trkpt lat="44.74358" lon="-0.33431">
        <ele>107</ele>
        <time>2013-05-20T12:45:18Z</time>
      </trkpt>
      <trkpt lat="44.74351" lon="-0.33397">
        <ele>106</ele>
        <time>2013-05-20T12:45:24Z</time>
      </trkpt>
      <trkpt lat="44.74349" lon="-0.33393">
        <ele>106</ele>
        <time>2013-05-20T12:45:25Z</time>
      </trkpt>
      <trkpt lat="44.74346" lon="-0.33389">
        <ele>106</ele>
        <time>2013-05-20T12:45:26Z</time>
      </trkpt>
      <trkpt lat="44.74342" lon="-0.33386">
        <ele>106</ele>
        <time>2013-05-20T12:45:27Z</time>
      </trkpt>
      <trkpt lat="44.74338" lon="-0.33385">
        <ele>106</ele>
        <time>2013-05-20T12:45:28Z</time>
      </trkpt>
      <trkpt lat="44.74334" lon="-0.33385">
        <ele>106</ele>
        <time>2013-05-20T12:45:29Z</time>
      </trkpt>
      <trkpt lat="44.7433" lon="-0.33387">
        <ele>106</ele>
        <time>2013-05-20T12:45:30Z</time>
      </trkpt>
      <trkpt lat="44.74326" lon="-0.33388">
        <ele>106</ele>
        <time>2013-05-20T12:45:31Z</time>
      </trkpt>
      <trkpt lat="44.74322" lon="-0.3339">
        <ele>106</ele>
        <time>2013-05-20T12:45:32Z</time>
      </trkpt>
      <trkpt lat="44.74297" lon="-0.33399">
        <ele>106</ele>
        <time>2013-05-20T12:45:38Z</time>
      </trkpt>
      <trkpt lat="44.74249" lon="-0.33417">
        <ele>105</ele>
        <time>2013-05-20T12:45:50Z</time>
      </trkpt>
      <trkpt lat="44.74231" lon="-0.33423">
        <ele>104</ele>
        <time>2013-05-20T12:45:55Z</time>
      </trkpt>
      <trkpt lat="44.74227" lon="-0.3342">
        <ele>104</ele>
        <time>2013-05-20T12:45:56Z</time>
      </trkpt>
      <trkpt lat="44.74224" lon="-0.33416">
        <ele>103</ele>
        <time>2013-05-20T12:45:57Z</time>
      </trkpt>
      <trkpt lat="44.74221" lon="-0.3341">
        <ele>103</ele>
        <time>2013-05-20T12:45:58Z</time>
      </trkpt>
      <trkpt lat="44.74219" lon="-0.33404">
        <ele>103</ele>
        <time>2013-05-20T12:45:59Z</time>
      </trkpt>
      <trkpt lat="44.74216" lon="-0.33398">
        <ele>103</ele>
        <time>2013-05-20T12:46:00Z</time>
      </trkpt>
      <trkpt lat="44.74212" lon="-0.33391">
        <ele>103</ele>
        <time>2013-05-20T12:46:01Z</time>
      </trkpt>
      <trkpt lat="44.74207" lon="-0.33386">
        <ele>102</ele>
        <time>2013-05-20T12:46:02Z</time>
      </trkpt>
      <trkpt lat="44.74201" lon="-0.33382">
        <ele>102</ele>
        <time>2013-05-20T12:46:03Z</time>
      </trkpt>
      <trkpt lat="44.74196" lon="-0.33378">
        <ele>101</ele>
        <time>2013-05-20T12:46:04Z</time>
      </trkpt>
      <trkpt lat="44.74159" lon="-0.33349">
        <ele>98</ele>
        <time>2013-05-20T12:46:11Z</time>
      </trkpt>
      <trkpt lat="44.74155" lon="-0.33346">
        <ele>98</ele>
        <time>2013-05-20T12:46:12Z</time>
      </trkpt>
      <trkpt lat="44.74151" lon="-0.33342">
        <ele>98</ele>
        <time>2013-05-20T12:46:13Z</time>
      </trkpt>
      <trkpt lat="44.7411" lon="-0.33307">
        <ele>97</ele>
        <time>2013-05-20T12:46:22Z</time>
      </trkpt>
      <trkpt lat="44.74105" lon="-0.33303">
        <ele>97</ele>
        <time>2013-05-20T12:46:23Z</time>
      </trkpt>
      <trkpt lat="44.74102" lon="-0.33299">
        <ele>97</ele>
        <time>2013-05-20T12:46:24Z</time>
      </trkpt>
      <trkpt lat="44.74098" lon="-0.33295">
        <ele>96</ele>
        <time>2013-05-20T12:46:25Z</time>
      </trkpt>
      <trkpt lat="44.74094" lon="-0.33291">
        <ele>96</ele>
        <time>2013-05-20T12:46:26Z</time>
      </trkpt>
      <trkpt lat="44.7409" lon="-0.33286">
        <ele>95</ele>
        <time>2013-05-20T12:46:27Z</time>
      </trkpt>
      <trkpt lat="44.74086" lon="-0.33282">
        <ele>95</ele>
        <time>2013-05-20T12:46:28Z</time>
      </trkpt>
      <trkpt lat="44.74083" lon="-0.33278">
        <ele>95</ele>
        <time>2013-05-20T12:46:29Z</time>
      </trkpt>
      <trkpt lat="44.74054" lon="-0.33248">
        <ele>93</ele>
        <time>2013-05-20T12:46:36Z</time>
      </trkpt>
      <trkpt lat="44.74021" lon="-0.33212">
        <ele>91</ele>
        <time>2013-05-20T12:46:44Z</time>
      </trkpt>
      <trkpt lat="44.74017" lon="-0.33209">
        <ele>91</ele>
        <time>2013-05-20T12:46:45Z</time>
      </trkpt>
      <trkpt lat="44.74014" lon="-0.33205">
        <ele>91</ele>
        <time>2013-05-20T12:46:46Z</time>
      </trkpt>
      <trkpt lat="44.73988" lon="-0.33172">
        <ele>90</ele>
        <time>2013-05-20T12:46:54Z</time>
      </trkpt>
      <trkpt lat="44.73985" lon="-0.33168">
        <ele>90</ele>
        <time>2013-05-20T12:46:55Z</time>
      </trkpt>
      <trkpt lat="44.73983" lon="-0.33165">
        <ele>90</ele>
        <time>2013-05-20T12:46:56Z</time>
      </trkpt>
      <trkpt lat="44.7398" lon="-0.33161">
        <ele>90</ele>
        <time>2013-05-20T12:46:57Z</time>
      </trkpt>
      <trkpt lat="44.73977" lon="-0.33158">
        <ele>89</ele>
        <time>2013-05-20T12:46:58Z</time>
      </trkpt>
      <trkpt lat="44.73975" lon="-0.33154">
        <ele>89</ele>
        <time>2013-05-20T12:46:59Z</time>
      </trkpt>
      <trkpt lat="44.73973" lon="-0.33151">
        <ele>89</ele>
        <time>2013-05-20T12:47:00Z</time>
      </trkpt>
      <trkpt lat="44.73957" lon="-0.33124">
        <ele>87</ele>
        <time>2013-05-20T12:47:07Z</time>
      </trkpt>
      <trkpt lat="44.73944" lon="-0.33101">
        <ele>86</ele>
        <time>2013-05-20T12:47:12Z</time>
      </trkpt>
      <trkpt lat="44.73942" lon="-0.33096">
        <ele>85</ele>
        <time>2013-05-20T12:47:13Z</time>
      </trkpt>
      <trkpt lat="44.73919" lon="-0.33062">
        <ele>82</ele>
        <time>2013-05-20T12:47:20Z</time>
      </trkpt>
      <trkpt lat="44.739" lon="-0.33044">
        <ele>80</ele>
        <time>2013-05-20T12:47:26Z</time>
      </trkpt>
      <trkpt lat="44.73881" lon="-0.33026">
        <ele>78</ele>
        <time>2013-05-20T12:47:33Z</time>
      </trkpt>
      <trkpt lat="44.73874" lon="-0.33014">
        <ele>77</ele>
        <time>2013-05-20T12:47:36Z</time>
      </trkpt>
      <trkpt lat="44.73867" lon="-0.33003">
        <ele>76</ele>
        <time>2013-05-20T12:47:38Z</time>
      </trkpt>
      <trkpt lat="44.7385" lon="-0.32978">
        <ele>74</ele>
        <time>2013-05-20T12:47:43Z</time>
      </trkpt>
      <trkpt lat="44.73846" lon="-0.32967">
        <ele>73</ele>
        <time>2013-05-20T12:47:45Z</time>
      </trkpt>
      <trkpt lat="44.73843" lon="-0.32952">
        <ele>72</ele>
        <time>2013-05-20T12:47:48Z</time>
      </trkpt>
      <trkpt lat="44.73831" lon="-0.32945">
        <ele>71</ele>
        <time>2013-05-20T12:47:52Z</time>
      </trkpt>
      <trkpt lat="44.73812" lon="-0.32951">
        <ele>70</ele>
        <time>2013-05-20T12:47:58Z</time>
      </trkpt>
      <trkpt lat="44.73789" lon="-0.32951">
        <ele>69</ele>
        <time>2013-05-20T12:48:04Z</time>
      </trkpt>
      <trkpt lat="44.73769" lon="-0.32958">
        <ele>67</ele>
        <time>2013-05-20T12:48:09Z</time>
      </trkpt>
      <trkpt lat="44.73739" lon="-0.32972">
        <ele>64</ele>
        <time>2013-05-20T12:48:16Z</time>
      </trkpt>
      <trkpt lat="44.73718" lon="-0.3298">
        <ele>61</ele>
        <time>2013-05-20T12:48:21Z</time>
      </trkpt>
      <trkpt lat="44.73714" lon="-0.32983">
        <ele>61</ele>
        <time>2013-05-20T12:48:22Z</time>
      </trkpt>
      <trkpt lat="44.73702" lon="-0.32989">
        <ele>59</ele>
        <time>2013-05-20T12:48:25Z</time>
      </trkpt>
      <trkpt lat="44.73678" lon="-0.32992">
        <ele>55</ele>
        <time>2013-05-20T12:48:31Z</time>
      </trkpt>
      <trkpt lat="44.73661" lon="-0.32984">
        <ele>55</ele>
        <time>2013-05-20T12:48:36Z</time>
      </trkpt>
      <trkpt lat="44.73645" lon="-0.3298">
        <ele>54</ele>
        <time>2013-05-20T12:48:41Z</time>
      </trkpt>
      <trkpt lat="44.73616" lon="-0.32973">
        <ele>55</ele>
        <time>2013-05-20T12:48:48Z</time>
      </trkpt>
      <trkpt lat="44.73601" lon="-0.32968">
        <ele>55</ele>
        <time>2013-05-20T12:48:51Z</time>
      </trkpt>
      <trkpt lat="44.73571" lon="-0.32968">
        <ele>55</ele>
        <time>2013-05-20T12:48:58Z</time>
      </trkpt>
      <trkpt lat="44.73551" lon="-0.32972">
        <ele>54</ele>
        <time>2013-05-20T12:49:04Z</time>
      </trkpt>
      <trkpt lat="44.73537" lon="-0.32975">
        <ele>54</ele>
        <time>2013-05-20T12:49:09Z</time>
      </trkpt>
      <trkpt lat="44.73528" lon="-0.32977">
        <ele>54</ele>
        <time>2013-05-20T12:49:13Z</time>
      </trkpt>
      <trkpt lat="44.73507" lon="-0.32979">
        <ele>54</ele>
        <time>2013-05-20T12:49:21Z</time>
      </trkpt>
      <trkpt lat="44.73491" lon="-0.32983">
        <ele>54</ele>
        <time>2013-05-20T12:49:27Z</time>
      </trkpt>
      <trkpt lat="44.73478" lon="-0.32984">
        <ele>54</ele>
        <time>2013-05-20T12:49:33Z</time>
      </trkpt>
      <trkpt lat="44.73469" lon="-0.32986">
        <ele>54</ele>
        <time>2013-05-20T12:49:37Z</time>
      </trkpt>
      <trkpt lat="44.73455" lon="-0.32991">
        <ele>54</ele>
        <time>2013-05-20T12:49:45Z</time>
      </trkpt>
      <trkpt lat="44.73444" lon="-0.32994">
        <ele>55</ele>
        <time>2013-05-20T12:49:50Z</time>
      </trkpt>
      <trkpt lat="44.73428" lon="-0.33005">
        <ele>56</ele>
        <time>2013-05-20T12:49:57Z</time>
      </trkpt>
      <trkpt lat="44.73413" lon="-0.33013">
        <ele>56</ele>
        <time>2013-05-20T12:50:04Z</time>
      </trkpt>
      <trkpt lat="44.73408" lon="-0.33016">
        <ele>56</ele>
        <time>2013-05-20T12:50:12Z</time>
      </trkpt>
      <trkpt lat="44.73406" lon="-0.33017">
        <ele>56</ele>
        <time>2013-05-20T12:50:23Z</time>
      </trkpt>
      <trkpt lat="44.73404" lon="-0.33017">
        <ele>56</ele>
        <time>2013-05-20T12:50:35Z</time>
      </trkpt>
      <trkpt lat="44.73403" lon="-0.33018">
        <ele>56</ele>
        <time>2013-05-20T12:50:51Z</time>
      </trkpt>
      <trkpt lat="44.73403" lon="-0.33017">
        <ele>56</ele>
        <time>2013-05-20T12:51:02Z</time>
      </trkpt>
      <trkpt lat="44.73407" lon="-0.33009">
        <ele>56</ele>
        <time>2013-05-20T12:51:09Z</time>
      </trkpt>
      <trkpt lat="44.73407" lon="-0.33006">
        <ele>55</ele>
        <time>2013-05-20T12:51:11Z</time>
      </trkpt>
      <trkpt lat="44.73411" lon="-0.32988">
        <ele>54</ele>
        <time>2013-05-20T12:51:18Z</time>
      </trkpt>
      <trkpt lat="44.73412" lon="-0.32985">
        <ele>53</ele>
        <time>2013-05-20T12:51:19Z</time>
      </trkpt>
      <trkpt lat="44.73404" lon="-0.3297">
        <ele>52</ele>
        <time>2013-05-20T12:51:24Z</time>
      </trkpt>
      <trkpt lat="44.73393" lon="-0.32954">
        <ele>51</ele>
        <time>2013-05-20T12:51:31Z</time>
      </trkpt>
      <trkpt lat="44.73394" lon="-0.32949">
        <ele>50</ele>
        <time>2013-05-20T12:51:33Z</time>
      </trkpt>
      <trkpt lat="44.73395" lon="-0.32947">
        <ele>50</ele>
        <time>2013-05-20T12:51:35Z</time>
      </trkpt>
      <trkpt lat="44.73396" lon="-0.32937">
        <ele>49</ele>
        <time>2013-05-20T12:51:40Z</time>
      </trkpt>
      <trkpt lat="44.734" lon="-0.32928">
        <ele>49</ele>
        <time>2013-05-20T12:51:44Z</time>
      </trkpt>
      <trkpt lat="44.73416" lon="-0.32917">
        <ele>48</ele>
        <time>2013-05-20T12:51:53Z</time>
      </trkpt>
      <trkpt lat="44.73422" lon="-0.32916">
        <ele>48</ele>
        <time>2013-05-20T12:51:57Z</time>
      </trkpt>
      <trkpt lat="44.7343" lon="-0.3291">
        <ele>48</ele>
        <time>2013-05-20T12:52:04Z</time>
      </trkpt>
      <trkpt lat="44.73434" lon="-0.32904">
        <ele>48</ele>
        <time>2013-05-20T12:52:09Z</time>
      </trkpt>
      <trkpt lat="44.73434" lon="-0.32898">
        <ele>48</ele>
        <time>2013-05-20T12:52:13Z</time>
      </trkpt>
      <trkpt lat="44.73433" lon="-0.3288">
        <ele>48</ele>
        <time>2013-05-20T12:52:20Z</time>
      </trkpt>
      <trkpt lat="44.73434" lon="-0.32873">
        <ele>49</ele>
        <time>2013-05-20T12:52:26Z</time>
      </trkpt>
      <trkpt lat="44.73429" lon="-0.32868">
        <ele>49</ele>
        <time>2013-05-20T12:52:30Z</time>
      </trkpt>
      <trkpt lat="44.73421" lon="-0.32866">
        <ele>50</ele>
        <time>2013-05-20T12:52:36Z</time>
      </trkpt>
      <trkpt lat="44.73419" lon="-0.32864">
        <ele>50</ele>
        <time>2013-05-20T12:52:38Z</time>
      </trkpt>
      <trkpt lat="44.73403" lon="-0.32856">
        <ele>51</ele>
        <time>2013-05-20T12:52:47Z</time>
      </trkpt>
      <trkpt lat="44.73391" lon="-0.3285">
        <ele>51</ele>
        <time>2013-05-20T12:52:53Z</time>
      </trkpt>
      <trkpt lat="44.7339" lon="-0.32849">
        <ele>51</ele>
        <time>2013-05-20T12:52:54Z</time>
      </trkpt>
      <trkpt lat="44.73383" lon="-0.32831">
        <ele>54</ele>
        <time>2013-05-20T12:53:02Z</time>
      </trkpt>
      <trkpt lat="44.73386" lon="-0.32817">
        <ele>56</ele>
        <time>2013-05-20T12:53:09Z</time>
      </trkpt>
      <trkpt lat="44.73388" lon="-0.3281">
        <ele>57</ele>
        <time>2013-05-20T12:53:13Z</time>
      </trkpt>
      <trkpt lat="44.73387" lon="-0.32803">
        <ele>58</ele>
        <time>2013-05-20T12:53:17Z</time>
      </trkpt>
      <trkpt lat="44.73386" lon="-0.32799">
        <ele>58</ele>
        <time>2013-05-20T12:53:19Z</time>
      </trkpt>
      <trkpt lat="44.73383" lon="-0.32789">
        <ele>59</ele>
        <time>2013-05-20T12:53:25Z</time>
      </trkpt>
      <trkpt lat="44.7338" lon="-0.32775">
        <ele>61</ele>
        <time>2013-05-20T12:53:33Z</time>
      </trkpt>
      <trkpt lat="44.7338" lon="-0.32761">
        <ele>63</ele>
        <time>2013-05-20T12:53:41Z</time>
      </trkpt>
      <trkpt lat="44.73381" lon="-0.32753">
        <ele>64</ele>
        <time>2013-05-20T12:53:46Z</time>
      </trkpt>
      <trkpt lat="44.73383" lon="-0.32742">
        <ele>65</ele>
        <time>2013-05-20T12:53:53Z</time>
      </trkpt>
      <trkpt lat="44.73383" lon="-0.32736">
        <ele>66</ele>
        <time>2013-05-20T12:53:57Z</time>
      </trkpt>
      <trkpt lat="44.73388" lon="-0.32723">
        <ele>68</ele>
        <time>2013-05-20T12:54:06Z</time>
      </trkpt>
      <trkpt lat="44.7339" lon="-0.32713">
        <ele>69</ele>
        <time>2013-05-20T12:54:12Z</time>
      </trkpt>
      <trkpt lat="44.73393" lon="-0.32706">
        <ele>70</ele>
        <time>2013-05-20T12:54:17Z</time>
      </trkpt>
      <trkpt lat="44.73396" lon="-0.32703">
        <ele>71</ele>
        <time>2013-05-20T12:54:20Z</time>
      </trkpt>
      <trkpt lat="44.73397" lon="-0.32694">
        <ele>72</ele>
        <time>2013-05-20T12:54:27Z</time>
      </trkpt>
      <trkpt lat="44.73396" lon="-0.32689">
        <ele>72</ele>
        <time>2013-05-20T12:54:34Z</time>
      </trkpt>
      <trkpt lat="44.73396" lon="-0.32686">
        <ele>73</ele>
        <time>2013-05-20T12:54:44Z</time>
      </trkpt>
      <trkpt lat="44.73399" lon="-0.32675">
        <ele>74</ele>
        <time>2013-05-20T12:54:50Z</time>
      </trkpt>
      <trkpt lat="44.734" lon="-0.32671">
        <ele>74</ele>
        <time>2013-05-20T12:54:57Z</time>
      </trkpt>
      <trkpt lat="44.73401" lon="-0.32664">
        <ele>75</ele>
        <time>2013-05-20T12:55:04Z</time>
      </trkpt>
      <trkpt lat="44.73403" lon="-0.32657">
        <ele>76</ele>
        <time>2013-05-20T12:55:12Z</time>
      </trkpt>
      <trkpt lat="44.73404" lon="-0.32653">
        <ele>76</ele>
        <time>2013-05-20T12:55:20Z</time>
      </trkpt>
      <trkpt lat="44.73406" lon="-0.32649">
        <ele>77</ele>
        <time>2013-05-20T12:55:27Z</time>
      </trkpt>
      <trkpt lat="44.73406" lon="-0.32645">
        <ele>77</ele>
        <time>2013-05-20T12:55:34Z</time>
      </trkpt>
      <trkpt lat="44.73408" lon="-0.32636">
        <ele>78</ele>
        <time>2013-05-20T12:55:42Z</time>
      </trkpt>
      <trkpt lat="44.7341" lon="-0.3263">
        <ele>79</ele>
        <time>2013-05-20T12:55:49Z</time>
      </trkpt>
      <trkpt lat="44.73412" lon="-0.32623">
        <ele>80</ele>
        <time>2013-05-20T12:55:54Z</time>
      </trkpt>
      <trkpt lat="44.73412" lon="-0.32613">
        <ele>81</ele>
        <time>2013-05-20T12:56:00Z</time>
      </trkpt>
      <trkpt lat="44.73412" lon="-0.32603">
        <ele>82</ele>
        <time>2013-05-20T12:56:07Z</time>
      </trkpt>
      <trkpt lat="44.73407" lon="-0.32596">
        <ele>83</ele>
        <time>2013-05-20T12:56:14Z</time>
      </trkpt>
      <trkpt lat="44.73407" lon="-0.32595">
        <ele>83</ele>
        <time>2013-05-20T12:56:18Z</time>
      </trkpt>
      <trkpt lat="44.73404" lon="-0.32589">
        <ele>84</ele>
        <time>2013-05-20T12:56:24Z</time>
      </trkpt>
      <trkpt lat="44.73401" lon="-0.32582">
        <ele>84</ele>
        <time>2013-05-20T12:56:29Z</time>
      </trkpt>
      <trkpt lat="44.73398" lon="-0.32569">
        <ele>85</ele>
        <time>2013-05-20T12:56:35Z</time>
      </trkpt>
      <trkpt lat="44.73396" lon="-0.32561">
        <ele>86</ele>
        <time>2013-05-20T12:56:42Z</time>
      </trkpt>
      <trkpt lat="44.73396" lon="-0.32559">
        <ele>86</ele>
        <time>2013-05-20T12:56:54Z</time>
      </trkpt>
      <trkpt lat="44.73396" lon="-0.32558">
        <ele>86</ele>
        <time>2013-05-20T12:57:08Z</time>
      </trkpt>
      <trkpt lat="44.73396" lon="-0.32558">
        <ele>86</ele>
        <time>2013-05-20T12:57:16Z</time>
      </trkpt>
      <trkpt lat="44.73395" lon="-0.32559">
        <ele>86</ele>
        <time>2013-05-20T12:57:29Z</time>
      </trkpt>
      <trkpt lat="44.73396" lon="-0.32559">
        <ele>86</ele>
        <time>2013-05-20T12:57:44Z</time>
      </trkpt>
      <trkpt lat="44.73396" lon="-0.32558">
        <ele>86</ele>
        <time>2013-05-20T12:57:59Z</time>
      </trkpt>
      <trkpt lat="44.73396" lon="-0.32558">
        <ele>86</ele>
        <time>2013-05-20T12:58:13Z</time>
      </trkpt>
      <trkpt lat="44.73396" lon="-0.32558">
        <ele>86</ele>
        <time>2013-05-20T12:58:28Z</time>
      </trkpt>
      <trkpt lat="44.73396" lon="-0.32558">
        <ele>86</ele>
        <time>2013-05-20T12:58:43Z</time>
      </trkpt>
      <trkpt lat="44.73395" lon="-0.32555">
        <ele>86</ele>
        <time>2013-05-20T12:58:46Z</time>
      </trkpt>
      <trkpt lat="44.73388" lon="-0.32545">
        <ele>86</ele>
        <time>2013-05-20T12:58:53Z</time>
      </trkpt>
      <trkpt lat="44.73379" lon="-0.32534">
        <ele>86</ele>
        <time>2013-05-20T12:58:59Z</time>
      </trkpt>
      <trkpt lat="44.73372" lon="-0.32519">
        <ele>85</ele>
        <time>2013-05-20T12:59:05Z</time>
      </trkpt>
      <trkpt lat="44.73363" lon="-0.32504">
        <ele>84</ele>
        <time>2013-05-20T12:59:10Z</time>
      </trkpt>
      <trkpt lat="44.7336" lon="-0.32487">
        <ele>83</ele>
        <time>2013-05-20T12:59:16Z</time>
      </trkpt>
      <trkpt lat="44.73355" lon="-0.32473">
        <ele>81</ele>
        <time>2013-05-20T12:59:21Z</time>
      </trkpt>
      <trkpt lat="44.73355" lon="-0.32456">
        <ele>80</ele>
        <time>2013-05-20T12:59:29Z</time>
      </trkpt>
      <trkpt lat="44.73367" lon="-0.3244">
        <ele>81</ele>
        <time>2013-05-20T12:59:37Z</time>
      </trkpt>
      <trkpt lat="44.73375" lon="-0.3242">
        <ele>80</ele>
        <time>2013-05-20T12:59:42Z</time>
      </trkpt>
      <trkpt lat="44.7339" lon="-0.32396">
        <ele>80</ele>
        <time>2013-05-20T12:59:49Z</time>
      </trkpt>
      <trkpt lat="44.734" lon="-0.3238">
        <ele>80</ele>
        <time>2013-05-20T12:59:54Z</time>
      </trkpt>
      <trkpt lat="44.734" lon="-0.32376">
        <ele>80</ele>
        <time>2013-05-20T12:59:55Z</time>
      </trkpt>
      <trkpt lat="44.73407" lon="-0.32367">
        <ele>80</ele>
        <time>2013-05-20T12:59:58Z</time>
      </trkpt>
      <trkpt lat="44.73417" lon="-0.32354">
        <ele>81</ele>
        <time>2013-05-20T13:00:04Z</time>
      </trkpt>
      <trkpt lat="44.73421" lon="-0.3235">
        <ele>82</ele>
        <time>2013-05-20T13:00:06Z</time>
      </trkpt>
      <trkpt lat="44.7343" lon="-0.32342">
        <ele>83</ele>
        <time>2013-05-20T13:00:10Z</time>
      </trkpt>
      <trkpt lat="44.73446" lon="-0.32327">
        <ele>84</ele>
        <time>2013-05-20T13:00:17Z</time>
      </trkpt>
      <trkpt lat="44.73454" lon="-0.32316">
        <ele>85</ele>
        <time>2013-05-20T13:00:21Z</time>
      </trkpt>
      <trkpt lat="44.73466" lon="-0.32305">
        <ele>86</ele>
        <time>2013-05-20T13:00:26Z</time>
      </trkpt>
      <trkpt lat="44.73484" lon="-0.3228">
        <ele>85</ele>
        <time>2013-05-20T13:00:33Z</time>
      </trkpt>
      <trkpt lat="44.73487" lon="-0.32277">
        <ele>85</ele>
        <time>2013-05-20T13:00:36Z</time>
      </trkpt>
      <trkpt lat="44.73504" lon="-0.32265">
        <ele>84</ele>
        <time>2013-05-20T13:00:42Z</time>
      </trkpt>
      <trkpt lat="44.73519" lon="-0.32247">
        <ele>82</ele>
        <time>2013-05-20T13:00:47Z</time>
      </trkpt>
      <trkpt lat="44.73523" lon="-0.3224">
        <ele>81</ele>
        <time>2013-05-20T13:00:49Z</time>
      </trkpt>
      <trkpt lat="44.73541" lon="-0.32217">
        <ele>79</ele>
        <time>2013-05-20T13:00:56Z</time>
      </trkpt>
      <trkpt lat="44.73565" lon="-0.32182">
        <ele>77</ele>
        <time>2013-05-20T13:01:03Z</time>
      </trkpt>
      <trkpt lat="44.73588" lon="-0.3213">
        <ele>76</ele>
        <time>2013-05-20T13:01:12Z</time>
      </trkpt>
      <trkpt lat="44.73596" lon="-0.32104">
        <ele>76</ele>
        <time>2013-05-20T13:01:16Z</time>
      </trkpt>
      <trkpt lat="44.73595" lon="-0.32061">
        <ele>75</ele>
        <time>2013-05-20T13:01:23Z</time>
      </trkpt>
      <trkpt lat="44.73591" lon="-0.32026">
        <ele>74</ele>
        <time>2013-05-20T13:01:29Z</time>
      </trkpt>
      <trkpt lat="44.73583" lon="-0.31986">
        <ele>70</ele>
        <time>2013-05-20T13:01:36Z</time>
      </trkpt>
      <trkpt lat="44.73576" lon="-0.31963">
        <ele>68</ele>
        <time>2013-05-20T13:01:42Z</time>
      </trkpt>
      <trkpt lat="44.73561" lon="-0.31958">
        <ele>67</ele>
        <time>2013-05-20T13:01:48Z</time>
      </trkpt>
      <trkpt lat="44.7355" lon="-0.3195">
        <ele>66</ele>
        <time>2013-05-20T13:01:55Z</time>
      </trkpt>
      <trkpt lat="44.7354" lon="-0.31937">
        <ele>65</ele>
        <time>2013-05-20T13:02:01Z</time>
      </trkpt>
      <trkpt lat="44.73538" lon="-0.31933">
        <ele>65</ele>
        <time>2013-05-20T13:02:02Z</time>
      </trkpt>
      <trkpt lat="44.73515" lon="-0.31901">
        <ele>62</ele>
        <time>2013-05-20T13:02:10Z</time>
      </trkpt>
      <trkpt lat="44.73494" lon="-0.31877">
        <ele>59</ele>
        <time>2013-05-20T13:02:18Z</time>
      </trkpt>
      <trkpt lat="44.73487" lon="-0.31872">
        <ele>58</ele>
        <time>2013-05-20T13:02:24Z</time>
      </trkpt>
      <trkpt lat="44.73474" lon="-0.31865">
        <ele>56</ele>
        <time>2013-05-20T13:02:30Z</time>
      </trkpt>
      <trkpt lat="44.73456" lon="-0.31854">
        <ele>54</ele>
        <time>2013-05-20T13:02:38Z</time>
      </trkpt>
      <trkpt lat="44.73427" lon="-0.31834">
        <ele>53</ele>
        <time>2013-05-20T13:02:47Z</time>
      </trkpt>
      <trkpt lat="44.73419" lon="-0.31824">
        <ele>54</ele>
        <time>2013-05-20T13:02:50Z</time>
      </trkpt>
      <trkpt lat="44.73415" lon="-0.3182">
        <ele>54</ele>
        <time>2013-05-20T13:02:51Z</time>
      </trkpt>
      <trkpt lat="44.73399" lon="-0.318">
        <ele>57</ele>
        <time>2013-05-20T13:02:57Z</time>
      </trkpt>
      <trkpt lat="44.73397" lon="-0.31799">
        <ele>57</ele>
        <time>2013-05-20T13:02:58Z</time>
      </trkpt>
      <trkpt lat="44.73394" lon="-0.31798">
        <ele>57</ele>
        <time>2013-05-20T13:02:59Z</time>
      </trkpt>
      <trkpt lat="44.73392" lon="-0.31798">
        <ele>57</ele>
        <time>2013-05-20T13:03:00Z</time>
      </trkpt>
      <trkpt lat="44.7339" lon="-0.31799">
        <ele>58</ele>
        <time>2013-05-20T13:03:01Z</time>
      </trkpt>
      <trkpt lat="44.73388" lon="-0.318">
        <ele>58</ele>
        <time>2013-05-20T13:03:02Z</time>
      </trkpt>
      <trkpt lat="44.73376" lon="-0.31809">
        <ele>60</ele>
        <time>2013-05-20T13:03:08Z</time>
      </trkpt>
      <trkpt lat="44.73363" lon="-0.31816">
        <ele>61</ele>
        <time>2013-05-20T13:03:14Z</time>
      </trkpt>
      <trkpt lat="44.73347" lon="-0.31825">
        <ele>63</ele>
        <time>2013-05-20T13:03:21Z</time>
      </trkpt>
      <trkpt lat="44.73329" lon="-0.31835">
        <ele>64</ele>
        <time>2013-05-20T13:03:29Z</time>
      </trkpt>
      <trkpt lat="44.73311" lon="-0.31842">
        <ele>64</ele>
        <time>2013-05-20T13:03:37Z</time>
      </trkpt>
      <trkpt lat="44.73293" lon="-0.31847">
        <ele>64</ele>
        <time>2013-05-20T13:03:46Z</time>
      </trkpt>
      <trkpt lat="44.73283" lon="-0.31843">
        <ele>65</ele>
        <time>2013-05-20T13:03:52Z</time>
      </trkpt>
      <trkpt lat="44.7328" lon="-0.3183">
        <ele>66</ele>
        <time>2013-05-20T13:03:57Z</time>
      </trkpt>
      <trkpt lat="44.73279" lon="-0.31827">
        <ele>66</ele>
        <time>2013-05-20T13:03:58Z</time>
      </trkpt>
      <trkpt lat="44.73279" lon="-0.31825">
        <ele>66</ele>
        <time>2013-05-20T13:03:59Z</time>
      </trkpt>
      <trkpt lat="44.73278" lon="-0.31823">
        <ele>66</ele>
        <time>2013-05-20T13:04:00Z</time>
      </trkpt>
      <trkpt lat="44.73275" lon="-0.31811">
        <ele>67</ele>
        <time>2013-05-20T13:04:06Z</time>
      </trkpt>
      <trkpt lat="44.73275" lon="-0.31809">
        <ele>67</ele>
        <time>2013-05-20T13:04:07Z</time>
      </trkpt>
      <trkpt lat="44.73274" lon="-0.31806">
        <ele>67</ele>
        <time>2013-05-20T13:04:08Z</time>
      </trkpt>
      <trkpt lat="44.73274" lon="-0.31804">
        <ele>67</ele>
        <time>2013-05-20T13:04:09Z</time>
      </trkpt>
      <trkpt lat="44.73273" lon="-0.31803">
        <ele>67</ele>
        <time>2013-05-20T13:04:10Z</time>
      </trkpt>
      <trkpt lat="44.73273" lon="-0.31801">
        <ele>67</ele>
        <time>2013-05-20T13:04:11Z</time>
      </trkpt>
      <trkpt lat="44.7327" lon="-0.31792">
        <ele>68</ele>
        <time>2013-05-20T13:04:16Z</time>
      </trkpt>
      <trkpt lat="44.73269" lon="-0.31791">
        <ele>68</ele>
        <time>2013-05-20T13:04:17Z</time>
      </trkpt>
      <trkpt lat="44.73268" lon="-0.31789">
        <ele>68</ele>
        <time>2013-05-20T13:04:18Z</time>
      </trkpt>
      <trkpt lat="44.73267" lon="-0.31786">
        <ele>68</ele>
        <time>2013-05-20T13:04:19Z</time>
      </trkpt>
      <trkpt lat="44.73267" lon="-0.31784">
        <ele>69</ele>
        <time>2013-05-20T13:04:20Z</time>
      </trkpt>
      <trkpt lat="44.73265" lon="-0.3178">
        <ele>69</ele>
        <time>2013-05-20T13:04:23Z</time>
      </trkpt>
      <trkpt lat="44.73263" lon="-0.31779">
        <ele>69</ele>
        <time>2013-05-20T13:04:24Z</time>
      </trkpt>
      <trkpt lat="44.73263" lon="-0.31777">
        <ele>69</ele>
        <time>2013-05-20T13:04:25Z</time>
      </trkpt>
      <trkpt lat="44.73262" lon="-0.31775">
        <ele>69</ele>
        <time>2013-05-20T13:04:26Z</time>
      </trkpt>
      <trkpt lat="44.73259" lon="-0.31766">
        <ele>70</ele>
        <time>2013-05-20T13:04:31Z</time>
      </trkpt>
      <trkpt lat="44.73255" lon="-0.31753">
        <ele>71</ele>
        <time>2013-05-20T13:04:37Z</time>
      </trkpt>
      <trkpt lat="44.73249" lon="-0.31744">
        <ele>72</ele>
        <time>2013-05-20T13:04:44Z</time>
      </trkpt>
      <trkpt lat="44.7324" lon="-0.31729">
        <ele>73</ele>
        <time>2013-05-20T13:04:52Z</time>
      </trkpt>
      <trkpt lat="44.73232" lon="-0.31712">
        <ele>74</ele>
        <time>2013-05-20T13:04:59Z</time>
      </trkpt>
      <trkpt lat="44.73231" lon="-0.31707">
        <ele>75</ele>
        <time>2013-05-20T13:05:01Z</time>
      </trkpt>
      <trkpt lat="44.7323" lon="-0.31704">
        <ele>75</ele>
        <time>2013-05-20T13:05:02Z</time>
      </trkpt>
      <trkpt lat="44.73226" lon="-0.31695">
        <ele>76</ele>
        <time>2013-05-20T13:05:07Z</time>
      </trkpt>
      <trkpt lat="44.73226" lon="-0.31693">
        <ele>76</ele>
        <time>2013-05-20T13:05:08Z</time>
      </trkpt>
      <trkpt lat="44.73224" lon="-0.31687">
        <ele>77</ele>
        <time>2013-05-20T13:05:11Z</time>
      </trkpt>
      <trkpt lat="44.73221" lon="-0.31676">
        <ele>78</ele>
        <time>2013-05-20T13:05:17Z</time>
      </trkpt>
      <trkpt lat="44.7322" lon="-0.31672">
        <ele>78</ele>
        <time>2013-05-20T13:05:19Z</time>
      </trkpt>
      <trkpt lat="44.73217" lon="-0.31657">
        <ele>79</ele>
        <time>2013-05-20T13:05:26Z</time>
      </trkpt>
      <trkpt lat="44.73216" lon="-0.31652">
        <ele>80</ele>
        <time>2013-05-20T13:05:29Z</time>
      </trkpt>
      <trkpt lat="44.73214" lon="-0.31646">
        <ele>80</ele>
        <time>2013-05-20T13:05:32Z</time>
      </trkpt>
      <trkpt lat="44.7321" lon="-0.31633">
        <ele>81</ele>
        <time>2013-05-20T13:05:40Z</time>
      </trkpt>
      <trkpt lat="44.73207" lon="-0.31619">
        <ele>81</ele>
        <time>2013-05-20T13:05:47Z</time>
      </trkpt>
      <trkpt lat="44.73205" lon="-0.31609">
        <ele>82</ele>
        <time>2013-05-20T13:05:53Z</time>
      </trkpt>
      <trkpt lat="44.73202" lon="-0.31597">
        <ele>83</ele>
        <time>2013-05-20T13:06:00Z</time>
      </trkpt>
      <trkpt lat="44.732" lon="-0.31584">
        <ele>83</ele>
        <time>2013-05-20T13:06:07Z</time>
      </trkpt>
      <trkpt lat="44.73196" lon="-0.3157">
        <ele>84</ele>
        <time>2013-05-20T13:06:15Z</time>
      </trkpt>
      <trkpt lat="44.73195" lon="-0.31567">
        <ele>84</ele>
        <time>2013-05-20T13:06:17Z</time>
      </trkpt>
      <trkpt lat="44.73191" lon="-0.31556">
        <ele>85</ele>
        <time>2013-05-20T13:06:24Z</time>
      </trkpt>
      <trkpt lat="44.73189" lon="-0.31543">
        <ele>86</ele>
        <time>2013-05-20T13:06:31Z</time>
      </trkpt>
      <trkpt lat="44.73185" lon="-0.31526">
        <ele>87</ele>
        <time>2013-05-20T13:06:39Z</time>
      </trkpt>
      <trkpt lat="44.73184" lon="-0.31524">
        <ele>87</ele>
        <time>2013-05-20T13:06:40Z</time>
      </trkpt>
      <trkpt lat="44.73181" lon="-0.31516">
        <ele>87</ele>
        <time>2013-05-20T13:06:45Z</time>
      </trkpt>
      <trkpt lat="44.7318" lon="-0.31513">
        <ele>88</ele>
        <time>2013-05-20T13:06:47Z</time>
      </trkpt>
      <trkpt lat="44.73176" lon="-0.31507">
        <ele>88</ele>
        <time>2013-05-20T13:06:51Z</time>
      </trkpt>
      <trkpt lat="44.73175" lon="-0.31505">
        <ele>88</ele>
        <time>2013-05-20T13:06:52Z</time>
      </trkpt>
      <trkpt lat="44.73174" lon="-0.31497">
        <ele>88</ele>
        <time>2013-05-20T13:06:56Z</time>
      </trkpt>
      <trkpt lat="44.73173" lon="-0.31495">
        <ele>89</ele>
        <time>2013-05-20T13:06:57Z</time>
      </trkpt>
      <trkpt lat="44.73172" lon="-0.31493">
        <ele>89</ele>
        <time>2013-05-20T13:06:58Z</time>
      </trkpt>
      <trkpt lat="44.73169" lon="-0.31478">
        <ele>89</ele>
        <time>2013-05-20T13:07:06Z</time>
      </trkpt>
      <trkpt lat="44.73168" lon="-0.31474">
        <ele>90</ele>
        <time>2013-05-20T13:07:08Z</time>
      </trkpt>
      <trkpt lat="44.73167" lon="-0.31472">
        <ele>90</ele>
        <time>2013-05-20T13:07:09Z</time>
      </trkpt>
      <trkpt lat="44.73167" lon="-0.31465">
        <ele>90</ele>
        <time>2013-05-20T13:07:12Z</time>
      </trkpt>
      <trkpt lat="44.73166" lon="-0.31462">
        <ele>91</ele>
        <time>2013-05-20T13:07:13Z</time>
      </trkpt>
      <trkpt lat="44.73163" lon="-0.31444">
        <ele>92</ele>
        <time>2013-05-20T13:07:19Z</time>
      </trkpt>
      <trkpt lat="44.73158" lon="-0.3143">
        <ele>93</ele>
        <time>2013-05-20T13:07:25Z</time>
      </trkpt>
      <trkpt lat="44.73151" lon="-0.31409">
        <ele>95</ele>
        <time>2013-05-20T13:07:33Z</time>
      </trkpt>
      <trkpt lat="44.73149" lon="-0.31408">
        <ele>95</ele>
        <time>2013-05-20T13:07:34Z</time>
      </trkpt>
      <trkpt lat="44.73148" lon="-0.31405">
        <ele>95</ele>
        <time>2013-05-20T13:07:35Z</time>
      </trkpt>
      <trkpt lat="44.73147" lon="-0.31403">
        <ele>95</ele>
        <time>2013-05-20T13:07:36Z</time>
      </trkpt>
      <trkpt lat="44.73146" lon="-0.31401">
        <ele>95</ele>
        <time>2013-05-20T13:07:37Z</time>
      </trkpt>
      <trkpt lat="44.73145" lon="-0.314">
        <ele>96</ele>
        <time>2013-05-20T13:07:38Z</time>
      </trkpt>
      <trkpt lat="44.73144" lon="-0.31399">
        <ele>96</ele>
        <time>2013-05-20T13:07:39Z</time>
      </trkpt>
      <trkpt lat="44.73143" lon="-0.31396">
        <ele>96</ele>
        <time>2013-05-20T13:07:40Z</time>
      </trkpt>
      <trkpt lat="44.73136" lon="-0.3138">
        <ele>97</ele>
        <time>2013-05-20T13:07:46Z</time>
      </trkpt>
      <trkpt lat="44.73129" lon="-0.31362">
        <ele>99</ele>
        <time>2013-05-20T13:07:53Z</time>
      </trkpt>
      <trkpt lat="44.73126" lon="-0.31352">
        <ele>99</ele>
        <time>2013-05-20T13:08:00Z</time>
      </trkpt>
      <trkpt lat="44.73125" lon="-0.31347">
        <ele>99</ele>
        <time>2013-05-20T13:08:11Z</time>
      </trkpt>
      <trkpt lat="44.73126" lon="-0.31346">
        <ele>99</ele>
        <time>2013-05-20T13:08:23Z</time>
      </trkpt>
      <trkpt lat="44.73125" lon="-0.31343">
        <ele>100</ele>
        <time>2013-05-20T13:08:36Z</time>
      </trkpt>
      <trkpt lat="44.73126" lon="-0.31342">
        <ele>100</ele>
        <time>2013-05-20T13:08:52Z</time>
      </trkpt>
      <trkpt lat="44.73126" lon="-0.31341">
        <ele>100</ele>
        <time>2013-05-20T13:09:06Z</time>
      </trkpt>
      <trkpt lat="44.73126" lon="-0.31342">
        <ele>100</ele>
        <time>2013-05-20T13:09:17Z</time>
      </trkpt>
      <trkpt lat="44.73126" lon="-0.31341">
        <ele>100</ele>
        <time>2013-05-20T13:09:34Z</time>
      </trkpt>
      <trkpt lat="44.73122" lon="-0.31333">
        <ele>100</ele>
        <time>2013-05-20T13:09:41Z</time>
      </trkpt>
      <trkpt lat="44.7312" lon="-0.31332">
        <ele>100</ele>
        <time>2013-05-20T13:09:42Z</time>
      </trkpt>
      <trkpt lat="44.73113" lon="-0.31314">
        <ele>101</ele>
        <time>2013-05-20T13:09:48Z</time>
      </trkpt>
      <trkpt lat="44.73108" lon="-0.31295">
        <ele>102</ele>
        <time>2013-05-20T13:09:54Z</time>
      </trkpt>
      <trkpt lat="44.731" lon="-0.31273">
        <ele>103</ele>
        <time>2013-05-20T13:10:01Z</time>
      </trkpt>
      <trkpt lat="44.73099" lon="-0.31267">
        <ele>104</ele>
        <time>2013-05-20T13:10:03Z</time>
      </trkpt>
      <trkpt lat="44.73098" lon="-0.31264">
        <ele>104</ele>
        <time>2013-05-20T13:10:04Z</time>
      </trkpt>
      <trkpt lat="44.73097" lon="-0.31261">
        <ele>104</ele>
        <time>2013-05-20T13:10:05Z</time>
      </trkpt>
      <trkpt lat="44.73095" lon="-0.31259">
        <ele>104</ele>
        <time>2013-05-20T13:10:06Z</time>
      </trkpt>
      <trkpt lat="44.73094" lon="-0.31256">
        <ele>105</ele>
        <time>2013-05-20T13:10:07Z</time>
      </trkpt>
      <trkpt lat="44.73092" lon="-0.31254">
        <ele>105</ele>
        <time>2013-05-20T13:10:08Z</time>
      </trkpt>
      <trkpt lat="44.73091" lon="-0.31251">
        <ele>105</ele>
        <time>2013-05-20T13:10:09Z</time>
      </trkpt>
      <trkpt lat="44.73089" lon="-0.31248">
        <ele>105</ele>
        <time>2013-05-20T13:10:10Z</time>
      </trkpt>
      <trkpt lat="44.73089" lon="-0.31245">
        <ele>105</ele>
        <time>2013-05-20T13:10:11Z</time>
      </trkpt>
      <trkpt lat="44.73088" lon="-0.31241">
        <ele>106</ele>
        <time>2013-05-20T13:10:12Z</time>
      </trkpt>
      <trkpt lat="44.73087" lon="-0.31238">
        <ele>106</ele>
        <time>2013-05-20T13:10:13Z</time>
      </trkpt>
      <trkpt lat="44.73085" lon="-0.31235">
        <ele>106</ele>
        <time>2013-05-20T13:10:14Z</time>
      </trkpt>
      <trkpt lat="44.73083" lon="-0.31233">
        <ele>106</ele>
        <time>2013-05-20T13:10:15Z</time>
      </trkpt>
      <trkpt lat="44.73082" lon="-0.31231">
        <ele>106</ele>
        <time>2013-05-20T13:10:16Z</time>
      </trkpt>
      <trkpt lat="44.7308" lon="-0.3123">
        <ele>106</ele>
        <time>2013-05-20T13:10:17Z</time>
      </trkpt>
      <trkpt lat="44.73065" lon="-0.31224">
        <ele>107</ele>
        <time>2013-05-20T13:10:24Z</time>
      </trkpt>
      <trkpt lat="44.73051" lon="-0.31221">
        <ele>107</ele>
        <time>2013-05-20T13:10:30Z</time>
      </trkpt>
      <trkpt lat="44.73033" lon="-0.31219">
        <ele>107</ele>
        <time>2013-05-20T13:10:37Z</time>
      </trkpt>
      <trkpt lat="44.73018" lon="-0.31216">
        <ele>107</ele>
        <time>2013-05-20T13:10:43Z</time>
      </trkpt>
      <trkpt lat="44.72988" lon="-0.31213">
        <ele>106</ele>
        <time>2013-05-20T13:10:52Z</time>
      </trkpt>
      <trkpt lat="44.72963" lon="-0.31217">
        <ele>105</ele>
        <time>2013-05-20T13:10:59Z</time>
      </trkpt>
      <trkpt lat="44.72936" lon="-0.31219">
        <ele>104</ele>
        <time>2013-05-20T13:11:07Z</time>
      </trkpt>
      <trkpt lat="44.72912" lon="-0.31217">
        <ele>103</ele>
        <time>2013-05-20T13:11:14Z</time>
      </trkpt>
      <trkpt lat="44.72888" lon="-0.31221">
        <ele>102</ele>
        <time>2013-05-20T13:11:20Z</time>
      </trkpt>
      <trkpt lat="44.72864" lon="-0.31223">
        <ele>102</ele>
        <time>2013-05-20T13:11:27Z</time>
      </trkpt>
      <trkpt lat="44.72853" lon="-0.31224">
        <ele>102</ele>
        <time>2013-05-20T13:11:31Z</time>
      </trkpt>
      <trkpt lat="44.72845" lon="-0.31238">
        <ele>101</ele>
        <time>2013-05-20T13:11:35Z</time>
      </trkpt>
      <trkpt lat="44.72831" lon="-0.31266">
        <ele>101</ele>
        <time>2013-05-20T13:11:43Z</time>
      </trkpt>
      <trkpt lat="44.72827" lon="-0.31273">
        <ele>101</ele>
        <time>2013-05-20T13:11:48Z</time>
      </trkpt>
      <trkpt lat="44.72826" lon="-0.31275">
        <ele>101</ele>
        <time>2013-05-20T13:11:55Z</time>
      </trkpt>
      <trkpt lat="44.72823" lon="-0.31281">
        <ele>101</ele>
        <time>2013-05-20T13:12:02Z</time>
      </trkpt>
      <trkpt lat="44.72816" lon="-0.31297">
        <ele>101</ele>
        <time>2013-05-20T13:12:07Z</time>
      </trkpt>
      <trkpt lat="44.728" lon="-0.31326">
        <ele>101</ele>
        <time>2013-05-20T13:12:15Z</time>
      </trkpt>
      <trkpt lat="44.72784" lon="-0.31354">
        <ele>102</ele>
        <time>2013-05-20T13:12:23Z</time>
      </trkpt>
      <trkpt lat="44.72774" lon="-0.31378">
        <ele>102</ele>
        <time>2013-05-20T13:12:30Z</time>
      </trkpt>
      <trkpt lat="44.7276" lon="-0.31409">
        <ele>102</ele>
        <time>2013-05-20T13:12:40Z</time>
      </trkpt>
      <trkpt lat="44.72749" lon="-0.31434">
        <ele>102</ele>
        <time>2013-05-20T13:12:48Z</time>
      </trkpt>
      <trkpt lat="44.7274" lon="-0.31458">
        <ele>102</ele>
        <time>2013-05-20T13:12:55Z</time>
      </trkpt>
      <trkpt lat="44.72732" lon="-0.31479">
        <ele>102</ele>
        <time>2013-05-20T13:13:01Z</time>
      </trkpt>
      <trkpt lat="44.72725" lon="-0.31498">
        <ele>102</ele>
        <time>2013-05-20T13:13:07Z</time>
      </trkpt>
      <trkpt lat="44.7272" lon="-0.31505">
        <ele>102</ele>
        <time>2013-05-20T13:13:10Z</time>
      </trkpt>
      <trkpt lat="44.72725" lon="-0.31515">
        <ele>102</ele>
        <time>2013-05-20T13:13:15Z</time>
      </trkpt>
      <trkpt lat="44.72727" lon="-0.31516">
        <ele>102</ele>
        <time>2013-05-20T13:13:16Z</time>
      </trkpt>
      <trkpt lat="44.72745" lon="-0.31528">
        <ele>102</ele>
        <time>2013-05-20T13:13:25Z</time>
      </trkpt>
      <trkpt lat="44.72765" lon="-0.31542">
        <ele>102</ele>
        <time>2013-05-20T13:13:32Z</time>
      </trkpt>
      <trkpt lat="44.72773" lon="-0.31556">
        <ele>102</ele>
        <time>2013-05-20T13:13:36Z</time>
      </trkpt>
      <trkpt lat="44.72771" lon="-0.3158">
        <ele>102</ele>
        <time>2013-05-20T13:13:43Z</time>
      </trkpt>
      <trkpt lat="44.72775" lon="-0.31599">
        <ele>102</ele>
        <time>2013-05-20T13:13:48Z</time>
      </trkpt>
      <trkpt lat="44.72785" lon="-0.31612">
        <ele>101</ele>
        <time>2013-05-20T13:13:54Z</time>
      </trkpt>
      <trkpt lat="44.72791" lon="-0.31621">
        <ele>100</ele>
        <time>2013-05-20T13:13:58Z</time>
      </trkpt>
      <trkpt lat="44.72794" lon="-0.31642">
        <ele>100</ele>
        <time>2013-05-20T13:14:04Z</time>
      </trkpt>
      <trkpt lat="44.72796" lon="-0.31655">
        <ele>99</ele>
        <time>2013-05-20T13:14:08Z</time>
      </trkpt>
      <trkpt lat="44.72795" lon="-0.31681">
        <ele>100</ele>
        <time>2013-05-20T13:14:16Z</time>
      </trkpt>
      <trkpt lat="44.72796" lon="-0.317">
        <ele>100</ele>
        <time>2013-05-20T13:14:21Z</time>
      </trkpt>
      <trkpt lat="44.72796" lon="-0.31704">
        <ele>100</ele>
        <time>2013-05-20T13:14:22Z</time>
      </trkpt>
      <trkpt lat="44.72797" lon="-0.31739">
        <ele>100</ele>
        <time>2013-05-20T13:14:30Z</time>
      </trkpt>
      <trkpt lat="44.728" lon="-0.31769">
        <ele>100</ele>
        <time>2013-05-20T13:14:37Z</time>
      </trkpt>
      <trkpt lat="44.72806" lon="-0.31808">
        <ele>100</ele>
        <time>2013-05-20T13:14:46Z</time>
      </trkpt>
      <trkpt lat="44.72816" lon="-0.3184">
        <ele>98</ele>
        <time>2013-05-20T13:14:53Z</time>
      </trkpt>
      <trkpt lat="44.72831" lon="-0.31873">
        <ele>96</ele>
        <time>2013-05-20T13:15:01Z</time>
      </trkpt>
      <trkpt lat="44.72834" lon="-0.31897">
        <ele>94</ele>
        <time>2013-05-20T13:15:06Z</time>
      </trkpt>
      <trkpt lat="44.72834" lon="-0.31904">
        <ele>94</ele>
        <time>2013-05-20T13:15:10Z</time>
      </trkpt>
      <trkpt lat="44.72834" lon="-0.31905">
        <ele>94</ele>
        <time>2013-05-20T13:15:22Z</time>
      </trkpt>
      <trkpt lat="44.72833" lon="-0.31906">
        <ele>94</ele>
        <time>2013-05-20T13:15:42Z</time>
      </trkpt>
      <trkpt lat="44.72833" lon="-0.31907">
        <ele>94</ele>
        <time>2013-05-20T13:15:49Z</time>
      </trkpt>
      <trkpt lat="44.72834" lon="-0.31908">
        <ele>94</ele>
        <time>2013-05-20T13:15:54Z</time>
      </trkpt>
      <trkpt lat="44.72831" lon="-0.31914">
        <ele>94</ele>
        <time>2013-05-20T13:16:00Z</time>
      </trkpt>
      <trkpt lat="44.72829" lon="-0.31919">
        <ele>93</ele>
        <time>2013-05-20T13:16:07Z</time>
      </trkpt>
      <trkpt lat="44.72828" lon="-0.31926">
        <ele>93</ele>
        <time>2013-05-20T13:16:14Z</time>
      </trkpt>
      <trkpt lat="44.72825" lon="-0.31938">
        <ele>92</ele>
        <time>2013-05-20T13:16:20Z</time>
      </trkpt>
      <trkpt lat="44.72823" lon="-0.31944">
        <ele>92</ele>
        <time>2013-05-20T13:16:24Z</time>
      </trkpt>
      <trkpt lat="44.72824" lon="-0.31951">
        <ele>91</ele>
        <time>2013-05-20T13:16:28Z</time>
      </trkpt>
      <trkpt lat="44.72824" lon="-0.31961">
        <ele>91</ele>
        <time>2013-05-20T13:16:33Z</time>
      </trkpt>
      <trkpt lat="44.72817" lon="-0.31967">
        <ele>91</ele>
        <time>2013-05-20T13:16:38Z</time>
      </trkpt>
      <trkpt lat="44.72804" lon="-0.31973">
        <ele>91</ele>
        <time>2013-05-20T13:16:44Z</time>
      </trkpt>
      <trkpt lat="44.72785" lon="-0.31971">
        <ele>91</ele>
        <time>2013-05-20T13:16:51Z</time>
      </trkpt>
      <trkpt lat="44.72764" lon="-0.31968">
        <ele>91</ele>
        <time>2013-05-20T13:16:58Z</time>
      </trkpt>
      <trkpt lat="44.72745" lon="-0.31963">
        <ele>90</ele>
        <time>2013-05-20T13:17:04Z</time>
      </trkpt>
      <trkpt lat="44.7272" lon="-0.31956">
        <ele>90</ele>
        <time>2013-05-20T13:17:11Z</time>
      </trkpt>
      <trkpt lat="44.72706" lon="-0.31953">
        <ele>90</ele>
        <time>2013-05-20T13:17:16Z</time>
      </trkpt>
      <trkpt lat="44.72693" lon="-0.31947">
        <ele>91</ele>
        <time>2013-05-20T13:17:22Z</time>
      </trkpt>
      <trkpt lat="44.72669" lon="-0.31956">
        <ele>91</ele>
        <time>2013-05-20T13:17:29Z</time>
      </trkpt>
      <trkpt lat="44.72658" lon="-0.31965">
        <ele>91</ele>
        <time>2013-05-20T13:17:33Z</time>
      </trkpt>
      <trkpt lat="44.72653" lon="-0.31968">
        <ele>91</ele>
        <time>2013-05-20T13:17:35Z</time>
      </trkpt>
      <trkpt lat="44.72626" lon="-0.31981">
        <ele>92</ele>
        <time>2013-05-20T13:17:41Z</time>
      </trkpt>
      <trkpt lat="44.72599" lon="-0.31994">
        <ele>91</ele>
        <time>2013-05-20T13:17:48Z</time>
      </trkpt>
      <trkpt lat="44.72577" lon="-0.32001">
        <ele>91</ele>
        <time>2013-05-20T13:17:54Z</time>
      </trkpt>
      <trkpt lat="44.72563" lon="-0.32011">
        <ele>90</ele>
        <time>2013-05-20T13:18:00Z</time>
      </trkpt>
      <trkpt lat="44.72549" lon="-0.3202">
        <ele>89</ele>
        <time>2013-05-20T13:18:06Z</time>
      </trkpt>
      <trkpt lat="44.72534" lon="-0.32023">
        <ele>89</ele>
        <time>2013-05-20T13:18:13Z</time>
      </trkpt>
      <trkpt lat="44.72515" lon="-0.32029">
        <ele>88</ele>
        <time>2013-05-20T13:18:20Z</time>
      </trkpt>
      <trkpt lat="44.72497" lon="-0.32032">
        <ele>88</ele>
        <time>2013-05-20T13:18:28Z</time>
      </trkpt>
      <trkpt lat="44.72479" lon="-0.32036">
        <ele>88</ele>
        <time>2013-05-20T13:18:34Z</time>
      </trkpt>
      <trkpt lat="44.72466" lon="-0.32039">
        <ele>87</ele>
        <time>2013-05-20T13:18:40Z</time>
      </trkpt>
      <trkpt lat="44.72445" lon="-0.32043">
        <ele>87</ele>
        <time>2013-05-20T13:18:48Z</time>
      </trkpt>
      <trkpt lat="44.72422" lon="-0.32051">
        <ele>86</ele>
        <time>2013-05-20T13:18:56Z</time>
      </trkpt>
      <trkpt lat="44.72403" lon="-0.32059">
        <ele>84</ele>
        <time>2013-05-20T13:19:02Z</time>
      </trkpt>
      <trkpt lat="44.72381" lon="-0.32068">
        <ele>82</ele>
        <time>2013-05-20T13:19:09Z</time>
      </trkpt>
      <trkpt lat="44.72361" lon="-0.32078">
        <ele>80</ele>
        <time>2013-05-20T13:19:18Z</time>
      </trkpt>
      <trkpt lat="44.72343" lon="-0.32086">
        <ele>78</ele>
        <time>2013-05-20T13:19:27Z</time>
      </trkpt>
      <trkpt lat="44.72338" lon="-0.32089">
        <ele>77</ele>
        <time>2013-05-20T13:19:30Z</time>
      </trkpt>
      <trkpt lat="44.72336" lon="-0.32089">
        <ele>77</ele>
        <time>2013-05-20T13:19:31Z</time>
      </trkpt>
      <trkpt lat="44.72334" lon="-0.3209">
        <ele>77</ele>
        <time>2013-05-20T13:19:32Z</time>
      </trkpt>
      <trkpt lat="44.72329" lon="-0.32091">
        <ele>76</ele>
        <time>2013-05-20T13:19:38Z</time>
      </trkpt>
      <trkpt lat="44.72326" lon="-0.32093">
        <ele>76</ele>
        <time>2013-05-20T13:19:44Z</time>
      </trkpt>
      <trkpt lat="44.7231" lon="-0.32099">
        <ele>73</ele>
        <time>2013-05-20T13:19:51Z</time>
      </trkpt>
      <trkpt lat="44.72301" lon="-0.32101">
        <ele>72</ele>
        <time>2013-05-20T13:19:55Z</time>
      </trkpt>
      <trkpt lat="44.72298" lon="-0.32101">
        <ele>72</ele>
        <time>2013-05-20T13:19:56Z</time>
      </trkpt>
      <trkpt lat="44.72296" lon="-0.32102">
        <ele>71</ele>
        <time>2013-05-20T13:19:57Z</time>
      </trkpt>
      <trkpt lat="44.72278" lon="-0.32106">
        <ele>68</ele>
        <time>2013-05-20T13:20:03Z</time>
      </trkpt>
      <trkpt lat="44.72253" lon="-0.32117">
        <ele>65</ele>
        <time>2013-05-20T13:20:10Z</time>
      </trkpt>
      <trkpt lat="44.72231" lon="-0.32131">
        <ele>63</ele>
        <time>2013-05-20T13:20:16Z</time>
      </trkpt>
      <trkpt lat="44.72214" lon="-0.32139">
        <ele>62</ele>
        <time>2013-05-20T13:20:22Z</time>
      </trkpt>
      <trkpt lat="44.722" lon="-0.32147">
        <ele>61</ele>
        <time>2013-05-20T13:20:29Z</time>
      </trkpt>
      <trkpt lat="44.72194" lon="-0.32149">
        <ele>61</ele>
        <time>2013-05-20T13:20:35Z</time>
      </trkpt>
      <trkpt lat="44.72195" lon="-0.3215">
        <ele>61</ele>
        <time>2013-05-20T13:20:45Z</time>
      </trkpt>
      <trkpt lat="44.72195" lon="-0.3215">
        <ele>61</ele>
        <time>2013-05-20T13:20:59Z</time>
      </trkpt>
      <trkpt lat="44.72195" lon="-0.3215">
        <ele>61</ele>
        <time>2013-05-20T13:21:11Z</time>
      </trkpt>
      <trkpt lat="44.72194" lon="-0.32152">
        <ele>61</ele>
        <time>2013-05-20T13:21:21Z</time>
      </trkpt>
      <trkpt lat="44.72194" lon="-0.32152">
        <ele>61</ele>
        <time>2013-05-20T13:21:29Z</time>
      </trkpt>
      <trkpt lat="44.72193" lon="-0.32152">
        <ele>61</ele>
        <time>2013-05-20T13:21:39Z</time>
      </trkpt>
      <trkpt lat="44.72193" lon="-0.32151">
        <ele>61</ele>
        <time>2013-05-20T13:21:52Z</time>
      </trkpt>
      <trkpt lat="44.72194" lon="-0.32151">
        <ele>61</ele>
        <time>2013-05-20T13:22:06Z</time>
      </trkpt>
      <trkpt lat="44.72193" lon="-0.32151">
        <ele>61</ele>
        <time>2013-05-20T13:22:22Z</time>
      </trkpt>
      <trkpt lat="44.72193" lon="-0.32152">
        <ele>61</ele>
        <time>2013-05-20T13:22:35Z</time>
      </trkpt>
      <trkpt lat="44.72193" lon="-0.32152">
        <ele>61</ele>
        <time>2013-05-20T13:22:53Z</time>
      </trkpt>
      <trkpt lat="44.72193" lon="-0.32152">
        <ele>61</ele>
        <time>2013-05-20T13:23:12Z</time>
      </trkpt>
      <trkpt lat="44.72193" lon="-0.32153">
        <ele>61</ele>
        <time>2013-05-20T13:23:29Z</time>
      </trkpt>
      <trkpt lat="44.72193" lon="-0.32153">
        <ele>61</ele>
        <time>2013-05-20T13:23:44Z</time>
      </trkpt>
      <trkpt lat="44.72193" lon="-0.32153">
        <ele>61</ele>
        <time>2013-05-20T13:23:50Z</time>
      </trkpt>
      <trkpt lat="44.72193" lon="-0.32153">
        <ele>61</ele>
        <time>2013-05-20T13:23:58Z</time>
      </trkpt>
      <trkpt lat="44.72193" lon="-0.32153">
        <ele>61</ele>
        <time>2013-05-20T13:23:59Z</time>
      </trkpt>
      <trkpt lat="44.72189" lon="-0.32156">
        <ele>60</ele>
        <time>2013-05-20T13:24:03Z</time>
      </trkpt>
      <trkpt lat="44.72187" lon="-0.32155">
        <ele>60</ele>
        <time>2013-05-20T13:24:04Z</time>
      </trkpt>
      <trkpt lat="44.72185" lon="-0.32156">
        <ele>60</ele>
        <time>2013-05-20T13:24:05Z</time>
      </trkpt>
      <trkpt lat="44.72183" lon="-0.32157">
        <ele>60</ele>
        <time>2013-05-20T13:24:06Z</time>
      </trkpt>
      <trkpt lat="44.72181" lon="-0.32158">
        <ele>60</ele>
        <time>2013-05-20T13:24:07Z</time>
      </trkpt>
      <trkpt lat="44.72179" lon="-0.32158">
        <ele>60</ele>
        <time>2013-05-20T13:24:08Z</time>
      </trkpt>
      <trkpt lat="44.72177" lon="-0.32159">
        <ele>59</ele>
        <time>2013-05-20T13:24:09Z</time>
      </trkpt>
      <trkpt lat="44.72174" lon="-0.32161">
        <ele>59</ele>
        <time>2013-05-20T13:24:10Z</time>
      </trkpt>
      <trkpt lat="44.72171" lon="-0.32162">
        <ele>59</ele>
        <time>2013-05-20T13:24:11Z</time>
      </trkpt>
      <trkpt lat="44.72143" lon="-0.32172">
        <ele>57</ele>
        <time>2013-05-20T13:24:18Z</time>
      </trkpt>
      <trkpt lat="44.72105" lon="-0.32187">
        <ele>55</ele>
        <time>2013-05-20T13:24:26Z</time>
      </trkpt>
      <trkpt lat="44.72069" lon="-0.32205">
        <ele>52</ele>
        <time>2013-05-20T13:24:33Z</time>
      </trkpt>
      <trkpt lat="44.72063" lon="-0.32209">
        <ele>51</ele>
        <time>2013-05-20T13:24:34Z</time>
      </trkpt>
      <trkpt lat="44.72022" lon="-0.32243">
        <ele>48</ele>
        <time>2013-05-20T13:24:40Z</time>
      </trkpt>
      <trkpt lat="44.72002" lon="-0.3226">
        <ele>48</ele>
        <time>2013-05-20T13:24:44Z</time>
      </trkpt>
      <trkpt lat="44.71993" lon="-0.32266">
        <ele>48</ele>
        <time>2013-05-20T13:24:46Z</time>
      </trkpt>
      <trkpt lat="44.71979" lon="-0.32272">
        <ele>48</ele>
        <time>2013-05-20T13:24:49Z</time>
      </trkpt>
      <trkpt lat="44.71974" lon="-0.32272">
        <ele>48</ele>
        <time>2013-05-20T13:24:50Z</time>
      </trkpt>
      <trkpt lat="44.71942" lon="-0.32268">
        <ele>51</ele>
        <time>2013-05-20T13:24:58Z</time>
      </trkpt>
      <trkpt lat="44.71928" lon="-0.32261">
        <ele>51</ele>
        <time>2013-05-20T13:25:02Z</time>
      </trkpt>
      <trkpt lat="44.71926" lon="-0.32258">
        <ele>51</ele>
        <time>2013-05-20T13:25:03Z</time>
      </trkpt>
      <trkpt lat="44.71915" lon="-0.3224">
        <ele>51</ele>
        <time>2013-05-20T13:25:10Z</time>
      </trkpt>
      <trkpt lat="44.71907" lon="-0.32227">
        <ele>52</ele>
        <time>2013-05-20T13:25:16Z</time>
      </trkpt>
      <trkpt lat="44.71899" lon="-0.32215">
        <ele>53</ele>
        <time>2013-05-20T13:25:22Z</time>
      </trkpt>
      <trkpt lat="44.71898" lon="-0.32213">
        <ele>53</ele>
        <time>2013-05-20T13:25:23Z</time>
      </trkpt>
      <trkpt lat="44.71898" lon="-0.32209">
        <ele>53</ele>
        <time>2013-05-20T13:25:24Z</time>
      </trkpt>
      <trkpt lat="44.71897" lon="-0.32206">
        <ele>54</ele>
        <time>2013-05-20T13:25:25Z</time>
      </trkpt>
      <trkpt lat="44.71896" lon="-0.32204">
        <ele>54</ele>
        <time>2013-05-20T13:25:26Z</time>
      </trkpt>
      <trkpt lat="44.71894" lon="-0.32203">
        <ele>54</ele>
        <time>2013-05-20T13:25:27Z</time>
      </trkpt>
      <trkpt lat="44.71894" lon="-0.32201">
        <ele>54</ele>
        <time>2013-05-20T13:25:28Z</time>
      </trkpt>
      <trkpt lat="44.71892" lon="-0.32194">
        <ele>54</ele>
        <time>2013-05-20T13:25:33Z</time>
      </trkpt>
      <trkpt lat="44.71889" lon="-0.32187">
        <ele>55</ele>
        <time>2013-05-20T13:25:37Z</time>
      </trkpt>
      <trkpt lat="44.71883" lon="-0.32173">
        <ele>56</ele>
        <time>2013-05-20T13:25:45Z</time>
      </trkpt>
      <trkpt lat="44.7188" lon="-0.3216">
        <ele>56</ele>
        <time>2013-05-20T13:25:52Z</time>
      </trkpt>
      <trkpt lat="44.71874" lon="-0.32146">
        <ele>57</ele>
        <time>2013-05-20T13:26:01Z</time>
      </trkpt>
      <trkpt lat="44.71873" lon="-0.32144">
        <ele>58</ele>
        <time>2013-05-20T13:26:02Z</time>
      </trkpt>
      <trkpt lat="44.71872" lon="-0.32141">
        <ele>58</ele>
        <time>2013-05-20T13:26:03Z</time>
      </trkpt>
      <trkpt lat="44.7187" lon="-0.32139">
        <ele>58</ele>
        <time>2013-05-20T13:26:04Z</time>
      </trkpt>
      <trkpt lat="44.71869" lon="-0.32136">
        <ele>58</ele>
        <time>2013-05-20T13:26:05Z</time>
      </trkpt>
      <trkpt lat="44.71864" lon="-0.32119">
        <ele>60</ele>
        <time>2013-05-20T13:26:12Z</time>
      </trkpt>
      <trkpt lat="44.71858" lon="-0.32105">
        <ele>62</ele>
        <time>2013-05-20T13:26:19Z</time>
      </trkpt>
      <trkpt lat="44.71856" lon="-0.32101">
        <ele>62</ele>
        <time>2013-05-20T13:26:21Z</time>
      </trkpt>
      <trkpt lat="44.71855" lon="-0.32099">
        <ele>63</ele>
        <time>2013-05-20T13:26:22Z</time>
      </trkpt>
      <trkpt lat="44.71852" lon="-0.32087">
        <ele>64</ele>
        <time>2013-05-20T13:26:29Z</time>
      </trkpt>
      <trkpt lat="44.7185" lon="-0.32078">
        <ele>65</ele>
        <time>2013-05-20T13:26:36Z</time>
      </trkpt>
      <trkpt lat="44.71849" lon="-0.32074">
        <ele>65</ele>
        <time>2013-05-20T13:26:43Z</time>
      </trkpt>
      <trkpt lat="44.71848" lon="-0.32071">
        <ele>65</ele>
        <time>2013-05-20T13:26:52Z</time>
      </trkpt>
      <trkpt lat="44.71846" lon="-0.32064">
        <ele>66</ele>
        <time>2013-05-20T13:27:00Z</time>
      </trkpt>
      <trkpt lat="44.71844" lon="-0.32058">
        <ele>66</ele>
        <time>2013-05-20T13:27:07Z</time>
      </trkpt>
      <trkpt lat="44.71843" lon="-0.32053">
        <ele>67</ele>
        <time>2013-05-20T13:27:14Z</time>
      </trkpt>
      <trkpt lat="44.7184" lon="-0.32048">
        <ele>67</ele>
        <time>2013-05-20T13:27:22Z</time>
      </trkpt>
      <trkpt lat="44.7184" lon="-0.32044">
        <ele>67</ele>
        <time>2013-05-20T13:27:27Z</time>
      </trkpt>
      <trkpt lat="44.71838" lon="-0.3204">
        <ele>68</ele>
        <time>2013-05-20T13:27:33Z</time>
      </trkpt>
      <trkpt lat="44.71836" lon="-0.32039">
        <ele>68</ele>
        <time>2013-05-20T13:27:38Z</time>
      </trkpt>
      <trkpt lat="44.71831" lon="-0.32032">
        <ele>68</ele>
        <time>2013-05-20T13:27:44Z</time>
      </trkpt>
      <trkpt lat="44.71829" lon="-0.32029">
        <ele>69</ele>
        <time>2013-05-20T13:27:47Z</time>
      </trkpt>
      <trkpt lat="44.71825" lon="-0.32021">
        <ele>69</ele>
        <time>2013-05-20T13:27:53Z</time>
      </trkpt>
      <trkpt lat="44.71823" lon="-0.32017">
        <ele>69</ele>
        <time>2013-05-20T13:27:58Z</time>
      </trkpt>
      <trkpt lat="44.71818" lon="-0.3201">
        <ele>70</ele>
        <time>2013-05-20T13:28:05Z</time>
      </trkpt>
      <trkpt lat="44.71813" lon="-0.32001">
        <ele>71</ele>
        <time>2013-05-20T13:28:12Z</time>
      </trkpt>
      <trkpt lat="44.7181" lon="-0.31997">
        <ele>71</ele>
        <time>2013-05-20T13:28:18Z</time>
      </trkpt>
      <trkpt lat="44.71802" lon="-0.3199">
        <ele>71</ele>
        <time>2013-05-20T13:28:26Z</time>
      </trkpt>
      <trkpt lat="44.71798" lon="-0.31982">
        <ele>71</ele>
        <time>2013-05-20T13:28:33Z</time>
      </trkpt>
      <trkpt lat="44.71795" lon="-0.31976">
        <ele>71</ele>
        <time>2013-05-20T13:28:40Z</time>
      </trkpt>
      <trkpt lat="44.71792" lon="-0.31966">
        <ele>72</ele>
        <time>2013-05-20T13:28:48Z</time>
      </trkpt>
      <trkpt lat="44.71789" lon="-0.31958">
        <ele>72</ele>
        <time>2013-05-20T13:28:54Z</time>
      </trkpt>
      <trkpt lat="44.71787" lon="-0.31949">
        <ele>73</ele>
        <time>2013-05-20T13:29:02Z</time>
      </trkpt>
      <trkpt lat="44.71787" lon="-0.31946">
        <ele>73</ele>
        <time>2013-05-20T13:29:08Z</time>
      </trkpt>
      <trkpt lat="44.71787" lon="-0.31943">
        <ele>73</ele>
        <time>2013-05-20T13:29:10Z</time>
      </trkpt>
      <trkpt lat="44.71786" lon="-0.31938">
        <ele>73</ele>
        <time>2013-05-20T13:29:16Z</time>
      </trkpt>
      <trkpt lat="44.71785" lon="-0.31937">
        <ele>74</ele>
        <time>2013-05-20T13:29:17Z</time>
      </trkpt>
      <trkpt lat="44.71783" lon="-0.31935">
        <ele>74</ele>
        <time>2013-05-20T13:29:22Z</time>
      </trkpt>
      <trkpt lat="44.7178" lon="-0.31929">
        <ele>74</ele>
        <time>2013-05-20T13:29:28Z</time>
      </trkpt>
      <trkpt lat="44.71775" lon="-0.31917">
        <ele>75</ele>
        <time>2013-05-20T13:29:35Z</time>
      </trkpt>
      <trkpt lat="44.71771" lon="-0.31907">
        <ele>76</ele>
        <time>2013-05-20T13:29:42Z</time>
      </trkpt>
      <trkpt lat="44.71767" lon="-0.31897">
        <ele>76</ele>
        <time>2013-05-20T13:29:50Z</time>
      </trkpt>
      <trkpt lat="44.71766" lon="-0.31892">
        <ele>77</ele>
        <time>2013-05-20T13:29:57Z</time>
      </trkpt>
      <trkpt lat="44.71765" lon="-0.31883">
        <ele>77</ele>
        <time>2013-05-20T13:30:02Z</time>
      </trkpt>
      <trkpt lat="44.71762" lon="-0.31876">
        <ele>78</ele>
        <time>2013-05-20T13:30:09Z</time>
      </trkpt>
      <trkpt lat="44.71758" lon="-0.31864">
        <ele>78</ele>
        <time>2013-05-20T13:30:15Z</time>
      </trkpt>
      <trkpt lat="44.71755" lon="-0.31856">
        <ele>79</ele>
        <time>2013-05-20T13:30:19Z</time>
      </trkpt>
      <trkpt lat="44.71754" lon="-0.31854">
        <ele>79</ele>
        <time>2013-05-20T13:30:20Z</time>
      </trkpt>
      <trkpt lat="44.7175" lon="-0.31838">
        <ele>80</ele>
        <time>2013-05-20T13:30:29Z</time>
      </trkpt>
      <trkpt lat="44.71749" lon="-0.31835">
        <ele>80</ele>
        <time>2013-05-20T13:30:35Z</time>
      </trkpt>
      <trkpt lat="44.71746" lon="-0.3183">
        <ele>81</ele>
        <time>2013-05-20T13:30:42Z</time>
      </trkpt>
      <trkpt lat="44.7174" lon="-0.3182">
        <ele>82</ele>
        <time>2013-05-20T13:30:51Z</time>
      </trkpt>
      <trkpt lat="44.71737" lon="-0.31816">
        <ele>83</ele>
        <time>2013-05-20T13:30:57Z</time>
      </trkpt>
      <trkpt lat="44.71736" lon="-0.31815">
        <ele>83</ele>
        <time>2013-05-20T13:31:03Z</time>
      </trkpt>
      <trkpt lat="44.71729" lon="-0.3181">
        <ele>84</ele>
        <time>2013-05-20T13:31:08Z</time>
      </trkpt>
      <trkpt lat="44.71721" lon="-0.31806">
        <ele>85</ele>
        <time>2013-05-20T13:31:14Z</time>
      </trkpt>
      <trkpt lat="44.71713" lon="-0.318">
        <ele>86</ele>
        <time>2013-05-20T13:31:21Z</time>
      </trkpt>
      <trkpt lat="44.7171" lon="-0.31799">
        <ele>87</ele>
        <time>2013-05-20T13:31:23Z</time>
      </trkpt>
      <trkpt lat="44.71708" lon="-0.31798">
        <ele>87</ele>
        <time>2013-05-20T13:31:24Z</time>
      </trkpt>
      <trkpt lat="44.71703" lon="-0.31793">
        <ele>88</ele>
        <time>2013-05-20T13:31:31Z</time>
      </trkpt>
      <trkpt lat="44.71696" lon="-0.31788">
        <ele>89</ele>
        <time>2013-05-20T13:31:37Z</time>
      </trkpt>
      <trkpt lat="44.71686" lon="-0.31781">
        <ele>90</ele>
        <time>2013-05-20T13:31:43Z</time>
      </trkpt>
      <trkpt lat="44.71684" lon="-0.3178">
        <ele>90</ele>
        <time>2013-05-20T13:31:44Z</time>
      </trkpt>
      <trkpt lat="44.71676" lon="-0.31774">
        <ele>91</ele>
        <time>2013-05-20T13:31:49Z</time>
      </trkpt>
      <trkpt lat="44.71674" lon="-0.31773">
        <ele>92</ele>
        <time>2013-05-20T13:31:50Z</time>
      </trkpt>
      <trkpt lat="44.71673" lon="-0.31772">
        <ele>92</ele>
        <time>2013-05-20T13:31:51Z</time>
      </trkpt>
      <trkpt lat="44.71672" lon="-0.31771">
        <ele>92</ele>
        <time>2013-05-20T13:31:52Z</time>
      </trkpt>
      <trkpt lat="44.71669" lon="-0.3177">
        <ele>92</ele>
        <time>2013-05-20T13:31:54Z</time>
      </trkpt>
      <trkpt lat="44.71668" lon="-0.31769">
        <ele>92</ele>
        <time>2013-05-20T13:31:55Z</time>
      </trkpt>
      <trkpt lat="44.71661" lon="-0.31762">
        <ele>93</ele>
        <time>2013-05-20T13:32:02Z</time>
      </trkpt>
      <trkpt lat="44.71655" lon="-0.31757">
        <ele>94</ele>
        <time>2013-05-20T13:32:08Z</time>
      </trkpt>
      <trkpt lat="44.7165" lon="-0.31752">
        <ele>95</ele>
        <time>2013-05-20T13:32:15Z</time>
      </trkpt>
      <trkpt lat="44.71649" lon="-0.31753">
        <ele>95</ele>
        <time>2013-05-20T13:32:21Z</time>
      </trkpt>
      <trkpt lat="44.71645" lon="-0.31751">
        <ele>95</ele>
        <time>2013-05-20T13:32:28Z</time>
      </trkpt>
      <trkpt lat="44.71642" lon="-0.3175">
        <ele>95</ele>
        <time>2013-05-20T13:32:34Z</time>
      </trkpt>
      <trkpt lat="44.7164" lon="-0.31748">
        <ele>96</ele>
        <time>2013-05-20T13:32:37Z</time>
      </trkpt>
      <trkpt lat="44.71633" lon="-0.31741">
        <ele>96</ele>
        <time>2013-05-20T13:32:45Z</time>
      </trkpt>
      <trkpt lat="44.7163" lon="-0.31737">
        <ele>96</ele>
        <time>2013-05-20T13:32:53Z</time>
      </trkpt>
      <trkpt lat="44.71625" lon="-0.31733">
        <ele>96</ele>
        <time>2013-05-20T13:33:01Z</time>
      </trkpt>
      <trkpt lat="44.71624" lon="-0.31732">
        <ele>96</ele>
        <time>2013-05-20T13:33:11Z</time>
      </trkpt>
      <trkpt lat="44.71624" lon="-0.31731">
        <ele>96</ele>
        <time>2013-05-20T13:33:25Z</time>
      </trkpt>
      <trkpt lat="44.71624" lon="-0.3173">
        <ele>96</ele>
        <time>2013-05-20T13:33:39Z</time>
      </trkpt>
      <trkpt lat="44.71623" lon="-0.31729">
        <ele>96</ele>
        <time>2013-05-20T13:33:50Z</time>
      </trkpt>
      <trkpt lat="44.71623" lon="-0.31729">
        <ele>96</ele>
        <time>2013-05-20T13:34:02Z</time>
      </trkpt>
      <trkpt lat="44.71623" lon="-0.3173">
        <ele>96</ele>
        <time>2013-05-20T13:34:15Z</time>
      </trkpt>
      <trkpt lat="44.71623" lon="-0.3173">
        <ele>96</ele>
        <time>2013-05-20T13:34:28Z</time>
      </trkpt>
      <trkpt lat="44.71623" lon="-0.31729">
        <ele>96</ele>
        <time>2013-05-20T13:34:42Z</time>
      </trkpt>
      <trkpt lat="44.71622" lon="-0.31728">
        <ele>96</ele>
        <time>2013-05-20T13:34:49Z</time>
      </trkpt>
      <trkpt lat="44.71619" lon="-0.31725">
        <ele>96</ele>
        <time>2013-05-20T13:34:58Z</time>
      </trkpt>
      <trkpt lat="44.71612" lon="-0.31721">
        <ele>97</ele>
        <time>2013-05-20T13:35:05Z</time>
      </trkpt>
      <trkpt lat="44.71605" lon="-0.31713">
        <ele>97</ele>
        <time>2013-05-20T13:35:10Z</time>
      </trkpt>
      <trkpt lat="44.71602" lon="-0.31711">
        <ele>97</ele>
        <time>2013-05-20T13:35:12Z</time>
      </trkpt>
      <trkpt lat="44.716" lon="-0.31709">
        <ele>97</ele>
        <time>2013-05-20T13:35:13Z</time>
      </trkpt>
      <trkpt lat="44.71593" lon="-0.317">
        <ele>97</ele>
        <time>2013-05-20T13:35:18Z</time>
      </trkpt>
      <trkpt lat="44.71585" lon="-0.31693">
        <ele>97</ele>
        <time>2013-05-20T13:35:25Z</time>
      </trkpt>
      <trkpt lat="44.71582" lon="-0.31689">
        <ele>97</ele>
        <time>2013-05-20T13:35:30Z</time>
      </trkpt>
      <trkpt lat="44.71579" lon="-0.31684">
        <ele>97</ele>
        <time>2013-05-20T13:35:38Z</time>
      </trkpt>
      <trkpt lat="44.71579" lon="-0.31684">
        <ele>97</ele>
        <time>2013-05-20T13:35:48Z</time>
      </trkpt>
      <trkpt lat="44.71579" lon="-0.31682">
        <ele>97</ele>
        <time>2013-05-20T13:36:00Z</time>
      </trkpt>
      <trkpt lat="44.71578" lon="-0.31681">
        <ele>97</ele>
        <time>2013-05-20T13:36:16Z</time>
      </trkpt>
      <trkpt lat="44.71578" lon="-0.31681">
        <ele>97</ele>
        <time>2013-05-20T13:36:32Z</time>
      </trkpt>
      <trkpt lat="44.71578" lon="-0.31679">
        <ele>97</ele>
        <time>2013-05-20T13:36:48Z</time>
      </trkpt>
      <trkpt lat="44.71575" lon="-0.31678">
        <ele>97</ele>
        <time>2013-05-20T13:37:00Z</time>
      </trkpt>
      <trkpt lat="44.71572" lon="-0.31676">
        <ele>97</ele>
        <time>2013-05-20T13:37:02Z</time>
      </trkpt>
      <trkpt lat="44.71561" lon="-0.31666">
        <ele>98</ele>
        <time>2013-05-20T13:37:09Z</time>
      </trkpt>
      <trkpt lat="44.71548" lon="-0.31653">
        <ele>98</ele>
        <time>2013-05-20T13:37:15Z</time>
      </trkpt>
      <trkpt lat="44.71532" lon="-0.31641">
        <ele>97</ele>
        <time>2013-05-20T13:37:21Z</time>
      </trkpt>
      <trkpt lat="44.71511" lon="-0.31626">
        <ele>97</ele>
        <time>2013-05-20T13:37:27Z</time>
      </trkpt>
      <trkpt lat="44.71498" lon="-0.31618">
        <ele>97</ele>
        <time>2013-05-20T13:37:31Z</time>
      </trkpt>
      <trkpt lat="44.71493" lon="-0.31616">
        <ele>97</ele>
        <time>2013-05-20T13:37:32Z</time>
      </trkpt>
      <trkpt lat="44.7146" lon="-0.31599">
        <ele>96</ele>
        <time>2013-05-20T13:37:41Z</time>
      </trkpt>
      <trkpt lat="44.71452" lon="-0.31595">
        <ele>96</ele>
        <time>2013-05-20T13:37:43Z</time>
      </trkpt>
      <trkpt lat="44.71448" lon="-0.31593">
        <ele>96</ele>
        <time>2013-05-20T13:37:44Z</time>
      </trkpt>
      <trkpt lat="44.71444" lon="-0.31592">
        <ele>96</ele>
        <time>2013-05-20T13:37:45Z</time>
      </trkpt>
      <trkpt lat="44.71439" lon="-0.3159">
        <ele>96</ele>
        <time>2013-05-20T13:37:46Z</time>
      </trkpt>
      <trkpt lat="44.71435" lon="-0.31588">
        <ele>96</ele>
        <time>2013-05-20T13:37:47Z</time>
      </trkpt>
      <trkpt lat="44.71431" lon="-0.31587">
        <ele>96</ele>
        <time>2013-05-20T13:37:48Z</time>
      </trkpt>
      <trkpt lat="44.71422" lon="-0.31584">
        <ele>97</ele>
        <time>2013-05-20T13:37:50Z</time>
      </trkpt>
      <trkpt lat="44.71417" lon="-0.31583">
        <ele>97</ele>
        <time>2013-05-20T13:37:51Z</time>
      </trkpt>
      <trkpt lat="44.71413" lon="-0.31582">
        <ele>97</ele>
        <time>2013-05-20T13:37:52Z</time>
      </trkpt>
      <trkpt lat="44.71386" lon="-0.31574">
        <ele>98</ele>
        <time>2013-05-20T13:37:58Z</time>
      </trkpt>
      <trkpt lat="44.71382" lon="-0.31572">
        <ele>98</ele>
        <time>2013-05-20T13:37:59Z</time>
      </trkpt>
      <trkpt lat="44.71378" lon="-0.3157">
        <ele>98</ele>
        <time>2013-05-20T13:38:00Z</time>
      </trkpt>
      <trkpt lat="44.71374" lon="-0.31568">
        <ele>98</ele>
        <time>2013-05-20T13:38:01Z</time>
      </trkpt>
      <trkpt lat="44.71369" lon="-0.31566">
        <ele>98</ele>
        <time>2013-05-20T13:38:02Z</time>
      </trkpt>
      <trkpt lat="44.71365" lon="-0.31564">
        <ele>98</ele>
        <time>2013-05-20T13:38:03Z</time>
      </trkpt>
      <trkpt lat="44.71361" lon="-0.31562">
        <ele>98</ele>
        <time>2013-05-20T13:38:04Z</time>
      </trkpt>
      <trkpt lat="44.71339" lon="-0.31552">
        <ele>99</ele>
        <time>2013-05-20T13:38:09Z</time>
      </trkpt>
      <trkpt lat="44.71335" lon="-0.31551">
        <ele>99</ele>
        <time>2013-05-20T13:38:10Z</time>
      </trkpt>
      <trkpt lat="44.71331" lon="-0.31551">
        <ele>99</ele>
        <time>2013-05-20T13:38:11Z</time>
      </trkpt>
      <trkpt lat="44.71326" lon="-0.3155">
        <ele>99</ele>
        <time>2013-05-20T13:38:12Z</time>
      </trkpt>
      <trkpt lat="44.71322" lon="-0.3155">
        <ele>99</ele>
        <time>2013-05-20T13:38:13Z</time>
      </trkpt>
      <trkpt lat="44.71314" lon="-0.31549">
        <ele>99</ele>
        <time>2013-05-20T13:38:15Z</time>
      </trkpt>
      <trkpt lat="44.71309" lon="-0.31548">
        <ele>99</ele>
        <time>2013-05-20T13:38:16Z</time>
      </trkpt>
      <trkpt lat="44.71305" lon="-0.31547">
        <ele>99</ele>
        <time>2013-05-20T13:38:17Z</time>
      </trkpt>
      <trkpt lat="44.71277" lon="-0.31535">
        <ele>100</ele>
        <time>2013-05-20T13:38:25Z</time>
      </trkpt>
      <trkpt lat="44.71244" lon="-0.3152">
        <ele>100</ele>
        <time>2013-05-20T13:38:35Z</time>
      </trkpt>
      <trkpt lat="44.71231" lon="-0.31511">
        <ele>100</ele>
        <time>2013-05-20T13:38:40Z</time>
      </trkpt>
      <trkpt lat="44.71229" lon="-0.31504">
        <ele>100</ele>
        <time>2013-05-20T13:38:43Z</time>
      </trkpt>
      <trkpt lat="44.7123" lon="-0.31502">
        <ele>101</ele>
        <time>2013-05-20T13:38:44Z</time>
      </trkpt>
      <trkpt lat="44.7123" lon="-0.315">
        <ele>101</ele>
        <time>2013-05-20T13:38:45Z</time>
      </trkpt>
      <trkpt lat="44.71237" lon="-0.31478">
        <ele>101</ele>
        <time>2013-05-20T13:38:53Z</time>
      </trkpt>
      <trkpt lat="44.7125" lon="-0.31444">
        <ele>100</ele>
        <time>2013-05-20T13:39:04Z</time>
      </trkpt>
      <trkpt lat="44.71261" lon="-0.31418">
        <ele>99</ele>
        <time>2013-05-20T13:39:12Z</time>
      </trkpt>
      <trkpt lat="44.71273" lon="-0.31393">
        <ele>98</ele>
        <time>2013-05-20T13:39:19Z</time>
      </trkpt>
      <trkpt lat="44.71288" lon="-0.31359">
        <ele>95</ele>
        <time>2013-05-20T13:39:28Z</time>
      </trkpt>
      <trkpt lat="44.71307" lon="-0.31324">
        <ele>93</ele>
        <time>2013-05-20T13:39:36Z</time>
      </trkpt>
      <trkpt lat="44.71319" lon="-0.31302">
        <ele>91</ele>
        <time>2013-05-20T13:39:42Z</time>
      </trkpt>
      <trkpt lat="44.71331" lon="-0.31284">
        <ele>90</ele>
        <time>2013-05-20T13:39:48Z</time>
      </trkpt>
      <trkpt lat="44.71337" lon="-0.31273">
        <ele>89</ele>
        <time>2013-05-20T13:39:52Z</time>
      </trkpt>
      <trkpt lat="44.71339" lon="-0.31269">
        <ele>88</ele>
        <time>2013-05-20T13:39:53Z</time>
      </trkpt>
      <trkpt lat="44.7134" lon="-0.31265">
        <ele>88</ele>
        <time>2013-05-20T13:39:54Z</time>
      </trkpt>
      <trkpt lat="44.71342" lon="-0.31262">
        <ele>88</ele>
        <time>2013-05-20T13:39:55Z</time>
      </trkpt>
      <trkpt lat="44.71344" lon="-0.31258">
        <ele>87</ele>
        <time>2013-05-20T13:39:56Z</time>
      </trkpt>
      <trkpt lat="44.71346" lon="-0.31253">
        <ele>87</ele>
        <time>2013-05-20T13:39:57Z</time>
      </trkpt>
      <trkpt lat="44.71348" lon="-0.31248">
        <ele>87</ele>
        <time>2013-05-20T13:39:58Z</time>
      </trkpt>
      <trkpt lat="44.71359" lon="-0.3123">
        <ele>85</ele>
        <time>2013-05-20T13:40:02Z</time>
      </trkpt>
      <trkpt lat="44.71361" lon="-0.31226">
        <ele>85</ele>
        <time>2013-05-20T13:40:03Z</time>
      </trkpt>
      <trkpt lat="44.71363" lon="-0.31223">
        <ele>85</ele>
        <time>2013-05-20T13:40:04Z</time>
      </trkpt>
      <trkpt lat="44.71367" lon="-0.3122">
        <ele>84</ele>
        <time>2013-05-20T13:40:05Z</time>
      </trkpt>
      <trkpt lat="44.7137" lon="-0.31216">
        <ele>84</ele>
        <time>2013-05-20T13:40:06Z</time>
      </trkpt>
      <trkpt lat="44.71373" lon="-0.31211">
        <ele>84</ele>
        <time>2013-05-20T13:40:07Z</time>
      </trkpt>
      <trkpt lat="44.71376" lon="-0.31206">
        <ele>83</ele>
        <time>2013-05-20T13:40:08Z</time>
      </trkpt>
      <trkpt lat="44.71379" lon="-0.31201">
        <ele>82</ele>
        <time>2013-05-20T13:40:09Z</time>
      </trkpt>
      <trkpt lat="44.71383" lon="-0.31196">
        <ele>82</ele>
        <time>2013-05-20T13:40:10Z</time>
      </trkpt>
      <trkpt lat="44.71386" lon="-0.31192">
        <ele>81</ele>
        <time>2013-05-20T13:40:11Z</time>
      </trkpt>
      <trkpt lat="44.71389" lon="-0.31189">
        <ele>81</ele>
        <time>2013-05-20T13:40:12Z</time>
      </trkpt>
      <trkpt lat="44.71393" lon="-0.31185">
        <ele>80</ele>
        <time>2013-05-20T13:40:13Z</time>
      </trkpt>
      <trkpt lat="44.71396" lon="-0.31181">
        <ele>80</ele>
        <time>2013-05-20T13:40:14Z</time>
      </trkpt>
      <trkpt lat="44.714" lon="-0.31177">
        <ele>79</ele>
        <time>2013-05-20T13:40:15Z</time>
      </trkpt>
      <trkpt lat="44.71403" lon="-0.31176">
        <ele>79</ele>
        <time>2013-05-20T13:40:16Z</time>
      </trkpt>
      <trkpt lat="44.71407" lon="-0.31173">
        <ele>79</ele>
        <time>2013-05-20T13:40:17Z</time>
      </trkpt>
      <trkpt lat="44.71423" lon="-0.31152">
        <ele>76</ele>
        <time>2013-05-20T13:40:22Z</time>
      </trkpt>
      <trkpt lat="44.71442" lon="-0.3112">
        <ele>72</ele>
        <time>2013-05-20T13:40:29Z</time>
      </trkpt>
      <trkpt lat="44.71451" lon="-0.31102">
        <ele>69</ele>
        <time>2013-05-20T13:40:34Z</time>
      </trkpt>
      <trkpt lat="44.7146" lon="-0.31087">
        <ele>67</ele>
        <time>2013-05-20T13:40:40Z</time>
      </trkpt>
      <trkpt lat="44.71461" lon="-0.31083">
        <ele>67</ele>
        <time>2013-05-20T13:40:41Z</time>
      </trkpt>
      <trkpt lat="44.71465" lon="-0.31069">
        <ele>66</ele>
        <time>2013-05-20T13:40:46Z</time>
      </trkpt>
      <trkpt lat="44.71471" lon="-0.31049">
        <ele>65</ele>
        <time>2013-05-20T13:40:52Z</time>
      </trkpt>
      <trkpt lat="44.71473" lon="-0.31031">
        <ele>64</ele>
        <time>2013-05-20T13:40:57Z</time>
      </trkpt>
      <trkpt lat="44.71475" lon="-0.31019">
        <ele>64</ele>
        <time>2013-05-20T13:41:04Z</time>
      </trkpt>
      <trkpt lat="44.71476" lon="-0.31018">
        <ele>64</ele>
        <time>2013-05-20T13:41:10Z</time>
      </trkpt>
      <trkpt lat="44.71477" lon="-0.31017">
        <ele>64</ele>
        <time>2013-05-20T13:41:21Z</time>
      </trkpt>
      <trkpt lat="44.71476" lon="-0.31014">
        <ele>65</ele>
        <time>2013-05-20T13:41:33Z</time>
      </trkpt>
      <trkpt lat="44.71476" lon="-0.31014">
        <ele>65</ele>
        <time>2013-05-20T13:41:41Z</time>
      </trkpt>
      <trkpt lat="44.71476" lon="-0.31014">
        <ele>65</ele>
        <time>2013-05-20T13:41:51Z</time>
      </trkpt>
      <trkpt lat="44.71476" lon="-0.31014">
        <ele>65</ele>
        <time>2013-05-20T13:42:00Z</time>
      </trkpt>
      <trkpt lat="44.71476" lon="-0.31014">
        <ele>65</ele>
        <time>2013-05-20T13:42:11Z</time>
      </trkpt>
      <trkpt lat="44.71477" lon="-0.31013">
        <ele>65</ele>
        <time>2013-05-20T13:42:23Z</time>
      </trkpt>
      <trkpt lat="44.71476" lon="-0.31014">
        <ele>65</ele>
        <time>2013-05-20T13:42:39Z</time>
      </trkpt>
      <trkpt lat="44.71477" lon="-0.31012">
        <ele>65</ele>
        <time>2013-05-20T13:42:47Z</time>
      </trkpt>
      <trkpt lat="44.71477" lon="-0.31011">
        <ele>65</ele>
        <time>2013-05-20T13:42:48Z</time>
      </trkpt>
      <trkpt lat="44.71479" lon="-0.30996">
        <ele>66</ele>
        <time>2013-05-20T13:42:56Z</time>
      </trkpt>
      <trkpt lat="44.71483" lon="-0.30973">
        <ele>67</ele>
        <time>2013-05-20T13:43:03Z</time>
      </trkpt>
      <trkpt lat="44.71487" lon="-0.30948">
        <ele>70</ele>
        <time>2013-05-20T13:43:11Z</time>
      </trkpt>
      <trkpt lat="44.7149" lon="-0.30929">
        <ele>72</ele>
        <time>2013-05-20T13:43:19Z</time>
      </trkpt>
      <trkpt lat="44.71493" lon="-0.30914">
        <ele>73</ele>
        <time>2013-05-20T13:43:26Z</time>
      </trkpt>
      <trkpt lat="44.71494" lon="-0.30901">
        <ele>74</ele>
        <time>2013-05-20T13:43:34Z</time>
      </trkpt>
      <trkpt lat="44.71495" lon="-0.3089">
        <ele>76</ele>
        <time>2013-05-20T13:43:41Z</time>
      </trkpt>
      <trkpt lat="44.71498" lon="-0.30878">
        <ele>77</ele>
        <time>2013-05-20T13:43:49Z</time>
      </trkpt>
      <trkpt lat="44.71498" lon="-0.30875">
        <ele>77</ele>
        <time>2013-05-20T13:43:51Z</time>
      </trkpt>
      <trkpt lat="44.71499" lon="-0.30865">
        <ele>78</ele>
        <time>2013-05-20T13:43:58Z</time>
      </trkpt>
      <trkpt lat="44.71501" lon="-0.30854">
        <ele>79</ele>
        <time>2013-05-20T13:44:05Z</time>
      </trkpt>
      <trkpt lat="44.71503" lon="-0.30844">
        <ele>80</ele>
        <time>2013-05-20T13:44:13Z</time>
      </trkpt>
      <trkpt lat="44.71504" lon="-0.30834">
        <ele>82</ele>
        <time>2013-05-20T13:44:20Z</time>
      </trkpt>
      <trkpt lat="44.71506" lon="-0.3082">
        <ele>84</ele>
        <time>2013-05-20T13:44:29Z</time>
      </trkpt>
      <trkpt lat="44.71508" lon="-0.30812">
        <ele>85</ele>
        <time>2013-05-20T13:44:36Z</time>
      </trkpt>
      <trkpt lat="44.7151" lon="-0.308">
        <ele>86</ele>
        <time>2013-05-20T13:44:44Z</time>
      </trkpt>
      <trkpt lat="44.71512" lon="-0.30788">
        <ele>88</ele>
        <time>2013-05-20T13:44:53Z</time>
      </trkpt>
      <trkpt lat="44.71513" lon="-0.30779">
        <ele>89</ele>
        <time>2013-05-20T13:45:00Z</time>
      </trkpt>
      <trkpt lat="44.71516" lon="-0.30769">
        <ele>89</ele>
        <time>2013-05-20T13:45:08Z</time>
      </trkpt>
      <trkpt lat="44.71518" lon="-0.30754">
        <ele>90</ele>
        <time>2013-05-20T13:45:17Z</time>
      </trkpt>
      <trkpt lat="44.7152" lon="-0.30743">
        <ele>91</ele>
        <time>2013-05-20T13:45:24Z</time>
      </trkpt>
      <trkpt lat="44.7152" lon="-0.3074">
        <ele>91</ele>
        <time>2013-05-20T13:45:26Z</time>
      </trkpt>
      <trkpt lat="44.71521" lon="-0.30727">
        <ele>92</ele>
        <time>2013-05-20T13:45:33Z</time>
      </trkpt>
      <trkpt lat="44.71522" lon="-0.30721">
        <ele>92</ele>
        <time>2013-05-20T13:45:36Z</time>
      </trkpt>
      <trkpt lat="44.71521" lon="-0.30706">
        <ele>93</ele>
        <time>2013-05-20T13:45:45Z</time>
      </trkpt>
      <trkpt lat="44.7152" lon="-0.30692">
        <ele>93</ele>
        <time>2013-05-20T13:45:53Z</time>
      </trkpt>
      <trkpt lat="44.71528" lon="-0.3069">
        <ele>94</ele>
        <time>2013-05-20T13:46:01Z</time>
      </trkpt>
      <trkpt lat="44.71539" lon="-0.30697">
        <ele>94</ele>
        <time>2013-05-20T13:46:10Z</time>
      </trkpt>
      <trkpt lat="44.7155" lon="-0.30702">
        <ele>95</ele>
        <time>2013-05-20T13:46:19Z</time>
      </trkpt>
      <trkpt lat="44.71562" lon="-0.30707">
        <ele>95</ele>
        <time>2013-05-20T13:46:28Z</time>
      </trkpt>
      <trkpt lat="44.71572" lon="-0.30712">
        <ele>96</ele>
        <time>2013-05-20T13:46:37Z</time>
      </trkpt>
      <trkpt lat="44.71574" lon="-0.30713">
        <ele>96</ele>
        <time>2013-05-20T13:46:39Z</time>
      </trkpt>
      <trkpt lat="44.71581" lon="-0.30714">
        <ele>96</ele>
        <time>2013-05-20T13:46:45Z</time>
      </trkpt>
      <trkpt lat="44.71589" lon="-0.30719">
        <ele>96</ele>
        <time>2013-05-20T13:46:52Z</time>
      </trkpt>
      <trkpt lat="44.71593" lon="-0.30721">
        <ele>96</ele>
        <time>2013-05-20T13:46:59Z</time>
      </trkpt>
      <trkpt lat="44.71594" lon="-0.3072">
        <ele>96</ele>
        <time>2013-05-20T13:47:11Z</time>
      </trkpt>
      <trkpt lat="44.71595" lon="-0.30721">
        <ele>96</ele>
        <time>2013-05-20T13:47:18Z</time>
      </trkpt>
      <trkpt lat="44.71595" lon="-0.30722">
        <ele>96</ele>
        <time>2013-05-20T13:47:25Z</time>
      </trkpt>
      <trkpt lat="44.71596" lon="-0.30722">
        <ele>96</ele>
        <time>2013-05-20T13:47:32Z</time>
      </trkpt>
      <trkpt lat="44.71596" lon="-0.30721">
        <ele>96</ele>
        <time>2013-05-20T13:47:41Z</time>
      </trkpt>
      <trkpt lat="44.71597" lon="-0.30721">
        <ele>96</ele>
        <time>2013-05-20T13:47:53Z</time>
      </trkpt>
      <trkpt lat="44.71596" lon="-0.30721">
        <ele>96</ele>
        <time>2013-05-20T13:48:09Z</time>
      </trkpt>
      <trkpt lat="44.71597" lon="-0.30722">
        <ele>96</ele>
        <time>2013-05-20T13:48:28Z</time>
      </trkpt>
      <trkpt lat="44.71597" lon="-0.30721">
        <ele>96</ele>
        <time>2013-05-20T13:48:44Z</time>
      </trkpt>
      <trkpt lat="44.71596" lon="-0.30721">
        <ele>96</ele>
        <time>2013-05-20T13:49:00Z</time>
      </trkpt>
      <trkpt lat="44.71596" lon="-0.30721">
        <ele>96</ele>
        <time>2013-05-20T13:49:13Z</time>
      </trkpt>
      <trkpt lat="44.71596" lon="-0.3072">
        <ele>96</ele>
        <time>2013-05-20T13:49:25Z</time>
      </trkpt>
      <trkpt lat="44.71596" lon="-0.30721">
        <ele>96</ele>
        <time>2013-05-20T13:49:41Z</time>
      </trkpt>
      <trkpt lat="44.71596" lon="-0.30722">
        <ele>96</ele>
        <time>2013-05-20T13:49:56Z</time>
      </trkpt>
      <trkpt lat="44.71603" lon="-0.30725">
        <ele>97</ele>
        <time>2013-05-20T13:50:02Z</time>
      </trkpt>
      <trkpt lat="44.71618" lon="-0.30731">
        <ele>97</ele>
        <time>2013-05-20T13:50:09Z</time>
      </trkpt>
      <trkpt lat="44.71639" lon="-0.30741">
        <ele>97</ele>
        <time>2013-05-20T13:50:19Z</time>
      </trkpt>
      <trkpt lat="44.71657" lon="-0.30751">
        <ele>97</ele>
        <time>2013-05-20T13:50:26Z</time>
      </trkpt>
      <trkpt lat="44.71677" lon="-0.30762">
        <ele>96</ele>
        <time>2013-05-20T13:50:34Z</time>
      </trkpt>
      <trkpt lat="44.71684" lon="-0.30764">
        <ele>95</ele>
        <time>2013-05-20T13:50:38Z</time>
      </trkpt>
      <trkpt lat="44.71686" lon="-0.3075">
        <ele>95</ele>
        <time>2013-05-20T13:50:45Z</time>
      </trkpt>
      <trkpt lat="44.71691" lon="-0.30719">
        <ele>95</ele>
        <time>2013-05-20T13:50:54Z</time>
      </trkpt>
      <trkpt lat="44.71693" lon="-0.30693">
        <ele>95</ele>
        <time>2013-05-20T13:51:01Z</time>
      </trkpt>
      <trkpt lat="44.71695" lon="-0.30686">
        <ele>95</ele>
        <time>2013-05-20T13:51:03Z</time>
      </trkpt>
      <trkpt lat="44.71704" lon="-0.30681">
        <ele>95</ele>
        <time>2013-05-20T13:51:07Z</time>
      </trkpt>
      <trkpt lat="44.71729" lon="-0.30693">
        <ele>93</ele>
        <time>2013-05-20T13:51:16Z</time>
      </trkpt>
      <trkpt lat="44.71759" lon="-0.30707">
        <ele>90</ele>
        <time>2013-05-20T13:51:26Z</time>
      </trkpt>
      <trkpt lat="44.71765" lon="-0.30709">
        <ele>89</ele>
        <time>2013-05-20T13:51:28Z</time>
      </trkpt>
      <trkpt lat="44.71777" lon="-0.30711">
        <ele>88</ele>
        <time>2013-05-20T13:51:34Z</time>
      </trkpt>
      <trkpt lat="44.71779" lon="-0.30693">
        <ele>89</ele>
        <time>2013-05-20T13:51:39Z</time>
      </trkpt>
      <trkpt lat="44.7178" lon="-0.30686">
        <ele>90</ele>
        <time>2013-05-20T13:51:41Z</time>
      </trkpt>
      <trkpt lat="44.71782" lon="-0.30656">
        <ele>92</ele>
        <time>2013-05-20T13:51:49Z</time>
      </trkpt>
      <trkpt lat="44.71785" lon="-0.30628">
        <ele>92</ele>
        <time>2013-05-20T13:51:56Z</time>
      </trkpt>
      <trkpt lat="44.71787" lon="-0.306">
        <ele>93</ele>
        <time>2013-05-20T13:52:04Z</time>
      </trkpt>
      <trkpt lat="44.71787" lon="-0.30598">
        <ele>93</ele>
        <time>2013-05-20T13:52:08Z</time>
      </trkpt>
      <trkpt lat="44.71786" lon="-0.30598">
        <ele>93</ele>
        <time>2013-05-20T13:52:18Z</time>
      </trkpt>
      <trkpt lat="44.71786" lon="-0.30598">
        <ele>93</ele>
        <time>2013-05-20T13:52:29Z</time>
      </trkpt>
      <trkpt lat="44.71786" lon="-0.30598">
        <ele>93</ele>
        <time>2013-05-20T13:52:43Z</time>
      </trkpt>
      <trkpt lat="44.71786" lon="-0.30598">
        <ele>93</ele>
        <time>2013-05-20T13:52:48Z</time>
      </trkpt>
      <trkpt lat="44.71788" lon="-0.30593">
        <ele>93</ele>
        <time>2013-05-20T13:52:52Z</time>
      </trkpt>
      <trkpt lat="44.718" lon="-0.30591">
        <ele>93</ele>
        <time>2013-05-20T13:52:56Z</time>
      </trkpt>
      <trkpt lat="44.71804" lon="-0.30591">
        <ele>92</ele>
        <time>2013-05-20T13:52:57Z</time>
      </trkpt>
      <trkpt lat="44.71808" lon="-0.30592">
        <ele>91</ele>
        <time>2013-05-20T13:52:58Z</time>
      </trkpt>
      <trkpt lat="44.71846" lon="-0.30603">
        <ele>85</ele>
        <time>2013-05-20T13:53:06Z</time>
      </trkpt>
      <trkpt lat="44.71889" lon="-0.30616">
        <ele>82</ele>
        <time>2013-05-20T13:53:14Z</time>
      </trkpt>
      <trkpt lat="44.71944" lon="-0.30635">
        <ele>76</ele>
        <time>2013-05-20T13:53:25Z</time>
      </trkpt>
      <trkpt lat="44.71949" lon="-0.30638">
        <ele>76</ele>
        <time>2013-05-20T13:53:26Z</time>
      </trkpt>
      <trkpt lat="44.71953" lon="-0.30641">
        <ele>75</ele>
        <time>2013-05-20T13:53:27Z</time>
      </trkpt>
      <trkpt lat="44.71957" lon="-0.30644">
        <ele>75</ele>
        <time>2013-05-20T13:53:28Z</time>
      </trkpt>
      <trkpt lat="44.71962" lon="-0.30647">
        <ele>74</ele>
        <time>2013-05-20T13:53:29Z</time>
      </trkpt>
      <trkpt lat="44.71966" lon="-0.3065">
        <ele>74</ele>
        <time>2013-05-20T13:53:30Z</time>
      </trkpt>
      <trkpt lat="44.71971" lon="-0.30652">
        <ele>73</ele>
        <time>2013-05-20T13:53:31Z</time>
      </trkpt>
      <trkpt lat="44.7199" lon="-0.30664">
        <ele>71</ele>
        <time>2013-05-20T13:53:35Z</time>
      </trkpt>
      <trkpt lat="44.71995" lon="-0.30666">
        <ele>71</ele>
        <time>2013-05-20T13:53:36Z</time>
      </trkpt>
      <trkpt lat="44.72012" lon="-0.30673">
        <ele>70</ele>
        <time>2013-05-20T13:53:41Z</time>
      </trkpt>
      <trkpt lat="44.72017" lon="-0.30671">
        <ele>70</ele>
        <time>2013-05-20T13:53:44Z</time>
      </trkpt>
      <trkpt lat="44.72017" lon="-0.30659">
        <ele>70</ele>
        <time>2013-05-20T13:53:50Z</time>
      </trkpt>
      <trkpt lat="44.72014" lon="-0.30645">
        <ele>70</ele>
        <time>2013-05-20T13:53:55Z</time>
      </trkpt>
      <trkpt lat="44.72008" lon="-0.3061">
        <ele>71</ele>
        <time>2013-05-20T13:54:05Z</time>
      </trkpt>
      <trkpt lat="44.72003" lon="-0.30585">
        <ele>71</ele>
        <time>2013-05-20T13:54:12Z</time>
      </trkpt>
      <trkpt lat="44.71996" lon="-0.30553">
        <ele>72</ele>
        <time>2013-05-20T13:54:21Z</time>
      </trkpt>
      <trkpt lat="44.71991" lon="-0.30523">
        <ele>73</ele>
        <time>2013-05-20T13:54:30Z</time>
      </trkpt>
      <trkpt lat="44.71987" lon="-0.30504">
        <ele>74</ele>
        <time>2013-05-20T13:54:37Z</time>
      </trkpt>
      <trkpt lat="44.71976" lon="-0.30487">
        <ele>74</ele>
        <time>2013-05-20T13:54:45Z</time>
      </trkpt>
      <trkpt lat="44.71966" lon="-0.30473">
        <ele>76</ele>
        <time>2013-05-20T13:54:53Z</time>
      </trkpt>
      <trkpt lat="44.71958" lon="-0.30459">
        <ele>77</ele>
        <time>2013-05-20T13:55:01Z</time>
      </trkpt>
      <trkpt lat="44.71951" lon="-0.3045">
        <ele>77</ele>
        <time>2013-05-20T13:55:07Z</time>
      </trkpt>
      <trkpt lat="44.71941" lon="-0.30437">
        <ele>77</ele>
        <time>2013-05-20T13:55:15Z</time>
      </trkpt>
      <trkpt lat="44.71932" lon="-0.30425">
        <ele>79</ele>
        <time>2013-05-20T13:55:22Z</time>
      </trkpt>
      <trkpt lat="44.71926" lon="-0.30411">
        <ele>80</ele>
        <time>2013-05-20T13:55:30Z</time>
      </trkpt>
      <trkpt lat="44.71917" lon="-0.30398">
        <ele>81</ele>
        <time>2013-05-20T13:55:38Z</time>
      </trkpt>
      <trkpt lat="44.7191" lon="-0.30387">
        <ele>82</ele>
        <time>2013-05-20T13:55:45Z</time>
      </trkpt>
      <trkpt lat="44.71904" lon="-0.30377">
        <ele>82</ele>
        <time>2013-05-20T13:55:51Z</time>
      </trkpt>
      <trkpt lat="44.71897" lon="-0.30362">
        <ele>82</ele>
        <time>2013-05-20T13:55:59Z</time>
      </trkpt>
      <trkpt lat="44.71893" lon="-0.30354">
        <ele>83</ele>
        <time>2013-05-20T13:56:04Z</time>
      </trkpt>
      <trkpt lat="44.71887" lon="-0.3034">
        <ele>84</ele>
        <time>2013-05-20T13:56:12Z</time>
      </trkpt>
      <trkpt lat="44.71883" lon="-0.30332">
        <ele>85</ele>
        <time>2013-05-20T13:56:17Z</time>
      </trkpt>
      <trkpt lat="44.71878" lon="-0.30319">
        <ele>86</ele>
        <time>2013-05-20T13:56:25Z</time>
      </trkpt>
      <trkpt lat="44.71876" lon="-0.30317">
        <ele>87</ele>
        <time>2013-05-20T13:56:27Z</time>
      </trkpt>
      <trkpt lat="44.71872" lon="-0.30307">
        <ele>87</ele>
        <time>2013-05-20T13:56:33Z</time>
      </trkpt>
      <trkpt lat="44.71867" lon="-0.30294">
        <ele>88</ele>
        <time>2013-05-20T13:56:42Z</time>
      </trkpt>
      <trkpt lat="44.71862" lon="-0.30283">
        <ele>88</ele>
        <time>2013-05-20T13:56:50Z</time>
      </trkpt>
      <trkpt lat="44.71858" lon="-0.30272">
        <ele>90</ele>
        <time>2013-05-20T13:56:58Z</time>
      </trkpt>
      <trkpt lat="44.71854" lon="-0.30262">
        <ele>91</ele>
        <time>2013-05-20T13:57:05Z</time>
      </trkpt>
      <trkpt lat="44.71849" lon="-0.3025">
        <ele>93</ele>
        <time>2013-05-20T13:57:12Z</time>
      </trkpt>
      <trkpt lat="44.71846" lon="-0.30237">
        <ele>95</ele>
        <time>2013-05-20T13:57:20Z</time>
      </trkpt>
      <trkpt lat="44.71842" lon="-0.30226">
        <ele>96</ele>
        <time>2013-05-20T13:57:26Z</time>
      </trkpt>
      <trkpt lat="44.71838" lon="-0.30214">
        <ele>97</ele>
        <time>2013-05-20T13:57:34Z</time>
      </trkpt>
      <trkpt lat="44.71835" lon="-0.30206">
        <ele>98</ele>
        <time>2013-05-20T13:57:40Z</time>
      </trkpt>
      <trkpt lat="44.71831" lon="-0.30194">
        <ele>99</ele>
        <time>2013-05-20T13:57:48Z</time>
      </trkpt>
      <trkpt lat="44.71828" lon="-0.30183">
        <ele>100</ele>
        <time>2013-05-20T13:57:55Z</time>
      </trkpt>
      <trkpt lat="44.71824" lon="-0.30173">
        <ele>101</ele>
        <time>2013-05-20T13:58:03Z</time>
      </trkpt>
      <trkpt lat="44.71821" lon="-0.30166">
        <ele>102</ele>
        <time>2013-05-20T13:58:09Z</time>
      </trkpt>
      <trkpt lat="44.71819" lon="-0.30164">
        <ele>102</ele>
        <time>2013-05-20T13:58:11Z</time>
      </trkpt>
      <trkpt lat="44.71815" lon="-0.30153">
        <ele>103</ele>
        <time>2013-05-20T13:58:20Z</time>
      </trkpt>
      <trkpt lat="44.71813" lon="-0.30151">
        <ele>103</ele>
        <time>2013-05-20T13:58:23Z</time>
      </trkpt>
      <trkpt lat="44.7181" lon="-0.30146">
        <ele>103</ele>
        <time>2013-05-20T13:58:27Z</time>
      </trkpt>
      <trkpt lat="44.71813" lon="-0.30138">
        <ele>104</ele>
        <time>2013-05-20T13:58:33Z</time>
      </trkpt>
      <trkpt lat="44.71809" lon="-0.30128">
        <ele>105</ele>
        <time>2013-05-20T13:58:41Z</time>
      </trkpt>
      <trkpt lat="44.71807" lon="-0.30117">
        <ele>106</ele>
        <time>2013-05-20T13:58:48Z</time>
      </trkpt>
      <trkpt lat="44.71804" lon="-0.3011">
        <ele>106</ele>
        <time>2013-05-20T13:58:52Z</time>
      </trkpt>
      <trkpt lat="44.71801" lon="-0.30095">
        <ele>108</ele>
        <time>2013-05-20T13:59:01Z</time>
      </trkpt>
      <trkpt lat="44.71798" lon="-0.30081">
        <ele>108</ele>
        <time>2013-05-20T13:59:10Z</time>
      </trkpt>
      <trkpt lat="44.71796" lon="-0.30077">
        <ele>109</ele>
        <time>2013-05-20T13:59:13Z</time>
      </trkpt>
      <trkpt lat="44.71791" lon="-0.30061">
        <ele>109</ele>
        <time>2013-05-20T13:59:23Z</time>
      </trkpt>
      <trkpt lat="44.71787" lon="-0.30043">
        <ele>110</ele>
        <time>2013-05-20T13:59:32Z</time>
      </trkpt>
      <trkpt lat="44.71783" lon="-0.30028">
        <ele>111</ele>
        <time>2013-05-20T13:59:41Z</time>
      </trkpt>
      <trkpt lat="44.71782" lon="-0.3002">
        <ele>111</ele>
        <time>2013-05-20T13:59:45Z</time>
      </trkpt>
      <trkpt lat="44.71778" lon="-0.29998">
        <ele>111</ele>
        <time>2013-05-20T13:59:55Z</time>
      </trkpt>
      <trkpt lat="44.71774" lon="-0.29979">
        <ele>112</ele>
        <time>2013-05-20T14:00:03Z</time>
      </trkpt>
      <trkpt lat="44.71772" lon="-0.29964">
        <ele>112</ele>
        <time>2013-05-20T14:00:09Z</time>
      </trkpt>
      <trkpt lat="44.71771" lon="-0.29962">
        <ele>112</ele>
        <time>2013-05-20T14:00:15Z</time>
      </trkpt>
      <trkpt lat="44.71771" lon="-0.29962">
        <ele>112</ele>
        <time>2013-05-20T14:00:24Z</time>
      </trkpt>
      <trkpt lat="44.71771" lon="-0.29962">
        <ele>112</ele>
        <time>2013-05-20T14:00:34Z</time>
      </trkpt>
      <trkpt lat="44.71771" lon="-0.29962">
        <ele>112</ele>
        <time>2013-05-20T14:00:35Z</time>
      </trkpt>
      <trkpt lat="44.71761" lon="-0.29962">
        <ele>112</ele>
        <time>2013-05-20T14:00:43Z</time>
      </trkpt>
      <trkpt lat="44.71751" lon="-0.29962">
        <ele>112</ele>
        <time>2013-05-20T14:00:50Z</time>
      </trkpt>
      <trkpt lat="44.71733" lon="-0.29962">
        <ele>112</ele>
        <time>2013-05-20T14:00:59Z</time>
      </trkpt>
      <trkpt lat="44.71704" lon="-0.2996">
        <ele>112</ele>
        <time>2013-05-20T14:01:08Z</time>
      </trkpt>
      <trkpt lat="44.71695" lon="-0.29959">
        <ele>112</ele>
        <time>2013-05-20T14:01:13Z</time>
      </trkpt>
      <trkpt lat="44.71693" lon="-0.2996">
        <ele>112</ele>
        <time>2013-05-20T14:01:19Z</time>
      </trkpt>
      <trkpt lat="44.71692" lon="-0.2996">
        <ele>112</ele>
        <time>2013-05-20T14:01:31Z</time>
      </trkpt>
      <trkpt lat="44.71691" lon="-0.29959">
        <ele>112</ele>
        <time>2013-05-20T14:01:35Z</time>
      </trkpt>
      <trkpt lat="44.71688" lon="-0.29957">
        <ele>112</ele>
        <time>2013-05-20T14:01:38Z</time>
      </trkpt>
      <trkpt lat="44.71677" lon="-0.29958">
        <ele>112</ele>
        <time>2013-05-20T14:01:44Z</time>
      </trkpt>
      <trkpt lat="44.71658" lon="-0.29957">
        <ele>112</ele>
        <time>2013-05-20T14:01:52Z</time>
      </trkpt>
      <trkpt lat="44.71635" lon="-0.29957">
        <ele>111</ele>
        <time>2013-05-20T14:01:59Z</time>
      </trkpt>
      <trkpt lat="44.71591" lon="-0.29954">
        <ele>110</ele>
        <time>2013-05-20T14:02:09Z</time>
      </trkpt>
      <trkpt lat="44.7155" lon="-0.29951">
        <ele>109</ele>
        <time>2013-05-20T14:02:18Z</time>
      </trkpt>
      <trkpt lat="44.71546" lon="-0.29951">
        <ele>109</ele>
        <time>2013-05-20T14:02:19Z</time>
      </trkpt>
      <trkpt lat="44.71502" lon="-0.2995">
        <ele>109</ele>
        <time>2013-05-20T14:02:29Z</time>
      </trkpt>
      <trkpt lat="44.71453" lon="-0.29947">
        <ele>109</ele>
        <time>2013-05-20T14:02:40Z</time>
      </trkpt>
      <trkpt lat="44.71403" lon="-0.29945">
        <ele>110</ele>
        <time>2013-05-20T14:02:51Z</time>
      </trkpt>
      <trkpt lat="44.71363" lon="-0.29944">
        <ele>110</ele>
        <time>2013-05-20T14:02:59Z</time>
      </trkpt>
      <trkpt lat="44.71302" lon="-0.29939">
        <ele>110</ele>
        <time>2013-05-20T14:03:10Z</time>
      </trkpt>
      <trkpt lat="44.71255" lon="-0.29932">
        <ele>110</ele>
        <time>2013-05-20T14:03:18Z</time>
      </trkpt>
      <trkpt lat="44.71249" lon="-0.2993">
        <ele>109</ele>
        <time>2013-05-20T14:03:19Z</time>
      </trkpt>
      <trkpt lat="44.712" lon="-0.29907">
        <ele>108</ele>
        <time>2013-05-20T14:03:27Z</time>
      </trkpt>
      <trkpt lat="44.71146" lon="-0.29877">
        <ele>105</ele>
        <time>2013-05-20T14:03:35Z</time>
      </trkpt>
      <trkpt lat="44.71101" lon="-0.29865">
        <ele>102</ele>
        <time>2013-05-20T14:03:41Z</time>
      </trkpt>
      <trkpt lat="44.71043" lon="-0.29867">
        <ele>100</ele>
        <time>2013-05-20T14:03:49Z</time>
      </trkpt>
      <trkpt lat="44.71029" lon="-0.29869">
        <ele>100</ele>
        <time>2013-05-20T14:03:51Z</time>
      </trkpt>
      <trkpt lat="44.7101" lon="-0.29875">
        <ele>100</ele>
        <time>2013-05-20T14:03:54Z</time>
      </trkpt>
      <trkpt lat="44.70992" lon="-0.29887">
        <ele>101</ele>
        <time>2013-05-20T14:03:57Z</time>
      </trkpt>
      <trkpt lat="44.70986" lon="-0.29892">
        <ele>101</ele>
        <time>2013-05-20T14:03:58Z</time>
      </trkpt>
      <trkpt lat="44.70947" lon="-0.29943">
        <ele>103</ele>
        <time>2013-05-20T14:04:06Z</time>
      </trkpt>
      <trkpt lat="44.70936" lon="-0.29964">
        <ele>104</ele>
        <time>2013-05-20T14:04:09Z</time>
      </trkpt>
      <trkpt lat="44.70919" lon="-0.30026">
        <ele>103</ele>
        <time>2013-05-20T14:04:17Z</time>
      </trkpt>
      <trkpt lat="44.70906" lon="-0.30066">
        <ele>102</ele>
        <time>2013-05-20T14:04:23Z</time>
      </trkpt>
      <trkpt lat="44.70902" lon="-0.30073">
        <ele>102</ele>
        <time>2013-05-20T14:04:24Z</time>
      </trkpt>
      <trkpt lat="44.70899" lon="-0.30078">
        <ele>102</ele>
        <time>2013-05-20T14:04:25Z</time>
      </trkpt>
      <trkpt lat="44.70887" lon="-0.30093">
        <ele>102</ele>
        <time>2013-05-20T14:04:28Z</time>
      </trkpt>
      <trkpt lat="44.70851" lon="-0.30131">
        <ele>104</ele>
        <time>2013-05-20T14:04:37Z</time>
      </trkpt>
      <trkpt lat="44.70833" lon="-0.30149">
        <ele>105</ele>
        <time>2013-05-20T14:04:41Z</time>
      </trkpt>
      <trkpt lat="44.70829" lon="-0.30153">
        <ele>105</ele>
        <time>2013-05-20T14:04:42Z</time>
      </trkpt>
      <trkpt lat="44.70826" lon="-0.30157">
        <ele>105</ele>
        <time>2013-05-20T14:04:43Z</time>
      </trkpt>
      <trkpt lat="44.70819" lon="-0.30165">
        <ele>105</ele>
        <time>2013-05-20T14:04:45Z</time>
      </trkpt>
      <trkpt lat="44.70793" lon="-0.30205">
        <ele>106</ele>
        <time>2013-05-20T14:04:53Z</time>
      </trkpt>
      <trkpt lat="44.7077" lon="-0.30258">
        <ele>106</ele>
        <time>2013-05-20T14:05:02Z</time>
      </trkpt>
      <trkpt lat="44.70746" lon="-0.30325">
        <ele>106</ele>
        <time>2013-05-20T14:05:13Z</time>
      </trkpt>
      <trkpt lat="44.70731" lon="-0.30375">
        <ele>106</ele>
        <time>2013-05-20T14:05:21Z</time>
      </trkpt>
      <trkpt lat="44.70711" lon="-0.30431">
        <ele>106</ele>
        <time>2013-05-20T14:05:30Z</time>
      </trkpt>
      <trkpt lat="44.70693" lon="-0.30481">
        <ele>106</ele>
        <time>2013-05-20T14:05:38Z</time>
      </trkpt>
      <trkpt lat="44.70671" lon="-0.30539">
        <ele>105</ele>
        <time>2013-05-20T14:05:47Z</time>
      </trkpt>
      <trkpt lat="44.70651" lon="-0.3059">
        <ele>106</ele>
        <time>2013-05-20T14:05:55Z</time>
      </trkpt>
      <trkpt lat="44.7063" lon="-0.30645">
        <ele>106</ele>
        <time>2013-05-20T14:06:04Z</time>
      </trkpt>
      <trkpt lat="44.70615" lon="-0.30696">
        <ele>106</ele>
        <time>2013-05-20T14:06:13Z</time>
      </trkpt>
      <trkpt lat="44.70612" lon="-0.30707">
        <ele>106</ele>
        <time>2013-05-20T14:06:15Z</time>
      </trkpt>
      <trkpt lat="44.70591" lon="-0.30777">
        <ele>107</ele>
        <time>2013-05-20T14:06:28Z</time>
      </trkpt>
      <trkpt lat="44.70576" lon="-0.30812">
        <ele>107</ele>
        <time>2013-05-20T14:06:35Z</time>
      </trkpt>
      <trkpt lat="44.70572" lon="-0.30843">
        <ele>108</ele>
        <time>2013-05-20T14:06:41Z</time>
      </trkpt>
      <trkpt lat="44.70568" lon="-0.30871">
        <ele>109</ele>
        <time>2013-05-20T14:06:47Z</time>
      </trkpt>
      <trkpt lat="44.70565" lon="-0.30899">
        <ele>109</ele>
        <time>2013-05-20T14:06:53Z</time>
      </trkpt>
      <trkpt lat="44.70564" lon="-0.30945">
        <ele>110</ele>
        <time>2013-05-20T14:07:02Z</time>
      </trkpt>
      <trkpt lat="44.7057" lon="-0.30991">
        <ele>111</ele>
        <time>2013-05-20T14:07:11Z</time>
      </trkpt>
      <trkpt lat="44.70575" lon="-0.3103">
        <ele>112</ele>
        <time>2013-05-20T14:07:19Z</time>
      </trkpt>
      <trkpt lat="44.70583" lon="-0.31069">
        <ele>112</ele>
        <time>2013-05-20T14:07:28Z</time>
      </trkpt>
      <trkpt lat="44.70588" lon="-0.31095">
        <ele>112</ele>
        <time>2013-05-20T14:07:34Z</time>
      </trkpt>
      <trkpt lat="44.70594" lon="-0.31126">
        <ele>113</ele>
        <time>2013-05-20T14:07:41Z</time>
      </trkpt>
      <trkpt lat="44.70601" lon="-0.31155">
        <ele>113</ele>
        <time>2013-05-20T14:07:49Z</time>
      </trkpt>
      <trkpt lat="44.70607" lon="-0.31177">
        <ele>113</ele>
        <time>2013-05-20T14:07:56Z</time>
      </trkpt>
      <trkpt lat="44.70616" lon="-0.31202">
        <ele>113</ele>
        <time>2013-05-20T14:08:03Z</time>
      </trkpt>
      <trkpt lat="44.70627" lon="-0.31224">
        <ele>112</ele>
        <time>2013-05-20T14:08:09Z</time>
      </trkpt>
      <trkpt lat="44.70638" lon="-0.31248">
        <ele>111</ele>
        <time>2013-05-20T14:08:15Z</time>
      </trkpt>
      <trkpt lat="44.70653" lon="-0.31278">
        <ele>111</ele>
        <time>2013-05-20T14:08:22Z</time>
      </trkpt>
      <trkpt lat="44.70682" lon="-0.31319">
        <ele>110</ele>
        <time>2013-05-20T14:08:31Z</time>
      </trkpt>
      <trkpt lat="44.70723" lon="-0.31368">
        <ele>109</ele>
        <time>2013-05-20T14:08:41Z</time>
      </trkpt>
      <trkpt lat="44.70768" lon="-0.31413">
        <ele>107</ele>
        <time>2013-05-20T14:08:51Z</time>
      </trkpt>
      <trkpt lat="44.70811" lon="-0.31454">
        <ele>106</ele>
        <time>2013-05-20T14:09:01Z</time>
      </trkpt>
      <trkpt lat="44.70839" lon="-0.31488">
        <ele>105</ele>
        <time>2013-05-20T14:09:10Z</time>
      </trkpt>
      <trkpt lat="44.70858" lon="-0.3151">
        <ele>105</ele>
        <time>2013-05-20T14:09:17Z</time>
      </trkpt>
      <trkpt lat="44.70876" lon="-0.3153">
        <ele>105</ele>
        <time>2013-05-20T14:09:24Z</time>
      </trkpt>
      <trkpt lat="44.70893" lon="-0.31549">
        <ele>105</ele>
        <time>2013-05-20T14:09:31Z</time>
      </trkpt>
      <trkpt lat="44.70901" lon="-0.3156">
        <ele>105</ele>
        <time>2013-05-20T14:09:37Z</time>
      </trkpt>
      <trkpt lat="44.70904" lon="-0.31564">
        <ele>105</ele>
        <time>2013-05-20T14:09:43Z</time>
      </trkpt>
      <trkpt lat="44.70905" lon="-0.31566">
        <ele>105</ele>
        <time>2013-05-20T14:09:52Z</time>
      </trkpt>
      <trkpt lat="44.70906" lon="-0.31566">
        <ele>105</ele>
        <time>2013-05-20T14:10:02Z</time>
      </trkpt>
      <trkpt lat="44.70905" lon="-0.31567">
        <ele>105</ele>
        <time>2013-05-20T14:10:12Z</time>
      </trkpt>
      <trkpt lat="44.70903" lon="-0.31567">
        <ele>105</ele>
        <time>2013-05-20T14:10:13Z</time>
      </trkpt>
      <trkpt lat="44.70901" lon="-0.31566">
        <ele>105</ele>
        <time>2013-05-20T14:10:14Z</time>
      </trkpt>
      <trkpt lat="44.70899" lon="-0.31565">
        <ele>105</ele>
        <time>2013-05-20T14:10:15Z</time>
      </trkpt>
      <trkpt lat="44.70898" lon="-0.31563">
        <ele>105</ele>
        <time>2013-05-20T14:10:16Z</time>
      </trkpt>
      <trkpt lat="44.70896" lon="-0.31562">
        <ele>104</ele>
        <time>2013-05-20T14:10:17Z</time>
      </trkpt>
      <trkpt lat="44.70894" lon="-0.31562">
        <ele>104</ele>
        <time>2013-05-20T14:10:18Z</time>
      </trkpt>
      <trkpt lat="44.70892" lon="-0.31563">
        <ele>104</ele>
        <time>2013-05-20T14:10:19Z</time>
      </trkpt>
      <trkpt lat="44.7089" lon="-0.31564">
        <ele>104</ele>
        <time>2013-05-20T14:10:20Z</time>
      </trkpt>
      <trkpt lat="44.7089" lon="-0.31566">
        <ele>104</ele>
        <time>2013-05-20T14:10:21Z</time>
      </trkpt>
      <trkpt lat="44.7089" lon="-0.31568">
        <ele>104</ele>
        <time>2013-05-20T14:10:22Z</time>
      </trkpt>
      <trkpt lat="44.7089" lon="-0.31572">
        <ele>104</ele>
        <time>2013-05-20T14:10:28Z</time>
      </trkpt>
      <trkpt lat="44.7089" lon="-0.31572">
        <ele>104</ele>
        <time>2013-05-20T14:10:38Z</time>
      </trkpt>
      <trkpt lat="44.7089" lon="-0.31572">
        <ele>104</ele>
        <time>2013-05-20T14:10:42Z</time>
      </trkpt>
      <trkpt lat="44.70891" lon="-0.31574">
        <ele>104</ele>
        <time>2013-05-20T14:10:43Z</time>
      </trkpt>
      <trkpt lat="44.70892" lon="-0.31576">
        <ele>104</ele>
        <time>2013-05-20T14:10:44Z</time>
      </trkpt>
      <trkpt lat="44.709" lon="-0.31596">
        <ele>104</ele>
        <time>2013-05-20T14:10:51Z</time>
      </trkpt>
      <trkpt lat="44.70901" lon="-0.31599">
        <ele>104</ele>
        <time>2013-05-20T14:10:52Z</time>
      </trkpt>
      <trkpt lat="44.70901" lon="-0.31604">
        <ele>104</ele>
        <time>2013-05-20T14:10:53Z</time>
      </trkpt>
      <trkpt lat="44.70908" lon="-0.3164">
        <ele>104</ele>
        <time>2013-05-20T14:11:01Z</time>
      </trkpt>
      <trkpt lat="44.70916" lon="-0.31675">
        <ele>103</ele>
        <time>2013-05-20T14:11:08Z</time>
      </trkpt>
      <trkpt lat="44.70929" lon="-0.31714">
        <ele>103</ele>
        <time>2013-05-20T14:11:17Z</time>
      </trkpt>
      <trkpt lat="44.70934" lon="-0.31726">
        <ele>103</ele>
        <time>2013-05-20T14:11:21Z</time>
      </trkpt>
      <trkpt lat="44.70935" lon="-0.31728">
        <ele>102</ele>
        <time>2013-05-20T14:11:22Z</time>
      </trkpt>
      <trkpt lat="44.70949" lon="-0.31751">
        <ele>102</ele>
        <time>2013-05-20T14:11:30Z</time>
      </trkpt>
      <trkpt lat="44.70963" lon="-0.31778">
        <ele>102</ele>
        <time>2013-05-20T14:11:38Z</time>
      </trkpt>
      <trkpt lat="44.70972" lon="-0.31807">
        <ele>101</ele>
        <time>2013-05-20T14:11:46Z</time>
      </trkpt>
      <trkpt lat="44.70981" lon="-0.3184">
        <ele>101</ele>
        <time>2013-05-20T14:11:55Z</time>
      </trkpt>
      <trkpt lat="44.70989" lon="-0.31868">
        <ele>100</ele>
        <time>2013-05-20T14:12:02Z</time>
      </trkpt>
      <trkpt lat="44.70992" lon="-0.3188">
        <ele>99</ele>
        <time>2013-05-20T14:12:05Z</time>
      </trkpt>
      <trkpt lat="44.70999" lon="-0.319">
        <ele>98</ele>
        <time>2013-05-20T14:12:12Z</time>
      </trkpt>
      <trkpt lat="44.7101" lon="-0.31909">
        <ele>98</ele>
        <time>2013-05-20T14:12:17Z</time>
      </trkpt>
      <trkpt lat="44.71031" lon="-0.31919">
        <ele>98</ele>
        <time>2013-05-20T14:12:25Z</time>
      </trkpt>
      <trkpt lat="44.71049" lon="-0.31929">
        <ele>97</ele>
        <time>2013-05-20T14:12:31Z</time>
      </trkpt>
      <trkpt lat="44.71077" lon="-0.31947">
        <ele>98</ele>
        <time>2013-05-20T14:12:40Z</time>
      </trkpt>
      <trkpt lat="44.71095" lon="-0.31957">
        <ele>98</ele>
        <time>2013-05-20T14:12:47Z</time>
      </trkpt>
      <trkpt lat="44.71104" lon="-0.31964">
        <ele>98</ele>
        <time>2013-05-20T14:12:53Z</time>
      </trkpt>
      <trkpt lat="44.71105" lon="-0.31964">
        <ele>98</ele>
        <time>2013-05-20T14:12:54Z</time>
      </trkpt>
      <trkpt lat="44.71106" lon="-0.31965">
        <ele>98</ele>
        <time>2013-05-20T14:12:55Z</time>
      </trkpt>
      <trkpt lat="44.71108" lon="-0.31966">
        <ele>98</ele>
        <time>2013-05-20T14:12:56Z</time>
      </trkpt>
      <trkpt lat="44.71109" lon="-0.31966">
        <ele>98</ele>
        <time>2013-05-20T14:12:57Z</time>
      </trkpt>
      <trkpt lat="44.71111" lon="-0.31967">
        <ele>98</ele>
        <time>2013-05-20T14:12:58Z</time>
      </trkpt>
      <trkpt lat="44.71114" lon="-0.31972">
        <ele>98</ele>
        <time>2013-05-20T14:13:04Z</time>
      </trkpt>
      <trkpt lat="44.71114" lon="-0.31972">
        <ele>98</ele>
        <time>2013-05-20T14:13:13Z</time>
      </trkpt>
      <trkpt lat="44.71116" lon="-0.31972">
        <ele>98</ele>
        <time>2013-05-20T14:13:23Z</time>
      </trkpt>
      <trkpt lat="44.71117" lon="-0.31972">
        <ele>99</ele>
        <time>2013-05-20T14:13:30Z</time>
      </trkpt>
      <trkpt lat="44.71116" lon="-0.31972">
        <ele>98</ele>
        <time>2013-05-20T14:13:32Z</time>
      </trkpt>
      <trkpt lat="44.71116" lon="-0.31972">
        <ele>98</ele>
        <time>2013-05-20T14:13:36Z</time>
      </trkpt>
      <trkpt lat="44.71114" lon="-0.31974">
        <ele>98</ele>
        <time>2013-05-20T14:13:42Z</time>
      </trkpt>
      <trkpt lat="44.71114" lon="-0.31975">
        <ele>98</ele>
        <time>2013-05-20T14:13:45Z</time>
      </trkpt>
      <trkpt lat="44.71113" lon="-0.31977">
        <ele>98</ele>
        <time>2013-05-20T14:13:46Z</time>
      </trkpt>
      <trkpt lat="44.71113" lon="-0.31979">
        <ele>98</ele>
        <time>2013-05-20T14:13:47Z</time>
      </trkpt>
      <trkpt lat="44.71115" lon="-0.31983">
        <ele>98</ele>
        <time>2013-05-20T14:13:52Z</time>
      </trkpt>
      <trkpt lat="44.71117" lon="-0.31985">
        <ele>98</ele>
        <time>2013-05-20T14:14:01Z</time>
      </trkpt>
      <trkpt lat="44.71117" lon="-0.31986">
        <ele>98</ele>
        <time>2013-05-20T14:14:10Z</time>
      </trkpt>
      <trkpt lat="44.71118" lon="-0.31985">
        <ele>98</ele>
        <time>2013-05-20T14:14:18Z</time>
      </trkpt>
      <trkpt lat="44.71119" lon="-0.31987">
        <ele>98</ele>
        <time>2013-05-20T14:14:24Z</time>
      </trkpt>
      <trkpt lat="44.71119" lon="-0.31988">
        <ele>98</ele>
        <time>2013-05-20T14:14:32Z</time>
      </trkpt>
      <trkpt lat="44.7112" lon="-0.31989">
        <ele>98</ele>
        <time>2013-05-20T14:14:34Z</time>
      </trkpt>
      <trkpt lat="44.71121" lon="-0.31992">
        <ele>98</ele>
        <time>2013-05-20T14:14:35Z</time>
      </trkpt>
      <trkpt lat="44.71121" lon="-0.31994">
        <ele>98</ele>
        <time>2013-05-20T14:14:36Z</time>
      </trkpt>
      <trkpt lat="44.71122" lon="-0.31997">
        <ele>98</ele>
        <time>2013-05-20T14:14:37Z</time>
      </trkpt>
      <trkpt lat="44.71123" lon="-0.31999">
        <ele>98</ele>
        <time>2013-05-20T14:14:38Z</time>
      </trkpt>
      <trkpt lat="44.71127" lon="-0.32026">
        <ele>98</ele>
        <time>2013-05-20T14:14:46Z</time>
      </trkpt>
      <trkpt lat="44.7113" lon="-0.32052">
        <ele>98</ele>
        <time>2013-05-20T14:14:54Z</time>
      </trkpt>
      <trkpt lat="44.71132" lon="-0.32073">
        <ele>98</ele>
        <time>2013-05-20T14:15:00Z</time>
      </trkpt>
      <trkpt lat="44.71134" lon="-0.321">
        <ele>99</ele>
        <time>2013-05-20T14:15:07Z</time>
      </trkpt>
      <trkpt lat="44.71138" lon="-0.32134">
        <ele>98</ele>
        <time>2013-05-20T14:15:14Z</time>
      </trkpt>
      <trkpt lat="44.71141" lon="-0.32163">
        <ele>98</ele>
        <time>2013-05-20T14:15:22Z</time>
      </trkpt>
      <trkpt lat="44.71143" lon="-0.32192">
        <ele>99</ele>
        <time>2013-05-20T14:15:30Z</time>
      </trkpt>
      <trkpt lat="44.71145" lon="-0.32213">
        <ele>99</ele>
        <time>2013-05-20T14:15:36Z</time>
      </trkpt>
      <trkpt lat="44.71147" lon="-0.32241">
        <ele>99</ele>
        <time>2013-05-20T14:15:43Z</time>
      </trkpt>
      <trkpt lat="44.71149" lon="-0.32269">
        <ele>99</ele>
        <time>2013-05-20T14:15:50Z</time>
      </trkpt>
      <trkpt lat="44.71151" lon="-0.32303">
        <ele>100</ele>
        <time>2013-05-20T14:15:58Z</time>
      </trkpt>
      <trkpt lat="44.71155" lon="-0.3234">
        <ele>100</ele>
        <time>2013-05-20T14:16:06Z</time>
      </trkpt>
      <trkpt lat="44.7116" lon="-0.32386">
        <ele>100</ele>
        <time>2013-05-20T14:16:15Z</time>
      </trkpt>
      <trkpt lat="44.71164" lon="-0.32426">
        <ele>100</ele>
        <time>2013-05-20T14:16:23Z</time>
      </trkpt>
      <trkpt lat="44.71168" lon="-0.32478">
        <ele>100</ele>
        <time>2013-05-20T14:16:33Z</time>
      </trkpt>
      <trkpt lat="44.71164" lon="-0.32519">
        <ele>99</ele>
        <time>2013-05-20T14:16:40Z</time>
      </trkpt>
      <trkpt lat="44.71163" lon="-0.32525">
        <ele>99</ele>
        <time>2013-05-20T14:16:41Z</time>
      </trkpt>
      <trkpt lat="44.71148" lon="-0.32576">
        <ele>97</ele>
        <time>2013-05-20T14:16:50Z</time>
      </trkpt>
      <trkpt lat="44.71147" lon="-0.32582">
        <ele>97</ele>
        <time>2013-05-20T14:16:51Z</time>
      </trkpt>
      <trkpt lat="44.71145" lon="-0.32588">
        <ele>96</ele>
        <time>2013-05-20T14:16:52Z</time>
      </trkpt>
      <trkpt lat="44.71143" lon="-0.32593">
        <ele>96</ele>
        <time>2013-05-20T14:16:53Z</time>
      </trkpt>
      <trkpt lat="44.71141" lon="-0.32599">
        <ele>96</ele>
        <time>2013-05-20T14:16:54Z</time>
      </trkpt>
      <trkpt lat="44.71139" lon="-0.32604">
        <ele>96</ele>
        <time>2013-05-20T14:16:55Z</time>
      </trkpt>
      <trkpt lat="44.71134" lon="-0.32624">
        <ele>95</ele>
        <time>2013-05-20T14:16:59Z</time>
      </trkpt>
      <trkpt lat="44.71134" lon="-0.32628">
        <ele>95</ele>
        <time>2013-05-20T14:17:00Z</time>
      </trkpt>
      <trkpt lat="44.71135" lon="-0.3263">
        <ele>95</ele>
        <time>2013-05-20T14:17:01Z</time>
      </trkpt>
      <trkpt lat="44.71135" lon="-0.32634">
        <ele>95</ele>
        <time>2013-05-20T14:17:05Z</time>
      </trkpt>
      <trkpt lat="44.71136" lon="-0.3264">
        <ele>95</ele>
        <time>2013-05-20T14:17:11Z</time>
      </trkpt>
      <trkpt lat="44.71131" lon="-0.32662">
        <ele>94</ele>
        <time>2013-05-20T14:17:18Z</time>
      </trkpt>
      <trkpt lat="44.7112" lon="-0.32698">
        <ele>93</ele>
        <time>2013-05-20T14:17:26Z</time>
      </trkpt>
      <trkpt lat="44.71107" lon="-0.32742">
        <ele>92</ele>
        <time>2013-05-20T14:17:34Z</time>
      </trkpt>
      <trkpt lat="44.71097" lon="-0.32772">
        <ele>91</ele>
        <time>2013-05-20T14:17:40Z</time>
      </trkpt>
      <trkpt lat="44.71081" lon="-0.32826">
        <ele>92</ele>
        <time>2013-05-20T14:17:50Z</time>
      </trkpt>
      <trkpt lat="44.7107" lon="-0.32866">
        <ele>92</ele>
        <time>2013-05-20T14:17:58Z</time>
      </trkpt>
      <trkpt lat="44.71069" lon="-0.32871">
        <ele>92</ele>
        <time>2013-05-20T14:17:59Z</time>
      </trkpt>
      <trkpt lat="44.71057" lon="-0.32914">
        <ele>92</ele>
        <time>2013-05-20T14:18:07Z</time>
      </trkpt>
      <trkpt lat="44.71045" lon="-0.32972">
        <ele>91</ele>
        <time>2013-05-20T14:18:17Z</time>
      </trkpt>
      <trkpt lat="44.71033" lon="-0.33037">
        <ele>90</ele>
        <time>2013-05-20T14:18:28Z</time>
      </trkpt>
      <trkpt lat="44.71033" lon="-0.33042">
        <ele>90</ele>
        <time>2013-05-20T14:18:29Z</time>
      </trkpt>
      <trkpt lat="44.71034" lon="-0.33047">
        <ele>90</ele>
        <time>2013-05-20T14:18:30Z</time>
      </trkpt>
      <trkpt lat="44.71036" lon="-0.33052">
        <ele>90</ele>
        <time>2013-05-20T14:18:31Z</time>
      </trkpt>
      <trkpt lat="44.71039" lon="-0.33057">
        <ele>91</ele>
        <time>2013-05-20T14:18:32Z</time>
      </trkpt>
      <trkpt lat="44.71042" lon="-0.3306">
        <ele>91</ele>
        <time>2013-05-20T14:18:33Z</time>
      </trkpt>
      <trkpt lat="44.71045" lon="-0.33063">
        <ele>91</ele>
        <time>2013-05-20T14:18:34Z</time>
      </trkpt>
      <trkpt lat="44.71049" lon="-0.33064">
        <ele>91</ele>
        <time>2013-05-20T14:18:35Z</time>
      </trkpt>
      <trkpt lat="44.71074" lon="-0.33075">
        <ele>93</ele>
        <time>2013-05-20T14:18:41Z</time>
      </trkpt>
      <trkpt lat="44.71078" lon="-0.33078">
        <ele>93</ele>
        <time>2013-05-20T14:18:42Z</time>
      </trkpt>
      <trkpt lat="44.71095" lon="-0.33096">
        <ele>93</ele>
        <time>2013-05-20T14:18:47Z</time>
      </trkpt>
      <trkpt lat="44.71106" lon="-0.33106">
        <ele>94</ele>
        <time>2013-05-20T14:18:50Z</time>
      </trkpt>
      <trkpt lat="44.71111" lon="-0.33109">
        <ele>94</ele>
        <time>2013-05-20T14:18:51Z</time>
      </trkpt>
      <trkpt lat="44.71115" lon="-0.33111">
        <ele>94</ele>
        <time>2013-05-20T14:18:52Z</time>
      </trkpt>
      <trkpt lat="44.71119" lon="-0.33113">
        <ele>94</ele>
        <time>2013-05-20T14:18:53Z</time>
      </trkpt>
      <trkpt lat="44.71124" lon="-0.33115">
        <ele>93</ele>
        <time>2013-05-20T14:18:54Z</time>
      </trkpt>
      <trkpt lat="44.71128" lon="-0.33115">
        <ele>93</ele>
        <time>2013-05-20T14:18:55Z</time>
      </trkpt>
      <trkpt lat="44.71133" lon="-0.33115">
        <ele>93</ele>
        <time>2013-05-20T14:18:56Z</time>
      </trkpt>
      <trkpt lat="44.71172" lon="-0.33113">
        <ele>93</ele>
        <time>2013-05-20T14:19:04Z</time>
      </trkpt>
      <trkpt lat="44.71177" lon="-0.33113">
        <ele>93</ele>
        <time>2013-05-20T14:19:05Z</time>
      </trkpt>
      <trkpt lat="44.71201" lon="-0.33121">
        <ele>92</ele>
        <time>2013-05-20T14:19:10Z</time>
      </trkpt>
      <trkpt lat="44.71239" lon="-0.33148">
        <ele>91</ele>
        <time>2013-05-20T14:19:19Z</time>
      </trkpt>
      <trkpt lat="44.71243" lon="-0.33151">
        <ele>91</ele>
        <time>2013-05-20T14:19:20Z</time>
      </trkpt>
      <trkpt lat="44.71258" lon="-0.33157">
        <ele>91</ele>
        <time>2013-05-20T14:19:24Z</time>
      </trkpt>
      <trkpt lat="44.71261" lon="-0.33155">
        <ele>92</ele>
        <time>2013-05-20T14:19:25Z</time>
      </trkpt>
      <trkpt lat="44.71264" lon="-0.33147">
        <ele>92</ele>
        <time>2013-05-20T14:19:27Z</time>
      </trkpt>
      <trkpt lat="44.71266" lon="-0.33113">
        <ele>93</ele>
        <time>2013-05-20T14:19:34Z</time>
      </trkpt>
      <trkpt lat="44.71266" lon="-0.33075">
        <ele>94</ele>
        <time>2013-05-20T14:19:43Z</time>
      </trkpt>
      <trkpt lat="44.71266" lon="-0.33059">
        <ele>94</ele>
        <time>2013-05-20T14:19:48Z</time>
      </trkpt>
      <trkpt lat="44.71268" lon="-0.33039">
        <ele>94</ele>
        <time>2013-05-20T14:19:55Z</time>
      </trkpt>
      <trkpt lat="44.71277" lon="-0.33035">
        <ele>95</ele>
        <time>2013-05-20T14:20:01Z</time>
      </trkpt>
      <trkpt lat="44.71283" lon="-0.33035">
        <ele>95</ele>
        <time>2013-05-20T14:20:04Z</time>
      </trkpt>
      <trkpt lat="44.71299" lon="-0.33035">
        <ele>95</ele>
        <time>2013-05-20T14:20:12Z</time>
      </trkpt>
      <trkpt lat="44.71313" lon="-0.33035">
        <ele>95</ele>
        <time>2013-05-20T14:20:19Z</time>
      </trkpt>
      <trkpt lat="44.71333" lon="-0.33034">
        <ele>96</ele>
        <time>2013-05-20T14:20:28Z</time>
      </trkpt>
      <trkpt lat="44.71346" lon="-0.33031">
        <ele>96</ele>
        <time>2013-05-20T14:20:34Z</time>
      </trkpt>
      <trkpt lat="44.71367" lon="-0.33027">
        <ele>97</ele>
        <time>2013-05-20T14:20:43Z</time>
      </trkpt>
      <trkpt lat="44.71391" lon="-0.33023">
        <ele>97</ele>
        <time>2013-05-20T14:20:53Z</time>
      </trkpt>
      <trkpt lat="44.71407" lon="-0.33018">
        <ele>97</ele>
        <time>2013-05-20T14:21:00Z</time>
      </trkpt>
      <trkpt lat="44.71417" lon="-0.33029">
        <ele>97</ele>
        <time>2013-05-20T14:21:06Z</time>
      </trkpt>
      <trkpt lat="44.71427" lon="-0.33057">
        <ele>97</ele>
        <time>2013-05-20T14:21:15Z</time>
      </trkpt>
      <trkpt lat="44.71433" lon="-0.33082">
        <ele>97</ele>
        <time>2013-05-20T14:21:22Z</time>
      </trkpt>
      <trkpt lat="44.71439" lon="-0.33111">
        <ele>98</ele>
        <time>2013-05-20T14:21:30Z</time>
      </trkpt>
      <trkpt lat="44.71443" lon="-0.33131">
        <ele>97</ele>
        <time>2013-05-20T14:21:37Z</time>
      </trkpt>
      <trkpt lat="44.71446" lon="-0.33141">
        <ele>97</ele>
        <time>2013-05-20T14:21:41Z</time>
      </trkpt>
      <trkpt lat="44.71463" lon="-0.33153">
        <ele>97</ele>
        <time>2013-05-20T14:21:48Z</time>
      </trkpt>
      <trkpt lat="44.71482" lon="-0.33173">
        <ele>94</ele>
        <time>2013-05-20T14:21:55Z</time>
      </trkpt>
      <trkpt lat="44.71503" lon="-0.33193">
        <ele>91</ele>
        <time>2013-05-20T14:22:03Z</time>
      </trkpt>
      <trkpt lat="44.71504" lon="-0.33199">
        <ele>92</ele>
        <time>2013-05-20T14:22:08Z</time>
      </trkpt>
      <trkpt lat="44.71504" lon="-0.33199">
        <ele>92</ele>
        <time>2013-05-20T14:22:12Z</time>
      </trkpt>
      <trkpt lat="44.71496" lon="-0.33201">
        <ele>93</ele>
        <time>2013-05-20T14:22:17Z</time>
      </trkpt>
      <trkpt lat="44.71488" lon="-0.33203">
        <ele>94</ele>
        <time>2013-05-20T14:22:22Z</time>
      </trkpt>
      <trkpt lat="44.71488" lon="-0.33205">
        <ele>94</ele>
        <time>2013-05-20T14:22:27Z</time>
      </trkpt>
      <trkpt lat="44.71488" lon="-0.33205">
        <ele>94</ele>
        <time>2013-05-20T14:22:40Z</time>
      </trkpt>
      <trkpt lat="44.71488" lon="-0.33205">
        <ele>94</ele>
        <time>2013-05-20T14:22:42Z</time>
      </trkpt>
      <trkpt lat="44.7149" lon="-0.33218">
        <ele>94</ele>
        <time>2013-05-20T14:22:49Z</time>
      </trkpt>
      <trkpt lat="44.71493" lon="-0.33225">
        <ele>93</ele>
        <time>2013-05-20T14:22:52Z</time>
      </trkpt>
      <trkpt lat="44.71509" lon="-0.33248">
        <ele>93</ele>
        <time>2013-05-20T14:23:01Z</time>
      </trkpt>
      <trkpt lat="44.71522" lon="-0.33264">
        <ele>93</ele>
        <time>2013-05-20T14:23:09Z</time>
      </trkpt>
      <trkpt lat="44.7153" lon="-0.33277">
        <ele>94</ele>
        <time>2013-05-20T14:23:16Z</time>
      </trkpt>
      <trkpt lat="44.71533" lon="-0.33279">
        <ele>94</ele>
        <time>2013-05-20T14:23:18Z</time>
      </trkpt>
      <trkpt lat="44.71536" lon="-0.33287">
        <ele>95</ele>
        <time>2013-05-20T14:23:24Z</time>
      </trkpt>
      <trkpt lat="44.71537" lon="-0.33289">
        <ele>95</ele>
        <time>2013-05-20T14:23:25Z</time>
      </trkpt>
      <trkpt lat="44.71541" lon="-0.33299">
        <ele>96</ele>
        <time>2013-05-20T14:23:32Z</time>
      </trkpt>
      <trkpt lat="44.71543" lon="-0.33308">
        <ele>97</ele>
        <time>2013-05-20T14:23:36Z</time>
      </trkpt>
      <trkpt lat="44.71549" lon="-0.3333">
        <ele>98</ele>
        <time>2013-05-20T14:23:45Z</time>
      </trkpt>
      <trkpt lat="44.71555" lon="-0.33355">
        <ele>99</ele>
        <time>2013-05-20T14:23:55Z</time>
      </trkpt>
      <trkpt lat="44.7156" lon="-0.33377">
        <ele>100</ele>
        <time>2013-05-20T14:24:03Z</time>
      </trkpt>
      <trkpt lat="44.71565" lon="-0.33398">
        <ele>101</ele>
        <time>2013-05-20T14:24:10Z</time>
      </trkpt>
      <trkpt lat="44.71572" lon="-0.33425">
        <ele>102</ele>
        <time>2013-05-20T14:24:19Z</time>
      </trkpt>
      <trkpt lat="44.71579" lon="-0.33448">
        <ele>103</ele>
        <time>2013-05-20T14:24:27Z</time>
      </trkpt>
      <trkpt lat="44.71584" lon="-0.33469">
        <ele>103</ele>
        <time>2013-05-20T14:24:34Z</time>
      </trkpt>
      <trkpt lat="44.7159" lon="-0.33496">
        <ele>103</ele>
        <time>2013-05-20T14:24:42Z</time>
      </trkpt>
      <trkpt lat="44.71596" lon="-0.33515">
        <ele>103</ele>
        <time>2013-05-20T14:24:50Z</time>
      </trkpt>
      <trkpt lat="44.71603" lon="-0.33542">
        <ele>102</ele>
        <time>2013-05-20T14:24:58Z</time>
      </trkpt>
      <trkpt lat="44.71607" lon="-0.33562">
        <ele>102</ele>
        <time>2013-05-20T14:25:05Z</time>
      </trkpt>
      <trkpt lat="44.71613" lon="-0.33583">
        <ele>102</ele>
        <time>2013-05-20T14:25:12Z</time>
      </trkpt>
      <trkpt lat="44.71616" lon="-0.33596">
        <ele>102</ele>
        <time>2013-05-20T14:25:17Z</time>
      </trkpt>
      <trkpt lat="44.71617" lon="-0.336">
        <ele>101</ele>
        <time>2013-05-20T14:25:19Z</time>
      </trkpt>
      <trkpt lat="44.71619" lon="-0.33604">
        <ele>101</ele>
        <time>2013-05-20T14:25:22Z</time>
      </trkpt>
      <trkpt lat="44.71622" lon="-0.33626">
        <ele>101</ele>
        <time>2013-05-20T14:25:29Z</time>
      </trkpt>
      <trkpt lat="44.71626" lon="-0.33653">
        <ele>102</ele>
        <time>2013-05-20T14:25:35Z</time>
      </trkpt>
      <trkpt lat="44.71634" lon="-0.33678">
        <ele>103</ele>
        <time>2013-05-20T14:25:42Z</time>
      </trkpt>
      <trkpt lat="44.71643" lon="-0.33708">
        <ele>103</ele>
        <time>2013-05-20T14:25:50Z</time>
      </trkpt>
      <trkpt lat="44.71651" lon="-0.33742">
        <ele>102</ele>
        <time>2013-05-20T14:25:59Z</time>
      </trkpt>
      <trkpt lat="44.71656" lon="-0.33772">
        <ele>101</ele>
        <time>2013-05-20T14:26:06Z</time>
      </trkpt>
      <trkpt lat="44.71655" lon="-0.33802">
        <ele>100</ele>
        <time>2013-05-20T14:26:12Z</time>
      </trkpt>
      <trkpt lat="44.7166" lon="-0.33817">
        <ele>99</ele>
        <time>2013-05-20T14:26:18Z</time>
      </trkpt>
      <trkpt lat="44.7166" lon="-0.33818">
        <ele>99</ele>
        <time>2013-05-20T14:26:26Z</time>
      </trkpt>
      <trkpt lat="44.71659" lon="-0.33819">
        <ele>99</ele>
        <time>2013-05-20T14:26:37Z</time>
      </trkpt>
      <trkpt lat="44.71659" lon="-0.3382">
        <ele>99</ele>
        <time>2013-05-20T14:26:44Z</time>
      </trkpt>
      <trkpt lat="44.71659" lon="-0.3382">
        <ele>99</ele>
        <time>2013-05-20T14:26:45Z</time>
      </trkpt>
      <trkpt lat="44.71665" lon="-0.33829">
        <ele>98</ele>
        <time>2013-05-20T14:26:51Z</time>
      </trkpt>
      <trkpt lat="44.71666" lon="-0.33831">
        <ele>98</ele>
        <time>2013-05-20T14:26:56Z</time>
      </trkpt>
      <trkpt lat="44.71666" lon="-0.33831">
        <ele>98</ele>
        <time>2013-05-20T14:26:59Z</time>
      </trkpt>
      <trkpt lat="44.71673" lon="-0.33834">
        <ele>97</ele>
        <time>2013-05-20T14:27:04Z</time>
      </trkpt>
      <trkpt lat="44.71689" lon="-0.3384">
        <ele>97</ele>
        <time>2013-05-20T14:27:10Z</time>
      </trkpt>
      <trkpt lat="44.71703" lon="-0.33844">
        <ele>96</ele>
        <time>2013-05-20T14:27:15Z</time>
      </trkpt>
      <trkpt lat="44.71729" lon="-0.33854">
        <ele>95</ele>
        <time>2013-05-20T14:27:23Z</time>
      </trkpt>
      <trkpt lat="44.71752" lon="-0.33865">
        <ele>93</ele>
        <time>2013-05-20T14:27:29Z</time>
      </trkpt>
      <trkpt lat="44.71756" lon="-0.33867">
        <ele>93</ele>
        <time>2013-05-20T14:27:30Z</time>
      </trkpt>
      <trkpt lat="44.7176" lon="-0.3387">
        <ele>93</ele>
        <time>2013-05-20T14:27:31Z</time>
      </trkpt>
      <trkpt lat="44.71787" lon="-0.33898">
        <ele>89</ele>
        <time>2013-05-20T14:27:37Z</time>
      </trkpt>
      <trkpt lat="44.71797" lon="-0.33909">
        <ele>88</ele>
        <time>2013-05-20T14:27:39Z</time>
      </trkpt>
      <trkpt lat="44.71801" lon="-0.33916">
        <ele>87</ele>
        <time>2013-05-20T14:27:40Z</time>
      </trkpt>
      <trkpt lat="44.71805" lon="-0.33922">
        <ele>87</ele>
        <time>2013-05-20T14:27:41Z</time>
      </trkpt>
      <trkpt lat="44.71809" lon="-0.33928">
        <ele>87</ele>
        <time>2013-05-20T14:27:42Z</time>
      </trkpt>
      <trkpt lat="44.71813" lon="-0.33933">
        <ele>86</ele>
        <time>2013-05-20T14:27:43Z</time>
      </trkpt>
      <trkpt lat="44.71833" lon="-0.33955">
        <ele>84</ele>
        <time>2013-05-20T14:27:48Z</time>
      </trkpt>
      <trkpt lat="44.71838" lon="-0.33958">
        <ele>83</ele>
        <time>2013-05-20T14:27:49Z</time>
      </trkpt>
      <trkpt lat="44.71842" lon="-0.3396">
        <ele>83</ele>
        <time>2013-05-20T14:27:50Z</time>
      </trkpt>
      <trkpt lat="44.71846" lon="-0.33962">
        <ele>82</ele>
        <time>2013-05-20T14:27:51Z</time>
      </trkpt>
      <trkpt lat="44.71868" lon="-0.33964">
        <ele>81</ele>
        <time>2013-05-20T14:27:57Z</time>
      </trkpt>
      <trkpt lat="44.71871" lon="-0.33964">
        <ele>80</ele>
        <time>2013-05-20T14:27:58Z</time>
      </trkpt>
      <trkpt lat="44.71873" lon="-0.33963">
        <ele>80</ele>
        <time>2013-05-20T14:27:59Z</time>
      </trkpt>
      <trkpt lat="44.71886" lon="-0.3395">
        <ele>80</ele>
        <time>2013-05-20T14:28:05Z</time>
      </trkpt>
      <trkpt lat="44.71896" lon="-0.33934">
        <ele>78</ele>
        <time>2013-05-20T14:28:10Z</time>
      </trkpt>
      <trkpt lat="44.719" lon="-0.33933">
        <ele>77</ele>
        <time>2013-05-20T14:28:12Z</time>
      </trkpt>
      <trkpt lat="44.71909" lon="-0.33933">
        <ele>75</ele>
        <time>2013-05-20T14:28:17Z</time>
      </trkpt>
      <trkpt lat="44.7193" lon="-0.33945">
        <ele>72</ele>
        <time>2013-05-20T14:28:22Z</time>
      </trkpt>
      <trkpt lat="44.71953" lon="-0.33948">
        <ele>69</ele>
        <time>2013-05-20T14:28:28Z</time>
      </trkpt>
      <trkpt lat="44.71972" lon="-0.3395">
        <ele>66</ele>
        <time>2013-05-20T14:28:34Z</time>
      </trkpt>
      <trkpt lat="44.71974" lon="-0.33953">
        <ele>66</ele>
        <time>2013-05-20T14:28:35Z</time>
      </trkpt>
      <trkpt lat="44.71978" lon="-0.33955">
        <ele>65</ele>
        <time>2013-05-20T14:28:36Z</time>
      </trkpt>
      <trkpt lat="44.71981" lon="-0.33956">
        <ele>65</ele>
        <time>2013-05-20T14:28:37Z</time>
      </trkpt>
      <trkpt lat="44.71984" lon="-0.33956">
        <ele>64</ele>
        <time>2013-05-20T14:28:38Z</time>
      </trkpt>
      <trkpt lat="44.71988" lon="-0.33958">
        <ele>63</ele>
        <time>2013-05-20T14:28:39Z</time>
      </trkpt>
      <trkpt lat="44.71992" lon="-0.3396">
        <ele>63</ele>
        <time>2013-05-20T14:28:40Z</time>
      </trkpt>
      <trkpt lat="44.71996" lon="-0.33963">
        <ele>62</ele>
        <time>2013-05-20T14:28:41Z</time>
      </trkpt>
      <trkpt lat="44.71999" lon="-0.33967">
        <ele>62</ele>
        <time>2013-05-20T14:28:42Z</time>
      </trkpt>
      <trkpt lat="44.72002" lon="-0.3397">
        <ele>62</ele>
        <time>2013-05-20T14:28:43Z</time>
      </trkpt>
      <trkpt lat="44.72005" lon="-0.33975">
        <ele>62</ele>
        <time>2013-05-20T14:28:44Z</time>
      </trkpt>
      <trkpt lat="44.72009" lon="-0.33979">
        <ele>61</ele>
        <time>2013-05-20T14:28:45Z</time>
      </trkpt>
      <trkpt lat="44.72012" lon="-0.33984">
        <ele>61</ele>
        <time>2013-05-20T14:28:46Z</time>
      </trkpt>
      <trkpt lat="44.72026" lon="-0.34007">
        <ele>60</ele>
        <time>2013-05-20T14:28:52Z</time>
      </trkpt>
      <trkpt lat="44.72041" lon="-0.3402">
        <ele>59</ele>
        <time>2013-05-20T14:28:58Z</time>
      </trkpt>
      <trkpt lat="44.72052" lon="-0.34029">
        <ele>57</ele>
        <time>2013-05-20T14:29:05Z</time>
      </trkpt>
      <trkpt lat="44.72061" lon="-0.34034">
        <ele>56</ele>
        <time>2013-05-20T14:29:12Z</time>
      </trkpt>
      <trkpt lat="44.72066" lon="-0.34035">
        <ele>56</ele>
        <time>2013-05-20T14:29:15Z</time>
      </trkpt>
      <trkpt lat="44.72075" lon="-0.34034">
        <ele>55</ele>
        <time>2013-05-20T14:29:20Z</time>
      </trkpt>
      <trkpt lat="44.72089" lon="-0.34032">
        <ele>53</ele>
        <time>2013-05-20T14:29:26Z</time>
      </trkpt>
      <trkpt lat="44.72094" lon="-0.34032">
        <ele>52</ele>
        <time>2013-05-20T14:29:29Z</time>
      </trkpt>
      <trkpt lat="44.72099" lon="-0.34031">
        <ele>51</ele>
        <time>2013-05-20T14:29:32Z</time>
      </trkpt>
      <trkpt lat="44.72111" lon="-0.34032">
        <ele>50</ele>
        <time>2013-05-20T14:29:39Z</time>
      </trkpt>
      <trkpt lat="44.72118" lon="-0.34032">
        <ele>49</ele>
        <time>2013-05-20T14:29:46Z</time>
      </trkpt>
      <trkpt lat="44.72123" lon="-0.34028">
        <ele>48</ele>
        <time>2013-05-20T14:29:53Z</time>
      </trkpt>
      <trkpt lat="44.72124" lon="-0.34027">
        <ele>48</ele>
        <time>2013-05-20T14:29:54Z</time>
      </trkpt>
      <trkpt lat="44.72141" lon="-0.34026">
        <ele>45</ele>
        <time>2013-05-20T14:30:02Z</time>
      </trkpt>
      <trkpt lat="44.72147" lon="-0.34023">
        <ele>44</ele>
        <time>2013-05-20T14:30:08Z</time>
      </trkpt>
      <trkpt lat="44.72156" lon="-0.3402">
        <ele>43</ele>
        <time>2013-05-20T14:30:15Z</time>
      </trkpt>
      <trkpt lat="44.72157" lon="-0.34018">
        <ele>42</ele>
        <time>2013-05-20T14:30:17Z</time>
      </trkpt>
      <trkpt lat="44.7217" lon="-0.3401">
        <ele>40</ele>
        <time>2013-05-20T14:30:23Z</time>
      </trkpt>
      <trkpt lat="44.72182" lon="-0.33985">
        <ele>37</ele>
        <time>2013-05-20T14:30:31Z</time>
      </trkpt>
      <trkpt lat="44.72183" lon="-0.3398">
        <ele>36</ele>
        <time>2013-05-20T14:30:34Z</time>
      </trkpt>
      <trkpt lat="44.72183" lon="-0.33977">
        <ele>36</ele>
        <time>2013-05-20T14:30:39Z</time>
      </trkpt>
      <trkpt lat="44.72181" lon="-0.33972">
        <ele>36</ele>
        <time>2013-05-20T14:30:45Z</time>
      </trkpt>
      <trkpt lat="44.72181" lon="-0.33966">
        <ele>36</ele>
        <time>2013-05-20T14:30:53Z</time>
      </trkpt>
      <trkpt lat="44.72179" lon="-0.33959">
        <ele>36</ele>
        <time>2013-05-20T14:31:01Z</time>
      </trkpt>
      <trkpt lat="44.72182" lon="-0.3395">
        <ele>35</ele>
        <time>2013-05-20T14:31:08Z</time>
      </trkpt>
      <trkpt lat="44.72185" lon="-0.33944">
        <ele>34</ele>
        <time>2013-05-20T14:31:14Z</time>
      </trkpt>
      <trkpt lat="44.72188" lon="-0.33943">
        <ele>34</ele>
        <time>2013-05-20T14:31:20Z</time>
      </trkpt>
      <trkpt lat="44.72191" lon="-0.33943">
        <ele>34</ele>
        <time>2013-05-20T14:31:28Z</time>
      </trkpt>
      <trkpt lat="44.72192" lon="-0.33945">
        <ele>34</ele>
        <time>2013-05-20T14:31:34Z</time>
      </trkpt>
      <trkpt lat="44.72193" lon="-0.33942">
        <ele>33</ele>
        <time>2013-05-20T14:31:42Z</time>
      </trkpt>
      <trkpt lat="44.72195" lon="-0.3394">
        <ele>33</ele>
        <time>2013-05-20T14:31:50Z</time>
      </trkpt>
      <trkpt lat="44.72196" lon="-0.33939">
        <ele>33</ele>
        <time>2013-05-20T14:32:02Z</time>
      </trkpt>
      <trkpt lat="44.72196" lon="-0.33939">
        <ele>33</ele>
        <time>2013-05-20T14:32:12Z</time>
      </trkpt>
      <trkpt lat="44.72196" lon="-0.3394">
        <ele>33</ele>
        <time>2013-05-20T14:32:22Z</time>
      </trkpt>
      <trkpt lat="44.72198" lon="-0.3394">
        <ele>33</ele>
        <time>2013-05-20T14:32:31Z</time>
      </trkpt>
      <trkpt lat="44.72202" lon="-0.33937">
        <ele>32</ele>
        <time>2013-05-20T14:32:36Z</time>
      </trkpt>
      <trkpt lat="44.72212" lon="-0.33935">
        <ele>31</ele>
        <time>2013-05-20T14:32:42Z</time>
      </trkpt>
      <trkpt lat="44.72222" lon="-0.33939">
        <ele>31</ele>
        <time>2013-05-20T14:32:46Z</time>
      </trkpt>
      <trkpt lat="44.72239" lon="-0.33954">
        <ele>33</ele>
        <time>2013-05-20T14:32:54Z</time>
      </trkpt>
      <trkpt lat="44.72253" lon="-0.33977">
        <ele>34</ele>
        <time>2013-05-20T14:33:01Z</time>
      </trkpt>
      <trkpt lat="44.72268" lon="-0.33998">
        <ele>36</ele>
        <time>2013-05-20T14:33:09Z</time>
      </trkpt>
      <trkpt lat="44.72282" lon="-0.34013">
        <ele>39</ele>
        <time>2013-05-20T14:33:16Z</time>
      </trkpt>
      <trkpt lat="44.72295" lon="-0.34029">
        <ele>42</ele>
        <time>2013-05-20T14:33:23Z</time>
      </trkpt>
      <trkpt lat="44.72306" lon="-0.3405">
        <ele>44</ele>
        <time>2013-05-20T14:33:31Z</time>
      </trkpt>
      <trkpt lat="44.72308" lon="-0.34052">
        <ele>44</ele>
        <time>2013-05-20T14:33:32Z</time>
      </trkpt>
      <trkpt lat="44.72319" lon="-0.3407">
        <ele>44</ele>
        <time>2013-05-20T14:33:40Z</time>
      </trkpt>
      <trkpt lat="44.72331" lon="-0.34087">
        <ele>45</ele>
        <time>2013-05-20T14:33:49Z</time>
      </trkpt>
      <trkpt lat="44.72345" lon="-0.34099">
        <ele>46</ele>
        <time>2013-05-20T14:33:57Z</time>
      </trkpt>
      <trkpt lat="44.72356" lon="-0.34104">
        <ele>47</ele>
        <time>2013-05-20T14:34:03Z</time>
      </trkpt>
      <trkpt lat="44.72372" lon="-0.34106">
        <ele>47</ele>
        <time>2013-05-20T14:34:11Z</time>
      </trkpt>
      <trkpt lat="44.72389" lon="-0.3411">
        <ele>48</ele>
        <time>2013-05-20T14:34:18Z</time>
      </trkpt>
      <trkpt lat="44.72407" lon="-0.34124">
        <ele>48</ele>
        <time>2013-05-20T14:34:25Z</time>
      </trkpt>
      <trkpt lat="44.72425" lon="-0.34143">
        <ele>48</ele>
        <time>2013-05-20T14:34:33Z</time>
      </trkpt>
      <trkpt lat="44.72438" lon="-0.34161">
        <ele>49</ele>
        <time>2013-05-20T14:34:41Z</time>
      </trkpt>
      <trkpt lat="44.72441" lon="-0.34171">
        <ele>50</ele>
        <time>2013-05-20T14:34:45Z</time>
      </trkpt>
      <trkpt lat="44.72447" lon="-0.34171">
        <ele>50</ele>
        <time>2013-05-20T14:34:50Z</time>
      </trkpt>
      <trkpt lat="44.7245" lon="-0.3417">
        <ele>50</ele>
        <time>2013-05-20T14:34:52Z</time>
      </trkpt>
      <trkpt lat="44.72454" lon="-0.34168">
        <ele>51</ele>
        <time>2013-05-20T14:34:59Z</time>
      </trkpt>
      <trkpt lat="44.72454" lon="-0.34168">
        <ele>51</ele>
        <time>2013-05-20T14:35:12Z</time>
      </trkpt>
      <trkpt lat="44.72455" lon="-0.34167">
        <ele>51</ele>
        <time>2013-05-20T14:35:23Z</time>
      </trkpt>
      <trkpt lat="44.72462" lon="-0.3416">
        <ele>51</ele>
        <time>2013-05-20T14:35:28Z</time>
      </trkpt>
      <trkpt lat="44.72469" lon="-0.34155">
        <ele>52</ele>
        <time>2013-05-20T14:35:34Z</time>
      </trkpt>
      <trkpt lat="44.72478" lon="-0.34149">
        <ele>53</ele>
        <time>2013-05-20T14:35:41Z</time>
      </trkpt>
      <trkpt lat="44.72485" lon="-0.3414">
        <ele>53</ele>
        <time>2013-05-20T14:35:48Z</time>
      </trkpt>
      <trkpt lat="44.72499" lon="-0.34132">
        <ele>54</ele>
        <time>2013-05-20T14:35:57Z</time>
      </trkpt>
      <trkpt lat="44.72511" lon="-0.34127">
        <ele>55</ele>
        <time>2013-05-20T14:36:04Z</time>
      </trkpt>
      <trkpt lat="44.7252" lon="-0.34121">
        <ele>55</ele>
        <time>2013-05-20T14:36:10Z</time>
      </trkpt>
      <trkpt lat="44.72526" lon="-0.34116">
        <ele>55</ele>
        <time>2013-05-20T14:36:14Z</time>
      </trkpt>
      <trkpt lat="44.72539" lon="-0.34109">
        <ele>55</ele>
        <time>2013-05-20T14:36:22Z</time>
      </trkpt>
      <trkpt lat="44.72542" lon="-0.34108">
        <ele>55</ele>
        <time>2013-05-20T14:36:24Z</time>
      </trkpt>
      <trkpt lat="44.72556" lon="-0.341">
        <ele>56</ele>
        <time>2013-05-20T14:36:32Z</time>
      </trkpt>
      <trkpt lat="44.72569" lon="-0.3409">
        <ele>57</ele>
        <time>2013-05-20T14:36:38Z</time>
      </trkpt>
      <trkpt lat="44.72576" lon="-0.34087">
        <ele>57</ele>
        <time>2013-05-20T14:36:41Z</time>
      </trkpt>
      <trkpt lat="44.7259" lon="-0.34079">
        <ele>57</ele>
        <time>2013-05-20T14:36:48Z</time>
      </trkpt>
      <trkpt lat="44.72599" lon="-0.34073">
        <ele>58</ele>
        <time>2013-05-20T14:36:54Z</time>
      </trkpt>
      <trkpt lat="44.72611" lon="-0.34069">
        <ele>58</ele>
        <time>2013-05-20T14:37:01Z</time>
      </trkpt>
      <trkpt lat="44.7262" lon="-0.34075">
        <ele>58</ele>
        <time>2013-05-20T14:37:07Z</time>
      </trkpt>
      <trkpt lat="44.72622" lon="-0.34078">
        <ele>58</ele>
        <time>2013-05-20T14:37:10Z</time>
      </trkpt>
      <trkpt lat="44.7263" lon="-0.34085">
        <ele>59</ele>
        <time>2013-05-20T14:37:15Z</time>
      </trkpt>
      <trkpt lat="44.72635" lon="-0.3409">
        <ele>59</ele>
        <time>2013-05-20T14:37:19Z</time>
      </trkpt>
      <trkpt lat="44.72639" lon="-0.34096">
        <ele>59</ele>
        <time>2013-05-20T14:37:23Z</time>
      </trkpt>
      <trkpt lat="44.72639" lon="-0.34105">
        <ele>59</ele>
        <time>2013-05-20T14:37:27Z</time>
      </trkpt>
      <trkpt lat="44.72638" lon="-0.34112">
        <ele>59</ele>
        <time>2013-05-20T14:37:31Z</time>
      </trkpt>
      <trkpt lat="44.72634" lon="-0.34127">
        <ele>60</ele>
        <time>2013-05-20T14:37:38Z</time>
      </trkpt>
      <trkpt lat="44.72636" lon="-0.34135">
        <ele>61</ele>
        <time>2013-05-20T14:37:44Z</time>
      </trkpt>
      <trkpt lat="44.72643" lon="-0.34141">
        <ele>61</ele>
        <time>2013-05-20T14:37:51Z</time>
      </trkpt>
      <trkpt lat="44.72651" lon="-0.3415">
        <ele>62</ele>
        <time>2013-05-20T14:37:57Z</time>
      </trkpt>
      <trkpt lat="44.72653" lon="-0.34152">
        <ele>62</ele>
        <time>2013-05-20T14:37:59Z</time>
      </trkpt>
      <trkpt lat="44.72657" lon="-0.34164">
        <ele>63</ele>
        <time>2013-05-20T14:38:05Z</time>
      </trkpt>
      <trkpt lat="44.72654" lon="-0.34173">
        <ele>63</ele>
        <time>2013-05-20T14:38:12Z</time>
      </trkpt>
      <trkpt lat="44.72654" lon="-0.34175">
        <ele>63</ele>
        <time>2013-05-20T14:38:14Z</time>
      </trkpt>
      <trkpt lat="44.72658" lon="-0.34186">
        <ele>64</ele>
        <time>2013-05-20T14:38:20Z</time>
      </trkpt>
      <trkpt lat="44.7266" lon="-0.34199">
        <ele>66</ele>
        <time>2013-05-20T14:38:27Z</time>
      </trkpt>
      <trkpt lat="44.72659" lon="-0.34205">
        <ele>66</ele>
        <time>2013-05-20T14:38:30Z</time>
      </trkpt>
      <trkpt lat="44.72658" lon="-0.3421">
        <ele>67</ele>
        <time>2013-05-20T14:38:33Z</time>
      </trkpt>
      <trkpt lat="44.7266" lon="-0.34221">
        <ele>68</ele>
        <time>2013-05-20T14:38:41Z</time>
      </trkpt>
      <trkpt lat="44.72662" lon="-0.34224">
        <ele>68</ele>
        <time>2013-05-20T14:38:43Z</time>
      </trkpt>
      <trkpt lat="44.72665" lon="-0.34229">
        <ele>69</ele>
        <time>2013-05-20T14:38:48Z</time>
      </trkpt>
      <trkpt lat="44.7267" lon="-0.34234">
        <ele>70</ele>
        <time>2013-05-20T14:38:55Z</time>
      </trkpt>
      <trkpt lat="44.7267" lon="-0.34235">
        <ele>70</ele>
        <time>2013-05-20T14:38:56Z</time>
      </trkpt>
      <trkpt lat="44.72665" lon="-0.34242">
        <ele>70</ele>
        <time>2013-05-20T14:39:03Z</time>
      </trkpt>
      <trkpt lat="44.72664" lon="-0.34246">
        <ele>71</ele>
        <time>2013-05-20T14:39:06Z</time>
      </trkpt>
      <trkpt lat="44.72663" lon="-0.34257">
        <ele>72</ele>
        <time>2013-05-20T14:39:13Z</time>
      </trkpt>
      <trkpt lat="44.72664" lon="-0.34263">
        <ele>72</ele>
        <time>2013-05-20T14:39:19Z</time>
      </trkpt>
      <trkpt lat="44.72661" lon="-0.3427">
        <ele>73</ele>
        <time>2013-05-20T14:39:25Z</time>
      </trkpt>
      <trkpt lat="44.72661" lon="-0.34272">
        <ele>73</ele>
        <time>2013-05-20T14:39:30Z</time>
      </trkpt>
      <trkpt lat="44.7266" lon="-0.34275">
        <ele>73</ele>
        <time>2013-05-20T14:39:38Z</time>
      </trkpt>
      <trkpt lat="44.72656" lon="-0.34281">
        <ele>74</ele>
        <time>2013-05-20T14:39:45Z</time>
      </trkpt>
      <trkpt lat="44.72652" lon="-0.34292">
        <ele>75</ele>
        <time>2013-05-20T14:39:53Z</time>
      </trkpt>
      <trkpt lat="44.72653" lon="-0.34297">
        <ele>76</ele>
        <time>2013-05-20T14:39:59Z</time>
      </trkpt>
      <trkpt lat="44.72653" lon="-0.343">
        <ele>76</ele>
        <time>2013-05-20T14:40:05Z</time>
      </trkpt>
      <trkpt lat="44.72653" lon="-0.34301">
        <ele>76</ele>
        <time>2013-05-20T14:40:12Z</time>
      </trkpt>
      <trkpt lat="44.72655" lon="-0.34306">
        <ele>77</ele>
        <time>2013-05-20T14:40:18Z</time>
      </trkpt>
      <trkpt lat="44.72656" lon="-0.3431">
        <ele>77</ele>
        <time>2013-05-20T14:40:25Z</time>
      </trkpt>
      <trkpt lat="44.72657" lon="-0.34312">
        <ele>77</ele>
        <time>2013-05-20T14:40:31Z</time>
      </trkpt>
      <trkpt lat="44.72657" lon="-0.34313">
        <ele>77</ele>
        <time>2013-05-20T14:40:39Z</time>
      </trkpt>
      <trkpt lat="44.72658" lon="-0.34314">
        <ele>77</ele>
        <time>2013-05-20T14:40:50Z</time>
      </trkpt>
      <trkpt lat="44.72656" lon="-0.34315">
        <ele>78</ele>
        <time>2013-05-20T14:41:05Z</time>
      </trkpt>
      <trkpt lat="44.72657" lon="-0.34316">
        <ele>78</ele>
        <time>2013-05-20T14:41:22Z</time>
      </trkpt>
      <trkpt lat="44.72657" lon="-0.34316">
        <ele>78</ele>
        <time>2013-05-20T14:41:33Z</time>
      </trkpt>
      <trkpt lat="44.72657" lon="-0.34316">
        <ele>78</ele>
        <time>2013-05-20T14:41:50Z</time>
      </trkpt>
      <trkpt lat="44.72657" lon="-0.34316">
        <ele>78</ele>
        <time>2013-05-20T14:42:07Z</time>
      </trkpt>
      <trkpt lat="44.72657" lon="-0.34316">
        <ele>78</ele>
        <time>2013-05-20T14:42:19Z</time>
      </trkpt>
      <trkpt lat="44.72657" lon="-0.34316">
        <ele>78</ele>
        <time>2013-05-20T14:42:35Z</time>
      </trkpt>
      <trkpt lat="44.72658" lon="-0.34316">
        <ele>78</ele>
        <time>2013-05-20T14:42:54Z</time>
      </trkpt>
      <trkpt lat="44.72657" lon="-0.34316">
        <ele>78</ele>
        <time>2013-05-20T14:43:03Z</time>
      </trkpt>
      <trkpt lat="44.72657" lon="-0.34316">
        <ele>78</ele>
        <time>2013-05-20T14:43:19Z</time>
      </trkpt>
      <trkpt lat="44.72657" lon="-0.34317">
        <ele>78</ele>
        <time>2013-05-20T14:43:35Z</time>
      </trkpt>
      <trkpt lat="44.72657" lon="-0.34318">
        <ele>78</ele>
        <time>2013-05-20T14:43:54Z</time>
      </trkpt>
      <trkpt lat="44.72657" lon="-0.34317">
        <ele>78</ele>
        <time>2013-05-20T14:44:07Z</time>
      </trkpt>
      <trkpt lat="44.72657" lon="-0.34317">
        <ele>78</ele>
        <time>2013-05-20T14:44:15Z</time>
      </trkpt>
      <trkpt lat="44.72657" lon="-0.34316">
        <ele>78</ele>
        <time>2013-05-20T14:44:30Z</time>
      </trkpt>
      <trkpt lat="44.72656" lon="-0.34317">
        <ele>78</ele>
        <time>2013-05-20T14:44:45Z</time>
      </trkpt>
      <trkpt lat="44.72656" lon="-0.34317">
        <ele>78</ele>
        <time>2013-05-20T14:45:06Z</time>
      </trkpt>
      <trkpt lat="44.72656" lon="-0.34316">
        <ele>78</ele>
        <time>2013-05-20T14:45:21Z</time>
      </trkpt>
      <trkpt lat="44.72657" lon="-0.34316">
        <ele>78</ele>
        <time>2013-05-20T14:45:34Z</time>
      </trkpt>
      <trkpt lat="44.72658" lon="-0.34316">
        <ele>78</ele>
        <time>2013-05-20T14:45:37Z</time>
      </trkpt>
      <trkpt lat="44.72664" lon="-0.3432">
        <ele>78</ele>
        <time>2013-05-20T14:45:43Z</time>
      </trkpt>
      <trkpt lat="44.72666" lon="-0.34328">
        <ele>79</ele>
        <time>2013-05-20T14:45:47Z</time>
      </trkpt>
      <trkpt lat="44.72677" lon="-0.34331">
        <ele>80</ele>
        <time>2013-05-20T14:45:53Z</time>
      </trkpt>
      <trkpt lat="44.72682" lon="-0.34331">
        <ele>80</ele>
        <time>2013-05-20T14:45:56Z</time>
      </trkpt>
      <trkpt lat="44.72698" lon="-0.3433">
        <ele>79</ele>
        <time>2013-05-20T14:46:03Z</time>
      </trkpt>
      <trkpt lat="44.72718" lon="-0.3433">
        <ele>80</ele>
        <time>2013-05-20T14:46:11Z</time>
      </trkpt>
      <trkpt lat="44.72737" lon="-0.3433">
        <ele>81</ele>
        <time>2013-05-20T14:46:19Z</time>
      </trkpt>
      <trkpt lat="44.72744" lon="-0.3433">
        <ele>81</ele>
        <time>2013-05-20T14:46:23Z</time>
      </trkpt>
      <trkpt lat="44.72752" lon="-0.34327">
        <ele>81</ele>
        <time>2013-05-20T14:46:30Z</time>
      </trkpt>
      <trkpt lat="44.72763" lon="-0.34329">
        <ele>82</ele>
        <time>2013-05-20T14:46:36Z</time>
      </trkpt>
      <trkpt lat="44.72776" lon="-0.34328">
        <ele>82</ele>
        <time>2013-05-20T14:46:42Z</time>
      </trkpt>
      <trkpt lat="44.72783" lon="-0.34327">
        <ele>82</ele>
        <time>2013-05-20T14:46:46Z</time>
      </trkpt>
      <trkpt lat="44.72791" lon="-0.34322">
        <ele>82</ele>
        <time>2013-05-20T14:46:52Z</time>
      </trkpt>
      <trkpt lat="44.72804" lon="-0.3432">
        <ele>81</ele>
        <time>2013-05-20T14:46:59Z</time>
      </trkpt>
      <trkpt lat="44.72816" lon="-0.34316">
        <ele>80</ele>
        <time>2013-05-20T14:47:05Z</time>
      </trkpt>
      <trkpt lat="44.72819" lon="-0.34315">
        <ele>80</ele>
        <time>2013-05-20T14:47:08Z</time>
      </trkpt>
      <trkpt lat="44.72828" lon="-0.34309">
        <ele>79</ele>
        <time>2013-05-20T14:47:14Z</time>
      </trkpt>
      <trkpt lat="44.72839" lon="-0.34303">
        <ele>79</ele>
        <time>2013-05-20T14:47:22Z</time>
      </trkpt>
      <trkpt lat="44.72841" lon="-0.34301">
        <ele>78</ele>
        <time>2013-05-20T14:47:23Z</time>
      </trkpt>
      <trkpt lat="44.72868" lon="-0.34278">
        <ele>76</ele>
        <time>2013-05-20T14:47:30Z</time>
      </trkpt>
      <trkpt lat="44.72888" lon="-0.34263">
        <ele>74</ele>
        <time>2013-05-20T14:47:34Z</time>
      </trkpt>
      <trkpt lat="44.729" lon="-0.34246">
        <ele>73</ele>
        <time>2013-05-20T14:47:38Z</time>
      </trkpt>
      <trkpt lat="44.72904" lon="-0.34235">
        <ele>73</ele>
        <time>2013-05-20T14:47:41Z</time>
      </trkpt>
      <trkpt lat="44.72919" lon="-0.3422">
        <ele>73</ele>
        <time>2013-05-20T14:47:49Z</time>
      </trkpt>
      <trkpt lat="44.72923" lon="-0.34219">
        <ele>72</ele>
        <time>2013-05-20T14:47:51Z</time>
      </trkpt>
      <trkpt lat="44.7293" lon="-0.34217">
        <ele>72</ele>
        <time>2013-05-20T14:47:55Z</time>
      </trkpt>
      <trkpt lat="44.72934" lon="-0.34219">
        <ele>72</ele>
        <time>2013-05-20T14:47:57Z</time>
      </trkpt>
      <trkpt lat="44.72949" lon="-0.34231">
        <ele>69</ele>
        <time>2013-05-20T14:48:06Z</time>
      </trkpt>
      <trkpt lat="44.72965" lon="-0.34243">
        <ele>67</ele>
        <time>2013-05-20T14:48:14Z</time>
      </trkpt>
      <trkpt lat="44.72975" lon="-0.34252">
        <ele>66</ele>
        <time>2013-05-20T14:48:20Z</time>
      </trkpt>
      <trkpt lat="44.72988" lon="-0.34257">
        <ele>64</ele>
        <time>2013-05-20T14:48:26Z</time>
      </trkpt>
      <trkpt lat="44.73002" lon="-0.3426">
        <ele>63</ele>
        <time>2013-05-20T14:48:32Z</time>
      </trkpt>
      <trkpt lat="44.73017" lon="-0.34268">
        <ele>61</ele>
        <time>2013-05-20T14:48:39Z</time>
      </trkpt>
      <trkpt lat="44.73033" lon="-0.3428">
        <ele>60</ele>
        <time>2013-05-20T14:48:46Z</time>
      </trkpt>
      <trkpt lat="44.73051" lon="-0.3428">
        <ele>59</ele>
        <time>2013-05-20T14:48:52Z</time>
      </trkpt>
      <trkpt lat="44.73074" lon="-0.34276">
        <ele>58</ele>
        <time>2013-05-20T14:49:00Z</time>
      </trkpt>
      <trkpt lat="44.73086" lon="-0.34282">
        <ele>58</ele>
        <time>2013-05-20T14:49:05Z</time>
      </trkpt>
      <trkpt lat="44.73095" lon="-0.34298">
        <ele>57</ele>
        <time>2013-05-20T14:49:11Z</time>
      </trkpt>
      <trkpt lat="44.73097" lon="-0.34312">
        <ele>57</ele>
        <time>2013-05-20T14:49:17Z</time>
      </trkpt>
      <trkpt lat="44.73098" lon="-0.34325">
        <ele>56</ele>
        <time>2013-05-20T14:49:24Z</time>
      </trkpt>
      <trkpt lat="44.73098" lon="-0.34325">
        <ele>56</ele>
        <time>2013-05-20T14:49:35Z</time>
      </trkpt>
      <trkpt lat="44.73098" lon="-0.34324">
        <ele>56</ele>
        <time>2013-05-20T14:49:46Z</time>
      </trkpt>
      <trkpt lat="44.73098" lon="-0.34324">
        <ele>56</ele>
        <time>2013-05-20T14:49:59Z</time>
      </trkpt>
      <trkpt lat="44.73098" lon="-0.34324">
        <ele>56</ele>
        <time>2013-05-20T14:50:02Z</time>
      </trkpt>
      <trkpt lat="44.73099" lon="-0.34334">
        <ele>56</ele>
        <time>2013-05-20T14:50:07Z</time>
      </trkpt>
      <trkpt lat="44.73101" lon="-0.34366">
        <ele>55</ele>
        <time>2013-05-20T14:50:16Z</time>
      </trkpt>
      <trkpt lat="44.73103" lon="-0.34401">
        <ele>55</ele>
        <time>2013-05-20T14:50:24Z</time>
      </trkpt>
      <trkpt lat="44.73107" lon="-0.34443">
        <ele>54</ele>
        <time>2013-05-20T14:50:33Z</time>
      </trkpt>
      <trkpt lat="44.73112" lon="-0.34483">
        <ele>54</ele>
        <time>2013-05-20T14:50:42Z</time>
      </trkpt>
      <trkpt lat="44.73118" lon="-0.34502">
        <ele>54</ele>
        <time>2013-05-20T14:50:49Z</time>
      </trkpt>
      <trkpt lat="44.73126" lon="-0.34514">
        <ele>55</ele>
        <time>2013-05-20T14:50:56Z</time>
      </trkpt>
      <trkpt lat="44.73131" lon="-0.34517">
        <ele>55</ele>
        <time>2013-05-20T14:51:00Z</time>
      </trkpt>
      <trkpt lat="44.73133" lon="-0.34519">
        <ele>55</ele>
        <time>2013-05-20T14:51:06Z</time>
      </trkpt>
      <trkpt lat="44.73133" lon="-0.34519">
        <ele>55</ele>
        <time>2013-05-20T14:51:17Z</time>
      </trkpt>
      <trkpt lat="44.73136" lon="-0.34523">
        <ele>55</ele>
        <time>2013-05-20T14:51:25Z</time>
      </trkpt>
      <trkpt lat="44.73136" lon="-0.34524">
        <ele>55</ele>
        <time>2013-05-20T14:51:26Z</time>
      </trkpt>
      <trkpt lat="44.73131" lon="-0.34533">
        <ele>54</ele>
        <time>2013-05-20T14:51:31Z</time>
      </trkpt>
      <trkpt lat="44.73116" lon="-0.34537">
        <ele>53</ele>
        <time>2013-05-20T14:51:39Z</time>
      </trkpt>
      <trkpt lat="44.73112" lon="-0.34535">
        <ele>52</ele>
        <time>2013-05-20T14:51:41Z</time>
      </trkpt>
      <trkpt lat="44.731" lon="-0.34539">
        <ele>51</ele>
        <time>2013-05-20T14:51:49Z</time>
      </trkpt>
      <trkpt lat="44.73097" lon="-0.34542">
        <ele>52</ele>
        <time>2013-05-20T14:51:56Z</time>
      </trkpt>
      <trkpt lat="44.73094" lon="-0.34544">
        <ele>52</ele>
        <time>2013-05-20T14:52:04Z</time>
      </trkpt>
      <trkpt lat="44.73095" lon="-0.34549">
        <ele>52</ele>
        <time>2013-05-20T14:52:09Z</time>
      </trkpt>
      <trkpt lat="44.7309" lon="-0.34559">
        <ele>52</ele>
        <time>2013-05-20T14:52:16Z</time>
      </trkpt>
      <trkpt lat="44.73089" lon="-0.34567">
        <ele>52</ele>
        <time>2013-05-20T14:52:21Z</time>
      </trkpt>
      <trkpt lat="44.73089" lon="-0.34574">
        <ele>52</ele>
        <time>2013-05-20T14:52:29Z</time>
      </trkpt>
      <trkpt lat="44.73089" lon="-0.34579">
        <ele>52</ele>
        <time>2013-05-20T14:52:36Z</time>
      </trkpt>
      <trkpt lat="44.73091" lon="-0.34582">
        <ele>51</ele>
        <time>2013-05-20T14:52:43Z</time>
      </trkpt>
      <trkpt lat="44.73091" lon="-0.34584">
        <ele>51</ele>
        <time>2013-05-20T14:52:52Z</time>
      </trkpt>
      <trkpt lat="44.73091" lon="-0.34586">
        <ele>51</ele>
        <time>2013-05-20T14:52:59Z</time>
      </trkpt>
      <trkpt lat="44.7309" lon="-0.34588">
        <ele>51</ele>
        <time>2013-05-20T14:53:06Z</time>
      </trkpt>
      <trkpt lat="44.73088" lon="-0.34596">
        <ele>52</ele>
        <time>2013-05-20T14:53:13Z</time>
      </trkpt>
      <trkpt lat="44.73088" lon="-0.34608">
        <ele>52</ele>
        <time>2013-05-20T14:53:20Z</time>
      </trkpt>
      <trkpt lat="44.73089" lon="-0.34612">
        <ele>51</ele>
        <time>2013-05-20T14:53:26Z</time>
      </trkpt>
      <trkpt lat="44.7309" lon="-0.34616">
        <ele>51</ele>
        <time>2013-05-20T14:53:32Z</time>
      </trkpt>
      <trkpt lat="44.73089" lon="-0.34618">
        <ele>51</ele>
        <time>2013-05-20T14:53:36Z</time>
      </trkpt>
      <trkpt lat="44.73081" lon="-0.34625">
        <ele>53</ele>
        <time>2013-05-20T14:53:45Z</time>
      </trkpt>
      <trkpt lat="44.73073" lon="-0.34632">
        <ele>54</ele>
        <time>2013-05-20T14:53:53Z</time>
      </trkpt>
      <trkpt lat="44.73065" lon="-0.3464">
        <ele>55</ele>
        <time>2013-05-20T14:54:01Z</time>
      </trkpt>
      <trkpt lat="44.73058" lon="-0.34644">
        <ele>55</ele>
        <time>2013-05-20T14:54:09Z</time>
      </trkpt>
      <trkpt lat="44.73052" lon="-0.34647">
        <ele>56</ele>
        <time>2013-05-20T14:54:16Z</time>
      </trkpt>
      <trkpt lat="44.73052" lon="-0.34647">
        <ele>56</ele>
        <time>2013-05-20T14:54:19Z</time>
      </trkpt>
      <trkpt lat="44.73038" lon="-0.34657">
        <ele>57</ele>
        <time>2013-05-20T14:54:29Z</time>
      </trkpt>
      <trkpt lat="44.73016" lon="-0.34667">
        <ele>59</ele>
        <time>2013-05-20T14:54:40Z</time>
      </trkpt>
      <trkpt lat="44.73002" lon="-0.34675">
        <ele>60</ele>
        <time>2013-05-20T14:54:45Z</time>
      </trkpt>
      <trkpt lat="44.72981" lon="-0.34687">
        <ele>61</ele>
        <time>2013-05-20T14:54:50Z</time>
      </trkpt>
      <trkpt lat="44.72977" lon="-0.34688">
        <ele>61</ele>
        <time>2013-05-20T14:54:51Z</time>
      </trkpt>
      <trkpt lat="44.72973" lon="-0.34688">
        <ele>61</ele>
        <time>2013-05-20T14:54:52Z</time>
      </trkpt>
      <trkpt lat="44.7297" lon="-0.34687">
        <ele>62</ele>
        <time>2013-05-20T14:54:53Z</time>
      </trkpt>
      <trkpt lat="44.72967" lon="-0.34686">
        <ele>62</ele>
        <time>2013-05-20T14:54:54Z</time>
      </trkpt>
      <trkpt lat="44.72965" lon="-0.34683">
        <ele>62</ele>
        <time>2013-05-20T14:54:55Z</time>
      </trkpt>
      <trkpt lat="44.72963" lon="-0.34681">
        <ele>62</ele>
        <time>2013-05-20T14:54:56Z</time>
      </trkpt>
      <trkpt lat="44.72961" lon="-0.3468">
        <ele>63</ele>
        <time>2013-05-20T14:54:57Z</time>
      </trkpt>
      <trkpt lat="44.72959" lon="-0.34679">
        <ele>63</ele>
        <time>2013-05-20T14:54:58Z</time>
      </trkpt>
      <trkpt lat="44.72958" lon="-0.34678">
        <ele>63</ele>
        <time>2013-05-20T14:54:59Z</time>
      </trkpt>
      <trkpt lat="44.72957" lon="-0.34678">
        <ele>63</ele>
        <time>2013-05-20T14:55:00Z</time>
      </trkpt>
      <trkpt lat="44.72955" lon="-0.34676">
        <ele>63</ele>
        <time>2013-05-20T14:55:01Z</time>
      </trkpt>
      <trkpt lat="44.72954" lon="-0.34675">
        <ele>64</ele>
        <time>2013-05-20T14:55:02Z</time>
      </trkpt>
      <trkpt lat="44.72952" lon="-0.34674">
        <ele>64</ele>
        <time>2013-05-20T14:55:03Z</time>
      </trkpt>
      <trkpt lat="44.72951" lon="-0.34672">
        <ele>64</ele>
        <time>2013-05-20T14:55:04Z</time>
      </trkpt>
      <trkpt lat="44.72949" lon="-0.34672">
        <ele>64</ele>
        <time>2013-05-20T14:55:05Z</time>
      </trkpt>
      <trkpt lat="44.72948" lon="-0.34671">
        <ele>64</ele>
        <time>2013-05-20T14:55:06Z</time>
      </trkpt>
      <trkpt lat="44.72946" lon="-0.3467">
        <ele>65</ele>
        <time>2013-05-20T14:55:07Z</time>
      </trkpt>
      <trkpt lat="44.72945" lon="-0.34669">
        <ele>65</ele>
        <time>2013-05-20T14:55:08Z</time>
      </trkpt>
      <trkpt lat="44.72935" lon="-0.3466">
        <ele>66</ele>
        <time>2013-05-20T14:55:16Z</time>
      </trkpt>
      <trkpt lat="44.72934" lon="-0.34659">
        <ele>66</ele>
        <time>2013-05-20T14:55:17Z</time>
      </trkpt>
      <trkpt lat="44.72933" lon="-0.34658">
        <ele>66</ele>
        <time>2013-05-20T14:55:18Z</time>
      </trkpt>
      <trkpt lat="44.72931" lon="-0.34657">
        <ele>66</ele>
        <time>2013-05-20T14:55:19Z</time>
      </trkpt>
      <trkpt lat="44.7293" lon="-0.34657">
        <ele>67</ele>
        <time>2013-05-20T14:55:20Z</time>
      </trkpt>
      <trkpt lat="44.72929" lon="-0.34656">
        <ele>67</ele>
        <time>2013-05-20T14:55:21Z</time>
      </trkpt>
      <trkpt lat="44.72928" lon="-0.34655">
        <ele>67</ele>
        <time>2013-05-20T14:55:22Z</time>
      </trkpt>
      <trkpt lat="44.72927" lon="-0.34654">
        <ele>67</ele>
        <time>2013-05-20T14:55:23Z</time>
      </trkpt>
      <trkpt lat="44.72926" lon="-0.34652">
        <ele>67</ele>
        <time>2013-05-20T14:55:24Z</time>
      </trkpt>
      <trkpt lat="44.72924" lon="-0.34651">
        <ele>67</ele>
        <time>2013-05-20T14:55:25Z</time>
      </trkpt>
      <trkpt lat="44.72923" lon="-0.3465">
        <ele>67</ele>
        <time>2013-05-20T14:55:26Z</time>
      </trkpt>
      <trkpt lat="44.72923" lon="-0.34649">
        <ele>68</ele>
        <time>2013-05-20T14:55:27Z</time>
      </trkpt>
      <trkpt lat="44.72922" lon="-0.34648">
        <ele>68</ele>
        <time>2013-05-20T14:55:28Z</time>
      </trkpt>
      <trkpt lat="44.72921" lon="-0.34647">
        <ele>68</ele>
        <time>2013-05-20T14:55:29Z</time>
      </trkpt>
      <trkpt lat="44.72919" lon="-0.34646">
        <ele>68</ele>
        <time>2013-05-20T14:55:30Z</time>
      </trkpt>
      <trkpt lat="44.72918" lon="-0.34645">
        <ele>68</ele>
        <time>2013-05-20T14:55:31Z</time>
      </trkpt>
      <trkpt lat="44.72917" lon="-0.34645">
        <ele>68</ele>
        <time>2013-05-20T14:55:32Z</time>
      </trkpt>
      <trkpt lat="44.72916" lon="-0.34643">
        <ele>68</ele>
        <time>2013-05-20T14:55:33Z</time>
      </trkpt>
      <trkpt lat="44.72915" lon="-0.34642">
        <ele>68</ele>
        <time>2013-05-20T14:55:34Z</time>
      </trkpt>
      <trkpt lat="44.72914" lon="-0.3464">
        <ele>68</ele>
        <time>2013-05-20T14:55:35Z</time>
      </trkpt>
      <trkpt lat="44.72913" lon="-0.34639">
        <ele>68</ele>
        <time>2013-05-20T14:55:36Z</time>
      </trkpt>
      <trkpt lat="44.72912" lon="-0.34637">
        <ele>68</ele>
        <time>2013-05-20T14:55:37Z</time>
      </trkpt>
      <trkpt lat="44.72907" lon="-0.34623">
        <ele>69</ele>
        <time>2013-05-20T14:55:45Z</time>
      </trkpt>
      <trkpt lat="44.72902" lon="-0.34609">
        <ele>69</ele>
        <time>2013-05-20T14:55:53Z</time>
      </trkpt>
      <trkpt lat="44.72897" lon="-0.34595">
        <ele>70</ele>
        <time>2013-05-20T14:56:00Z</time>
      </trkpt>
      <trkpt lat="44.72892" lon="-0.34585">
        <ele>70</ele>
        <time>2013-05-20T14:56:05Z</time>
      </trkpt>
      <trkpt lat="44.72891" lon="-0.34584">
        <ele>70</ele>
        <time>2013-05-20T14:56:06Z</time>
      </trkpt>
      <trkpt lat="44.72889" lon="-0.34582">
        <ele>70</ele>
        <time>2013-05-20T14:56:07Z</time>
      </trkpt>
      <trkpt lat="44.72888" lon="-0.3458">
        <ele>70</ele>
        <time>2013-05-20T14:56:08Z</time>
      </trkpt>
      <trkpt lat="44.72887" lon="-0.34578">
        <ele>71</ele>
        <time>2013-05-20T14:56:09Z</time>
      </trkpt>
      <trkpt lat="44.72886" lon="-0.34576">
        <ele>71</ele>
        <time>2013-05-20T14:56:10Z</time>
      </trkpt>
      <trkpt lat="44.72884" lon="-0.34574">
        <ele>71</ele>
        <time>2013-05-20T14:56:11Z</time>
      </trkpt>
      <trkpt lat="44.72874" lon="-0.34563">
        <ele>72</ele>
        <time>2013-05-20T14:56:19Z</time>
      </trkpt>
      <trkpt lat="44.72866" lon="-0.34548">
        <ele>72</ele>
        <time>2013-05-20T14:56:27Z</time>
      </trkpt>
      <trkpt lat="44.72853" lon="-0.34525">
        <ele>73</ele>
        <time>2013-05-20T14:56:37Z</time>
      </trkpt>
      <trkpt lat="44.72844" lon="-0.34511">
        <ele>74</ele>
        <time>2013-05-20T14:56:44Z</time>
      </trkpt>
      <trkpt lat="44.72828" lon="-0.34503">
        <ele>76</ele>
        <time>2013-05-20T14:56:53Z</time>
      </trkpt>
      <trkpt lat="44.72817" lon="-0.3451">
        <ele>77</ele>
        <time>2013-05-20T14:56:59Z</time>
      </trkpt>
      <trkpt lat="44.72804" lon="-0.34523">
        <ele>77</ele>
        <time>2013-05-20T14:57:07Z</time>
      </trkpt>
      <trkpt lat="44.72794" lon="-0.34533">
        <ele>77</ele>
        <time>2013-05-20T14:57:14Z</time>
      </trkpt>
      <trkpt lat="44.72792" lon="-0.34534">
        <ele>77</ele>
        <time>2013-05-20T14:57:15Z</time>
      </trkpt>
      <trkpt lat="44.7279" lon="-0.34535">
        <ele>77</ele>
        <time>2013-05-20T14:57:16Z</time>
      </trkpt>
      <trkpt lat="44.72789" lon="-0.34536">
        <ele>77</ele>
        <time>2013-05-20T14:57:17Z</time>
      </trkpt>
      <trkpt lat="44.72787" lon="-0.34537">
        <ele>77</ele>
        <time>2013-05-20T14:57:18Z</time>
      </trkpt>
      <trkpt lat="44.72785" lon="-0.34539">
        <ele>77</ele>
        <time>2013-05-20T14:57:19Z</time>
      </trkpt>
      <trkpt lat="44.72784" lon="-0.3454">
        <ele>77</ele>
        <time>2013-05-20T14:57:20Z</time>
      </trkpt>
      <trkpt lat="44.72774" lon="-0.34548">
        <ele>78</ele>
        <time>2013-05-20T14:57:27Z</time>
      </trkpt>
      <trkpt lat="44.72773" lon="-0.3455">
        <ele>78</ele>
        <time>2013-05-20T14:57:28Z</time>
      </trkpt>
      <trkpt lat="44.72773" lon="-0.34552">
        <ele>78</ele>
        <time>2013-05-20T14:57:29Z</time>
      </trkpt>
      <trkpt lat="44.72772" lon="-0.34554">
        <ele>77</ele>
        <time>2013-05-20T14:57:30Z</time>
      </trkpt>
      <trkpt lat="44.72771" lon="-0.34556">
        <ele>77</ele>
        <time>2013-05-20T14:57:31Z</time>
      </trkpt>
      <trkpt lat="44.7277" lon="-0.34558">
        <ele>77</ele>
        <time>2013-05-20T14:57:32Z</time>
      </trkpt>
      <trkpt lat="44.72768" lon="-0.3456">
        <ele>77</ele>
        <time>2013-05-20T14:57:33Z</time>
      </trkpt>
      <trkpt lat="44.72767" lon="-0.34561">
        <ele>77</ele>
        <time>2013-05-20T14:57:34Z</time>
      </trkpt>
      <trkpt lat="44.72765" lon="-0.34562">
        <ele>77</ele>
        <time>2013-05-20T14:57:35Z</time>
      </trkpt>
      <trkpt lat="44.72764" lon="-0.34564">
        <ele>77</ele>
        <time>2013-05-20T14:57:36Z</time>
      </trkpt>
      <trkpt lat="44.72762" lon="-0.34566">
        <ele>77</ele>
        <time>2013-05-20T14:57:37Z</time>
      </trkpt>
      <trkpt lat="44.72761" lon="-0.34567">
        <ele>77</ele>
        <time>2013-05-20T14:57:38Z</time>
      </trkpt>
      <trkpt lat="44.72746" lon="-0.34581">
        <ele>77</ele>
        <time>2013-05-20T14:57:47Z</time>
      </trkpt>
      <trkpt lat="44.72729" lon="-0.34597">
        <ele>78</ele>
        <time>2013-05-20T14:57:57Z</time>
      </trkpt>
      <trkpt lat="44.72711" lon="-0.34613">
        <ele>78</ele>
        <time>2013-05-20T14:58:05Z</time>
      </trkpt>
      <trkpt lat="44.72698" lon="-0.34627">
        <ele>79</ele>
        <time>2013-05-20T14:58:12Z</time>
      </trkpt>
      <trkpt lat="44.72686" lon="-0.34643">
        <ele>78</ele>
        <time>2013-05-20T14:58:20Z</time>
      </trkpt>
      <trkpt lat="44.72671" lon="-0.34668">
        <ele>77</ele>
        <time>2013-05-20T14:58:29Z</time>
      </trkpt>
      <trkpt lat="44.72652" lon="-0.34699">
        <ele>75</ele>
        <time>2013-05-20T14:58:37Z</time>
      </trkpt>
      <trkpt lat="44.72639" lon="-0.34719">
        <ele>74</ele>
        <time>2013-05-20T14:58:42Z</time>
      </trkpt>
      <trkpt lat="44.72636" lon="-0.34724">
        <ele>73</ele>
        <time>2013-05-20T14:58:43Z</time>
      </trkpt>
      <trkpt lat="44.72623" lon="-0.34741">
        <ele>72</ele>
        <time>2013-05-20T14:58:47Z</time>
      </trkpt>
      <trkpt lat="44.72607" lon="-0.34766">
        <ele>70</ele>
        <time>2013-05-20T14:58:52Z</time>
      </trkpt>
      <trkpt lat="44.72584" lon="-0.34799">
        <ele>66</ele>
        <time>2013-05-20T14:59:00Z</time>
      </trkpt>
      <trkpt lat="44.72569" lon="-0.3481">
        <ele>65</ele>
        <time>2013-05-20T14:59:07Z</time>
      </trkpt>
      <trkpt lat="44.72562" lon="-0.34808">
        <ele>65</ele>
        <time>2013-05-20T14:59:12Z</time>
      </trkpt>
      <trkpt lat="44.72561" lon="-0.34808">
        <ele>66</ele>
        <time>2013-05-20T14:59:13Z</time>
      </trkpt>
      <trkpt lat="44.72559" lon="-0.34808">
        <ele>66</ele>
        <time>2013-05-20T14:59:14Z</time>
      </trkpt>
      <trkpt lat="44.72558" lon="-0.34809">
        <ele>65</ele>
        <time>2013-05-20T14:59:15Z</time>
      </trkpt>
      <trkpt lat="44.72558" lon="-0.34807">
        <ele>66</ele>
        <time>2013-05-20T14:59:20Z</time>
      </trkpt>
      <trkpt lat="44.72558" lon="-0.34807">
        <ele>66</ele>
        <time>2013-05-20T14:59:29Z</time>
      </trkpt>
      <trkpt lat="44.72558" lon="-0.34807">
        <ele>66</ele>
        <time>2013-05-20T14:59:49Z</time>
      </trkpt>
      <trkpt lat="44.72559" lon="-0.34807">
        <ele>66</ele>
        <time>2013-05-20T15:00:09Z</time>
      </trkpt>
      <trkpt lat="44.72559" lon="-0.34807">
        <ele>66</ele>
        <time>2013-05-20T15:00:32Z</time>
      </trkpt>
      <trkpt lat="44.72559" lon="-0.34807">
        <ele>66</ele>
        <time>2013-05-20T15:00:57Z</time>
      </trkpt>
      <trkpt lat="44.72558" lon="-0.34809">
        <ele>66</ele>
        <time>2013-05-20T15:01:04Z</time>
      </trkpt>
      <trkpt lat="44.72558" lon="-0.34808">
        <ele>66</ele>
        <time>2013-05-20T15:01:14Z</time>
      </trkpt>
      <trkpt lat="44.72558" lon="-0.34809">
        <ele>66</ele>
        <time>2013-05-20T15:01:28Z</time>
      </trkpt>
      <trkpt lat="44.72558" lon="-0.34809">
        <ele>66</ele>
        <time>2013-05-20T15:01:33Z</time>
      </trkpt>
      <trkpt lat="44.72557" lon="-0.34809">
        <ele>66</ele>
        <time>2013-05-20T15:01:43Z</time>
      </trkpt>
      <trkpt lat="44.72556" lon="-0.34811">
        <ele>65</ele>
        <time>2013-05-20T15:01:51Z</time>
      </trkpt>
      <trkpt lat="44.72555" lon="-0.34812">
        <ele>65</ele>
        <time>2013-05-20T15:01:56Z</time>
      </trkpt>
      <trkpt lat="44.72556" lon="-0.34812">
        <ele>65</ele>
        <time>2013-05-20T15:02:05Z</time>
      </trkpt>
      <trkpt lat="44.72556" lon="-0.34812">
        <ele>65</ele>
        <time>2013-05-20T15:02:10Z</time>
      </trkpt>
      <trkpt lat="44.72553" lon="-0.34813">
        <ele>65</ele>
        <time>2013-05-20T15:02:20Z</time>
      </trkpt>
      <trkpt lat="44.72545" lon="-0.34826">
        <ele>64</ele>
        <time>2013-05-20T15:02:25Z</time>
      </trkpt>
      <trkpt lat="44.72527" lon="-0.34854">
        <ele>62</ele>
        <time>2013-05-20T15:02:32Z</time>
      </trkpt>
      <trkpt lat="44.72512" lon="-0.34881">
        <ele>60</ele>
        <time>2013-05-20T15:02:39Z</time>
      </trkpt>
      <trkpt lat="44.7249" lon="-0.34918">
        <ele>57</ele>
        <time>2013-05-20T15:02:48Z</time>
      </trkpt>
      <trkpt lat="44.72484" lon="-0.34937">
        <ele>56</ele>
        <time>2013-05-20T15:02:53Z</time>
      </trkpt>
      <trkpt lat="44.72483" lon="-0.34939">
        <ele>56</ele>
        <time>2013-05-20T15:02:54Z</time>
      </trkpt>
      <trkpt lat="44.72472" lon="-0.34954">
        <ele>55</ele>
        <time>2013-05-20T15:03:03Z</time>
      </trkpt>
      <trkpt lat="44.72461" lon="-0.34978">
        <ele>54</ele>
        <time>2013-05-20T15:03:10Z</time>
      </trkpt>
      <trkpt lat="44.72445" lon="-0.35005">
        <ele>52</ele>
        <time>2013-05-20T15:03:18Z</time>
      </trkpt>
      <trkpt lat="44.72433" lon="-0.35025">
        <ele>51</ele>
        <time>2013-05-20T15:03:23Z</time>
      </trkpt>
      <trkpt lat="44.72416" lon="-0.35052">
        <ele>50</ele>
        <time>2013-05-20T15:03:31Z</time>
      </trkpt>
      <trkpt lat="44.72398" lon="-0.35082">
        <ele>47</ele>
        <time>2013-05-20T15:03:40Z</time>
      </trkpt>
      <trkpt lat="44.72387" lon="-0.35099">
        <ele>46</ele>
        <time>2013-05-20T15:03:47Z</time>
      </trkpt>
      <trkpt lat="44.72367" lon="-0.35115">
        <ele>45</ele>
        <time>2013-05-20T15:03:55Z</time>
      </trkpt>
      <trkpt lat="44.7235" lon="-0.35125">
        <ele>42</ele>
        <time>2013-05-20T15:04:01Z</time>
      </trkpt>
      <trkpt lat="44.72343" lon="-0.3514">
        <ele>40</ele>
        <time>2013-05-20T15:04:06Z</time>
      </trkpt>
      <trkpt lat="44.72342" lon="-0.35143">
        <ele>39</ele>
        <time>2013-05-20T15:04:07Z</time>
      </trkpt>
      <trkpt lat="44.72332" lon="-0.3516">
        <ele>38</ele>
        <time>2013-05-20T15:04:13Z</time>
      </trkpt>
      <trkpt lat="44.72322" lon="-0.35171">
        <ele>37</ele>
        <time>2013-05-20T15:04:20Z</time>
      </trkpt>
      <trkpt lat="44.72321" lon="-0.35173">
        <ele>36</ele>
        <time>2013-05-20T15:04:22Z</time>
      </trkpt>
      <trkpt lat="44.72329" lon="-0.35173">
        <ele>36</ele>
        <time>2013-05-20T15:04:26Z</time>
      </trkpt>
      <trkpt lat="44.72338" lon="-0.35174">
        <ele>36</ele>
        <time>2013-05-20T15:04:30Z</time>
      </trkpt>
      <trkpt lat="44.72343" lon="-0.35179">
        <ele>35</ele>
        <time>2013-05-20T15:04:34Z</time>
      </trkpt>
      <trkpt lat="44.72359" lon="-0.35176">
        <ele>35</ele>
        <time>2013-05-20T15:04:41Z</time>
      </trkpt>
      <trkpt lat="44.72375" lon="-0.35174">
        <ele>34</ele>
        <time>2013-05-20T15:04:48Z</time>
      </trkpt>
      <trkpt lat="44.72392" lon="-0.35177">
        <ele>32</ele>
        <time>2013-05-20T15:04:55Z</time>
      </trkpt>
      <trkpt lat="44.72406" lon="-0.35176">
        <ele>30</ele>
        <time>2013-05-20T15:04:59Z</time>
      </trkpt>
      <trkpt lat="44.72412" lon="-0.35181">
        <ele>30</ele>
        <time>2013-05-20T15:05:04Z</time>
      </trkpt>
      <trkpt lat="44.72414" lon="-0.35183">
        <ele>30</ele>
        <time>2013-05-20T15:05:15Z</time>
      </trkpt>
      <trkpt lat="44.72415" lon="-0.35183">
        <ele>30</ele>
        <time>2013-05-20T15:05:21Z</time>
      </trkpt>
      <trkpt lat="44.72416" lon="-0.35183">
        <ele>30</ele>
        <time>2013-05-20T15:05:30Z</time>
      </trkpt>
      <trkpt lat="44.72416" lon="-0.35184">
        <ele>30</ele>
        <time>2013-05-20T15:05:43Z</time>
      </trkpt>
      <trkpt lat="44.72417" lon="-0.35184">
        <ele>30</ele>
        <time>2013-05-20T15:05:54Z</time>
      </trkpt>
      <trkpt lat="44.72418" lon="-0.35186">
        <ele>29</ele>
        <time>2013-05-20T15:06:01Z</time>
      </trkpt>
      <trkpt lat="44.72418" lon="-0.35188">
        <ele>29</ele>
        <time>2013-05-20T15:06:07Z</time>
      </trkpt>
      <trkpt lat="44.72421" lon="-0.3519">
        <ele>29</ele>
        <time>2013-05-20T15:06:13Z</time>
      </trkpt>
      <trkpt lat="44.72425" lon="-0.3519">
        <ele>29</ele>
        <time>2013-05-20T15:06:20Z</time>
      </trkpt>
      <trkpt lat="44.72428" lon="-0.35195">
        <ele>29</ele>
        <time>2013-05-20T15:06:27Z</time>
      </trkpt>
      <trkpt lat="44.72433" lon="-0.35199">
        <ele>29</ele>
        <time>2013-05-20T15:06:31Z</time>
      </trkpt>
      <trkpt lat="44.72442" lon="-0.35214">
        <ele>29</ele>
        <time>2013-05-20T15:06:39Z</time>
      </trkpt>
      <trkpt lat="44.72451" lon="-0.35234">
        <ele>28</ele>
        <time>2013-05-20T15:06:46Z</time>
      </trkpt>
      <trkpt lat="44.7246" lon="-0.35258">
        <ele>29</ele>
        <time>2013-05-20T15:06:54Z</time>
      </trkpt>
      <trkpt lat="44.72463" lon="-0.35273">
        <ele>31</ele>
        <time>2013-05-20T15:06:59Z</time>
      </trkpt>
      <trkpt lat="44.72465" lon="-0.35291">
        <ele>32</ele>
        <time>2013-05-20T15:07:08Z</time>
      </trkpt>
      <trkpt lat="44.72466" lon="-0.35296">
        <ele>32</ele>
        <time>2013-05-20T15:07:15Z</time>
      </trkpt>
      <trkpt lat="44.72466" lon="-0.35296">
        <ele>32</ele>
        <time>2013-05-20T15:07:26Z</time>
      </trkpt>
      <trkpt lat="44.72466" lon="-0.35296">
        <ele>32</ele>
        <time>2013-05-20T15:07:33Z</time>
      </trkpt>
      <trkpt lat="44.72466" lon="-0.35297">
        <ele>32</ele>
        <time>2013-05-20T15:07:40Z</time>
      </trkpt>
      <trkpt lat="44.72466" lon="-0.35298">
        <ele>32</ele>
        <time>2013-05-20T15:07:49Z</time>
      </trkpt>
      <trkpt lat="44.72467" lon="-0.35298">
        <ele>32</ele>
        <time>2013-05-20T15:07:50Z</time>
      </trkpt>
      <trkpt lat="44.72468" lon="-0.35303">
        <ele>33</ele>
        <time>2013-05-20T15:07:54Z</time>
      </trkpt>
      <trkpt lat="44.72471" lon="-0.35311">
        <ele>34</ele>
        <time>2013-05-20T15:07:59Z</time>
      </trkpt>
      <trkpt lat="44.72472" lon="-0.35314">
        <ele>34</ele>
        <time>2013-05-20T15:08:01Z</time>
      </trkpt>
      <trkpt lat="44.72477" lon="-0.35326">
        <ele>35</ele>
        <time>2013-05-20T15:08:06Z</time>
      </trkpt>
      <trkpt lat="44.7248" lon="-0.35337">
        <ele>36</ele>
        <time>2013-05-20T15:08:10Z</time>
      </trkpt>
      <trkpt lat="44.72483" lon="-0.35347">
        <ele>36</ele>
        <time>2013-05-20T15:08:13Z</time>
      </trkpt>
      <trkpt lat="44.72487" lon="-0.35354">
        <ele>36</ele>
        <time>2013-05-20T15:08:16Z</time>
      </trkpt>
      <trkpt lat="44.72492" lon="-0.35375">
        <ele>37</ele>
        <time>2013-05-20T15:08:24Z</time>
      </trkpt>
      <trkpt lat="44.72495" lon="-0.35381">
        <ele>38</ele>
        <time>2013-05-20T15:08:27Z</time>
      </trkpt>
      <trkpt lat="44.725" lon="-0.35388">
        <ele>39</ele>
        <time>2013-05-20T15:08:31Z</time>
      </trkpt>
      <trkpt lat="44.72502" lon="-0.35395">
        <ele>41</ele>
        <time>2013-05-20T15:08:34Z</time>
      </trkpt>
      <trkpt lat="44.72508" lon="-0.35405">
        <ele>42</ele>
        <time>2013-05-20T15:08:40Z</time>
      </trkpt>
      <trkpt lat="44.72511" lon="-0.35409">
        <ele>43</ele>
        <time>2013-05-20T15:08:43Z</time>
      </trkpt>
      <trkpt lat="44.72522" lon="-0.35418">
        <ele>44</ele>
        <time>2013-05-20T15:08:51Z</time>
      </trkpt>
      <trkpt lat="44.72531" lon="-0.35418">
        <ele>43</ele>
        <time>2013-05-20T15:08:59Z</time>
      </trkpt>
      <trkpt lat="44.72532" lon="-0.35419">
        <ele>43</ele>
        <time>2013-05-20T15:09:05Z</time>
      </trkpt>
      <trkpt lat="44.72533" lon="-0.35418">
        <ele>43</ele>
        <time>2013-05-20T15:09:07Z</time>
      </trkpt>
      <trkpt lat="44.72537" lon="-0.35417">
        <ele>43</ele>
        <time>2013-05-20T15:09:10Z</time>
      </trkpt>
      <trkpt lat="44.72548" lon="-0.35407">
        <ele>45</ele>
        <time>2013-05-20T15:09:15Z</time>
      </trkpt>
      <trkpt lat="44.72552" lon="-0.35397">
        <ele>45</ele>
        <time>2013-05-20T15:09:22Z</time>
      </trkpt>
      <trkpt lat="44.72558" lon="-0.35389">
        <ele>46</ele>
        <time>2013-05-20T15:09:28Z</time>
      </trkpt>
      <trkpt lat="44.72562" lon="-0.35384">
        <ele>47</ele>
        <time>2013-05-20T15:09:35Z</time>
      </trkpt>
      <trkpt lat="44.72563" lon="-0.35385">
        <ele>47</ele>
        <time>2013-05-20T15:09:42Z</time>
      </trkpt>
      <trkpt lat="44.72564" lon="-0.35384">
        <ele>47</ele>
        <time>2013-05-20T15:09:48Z</time>
      </trkpt>
      <trkpt lat="44.72565" lon="-0.35383">
        <ele>47</ele>
        <time>2013-05-20T15:09:58Z</time>
      </trkpt>
      <trkpt lat="44.72566" lon="-0.35382">
        <ele>48</ele>
        <time>2013-05-20T15:10:06Z</time>
      </trkpt>
      <trkpt lat="44.72567" lon="-0.35382">
        <ele>48</ele>
        <time>2013-05-20T15:10:07Z</time>
      </trkpt>
      <trkpt lat="44.72577" lon="-0.3538">
        <ele>49</ele>
        <time>2013-05-20T15:10:14Z</time>
      </trkpt>
      <trkpt lat="44.72579" lon="-0.3538">
        <ele>50</ele>
        <time>2013-05-20T15:10:15Z</time>
      </trkpt>
      <trkpt lat="44.72594" lon="-0.35376">
        <ele>51</ele>
        <time>2013-05-20T15:10:25Z</time>
      </trkpt>
      <trkpt lat="44.72596" lon="-0.35376">
        <ele>52</ele>
        <time>2013-05-20T15:10:26Z</time>
      </trkpt>
      <trkpt lat="44.72611" lon="-0.35372">
        <ele>53</ele>
        <time>2013-05-20T15:10:35Z</time>
      </trkpt>
      <trkpt lat="44.72626" lon="-0.35368">
        <ele>54</ele>
        <time>2013-05-20T15:10:43Z</time>
      </trkpt>
      <trkpt lat="44.72643" lon="-0.35366">
        <ele>55</ele>
        <time>2013-05-20T15:10:52Z</time>
      </trkpt>
      <trkpt lat="44.72653" lon="-0.35364">
        <ele>56</ele>
        <time>2013-05-20T15:10:58Z</time>
      </trkpt>
      <trkpt lat="44.72658" lon="-0.35368">
        <ele>56</ele>
        <time>2013-05-20T15:11:05Z</time>
      </trkpt>
      <trkpt lat="44.72659" lon="-0.35364">
        <ele>56</ele>
        <time>2013-05-20T15:11:13Z</time>
      </trkpt>
      <trkpt lat="44.7266" lon="-0.35364">
        <ele>56</ele>
        <time>2013-05-20T15:11:19Z</time>
      </trkpt>
      <trkpt lat="44.7266" lon="-0.35364">
        <ele>56</ele>
        <time>2013-05-20T15:11:31Z</time>
      </trkpt>
      <trkpt lat="44.72662" lon="-0.35361">
        <ele>56</ele>
        <time>2013-05-20T15:11:36Z</time>
      </trkpt>
      <trkpt lat="44.72662" lon="-0.35361">
        <ele>56</ele>
        <time>2013-05-20T15:11:45Z</time>
      </trkpt>
      <trkpt lat="44.72664" lon="-0.3536">
        <ele>57</ele>
        <time>2013-05-20T15:11:51Z</time>
      </trkpt>
      <trkpt lat="44.72663" lon="-0.3536">
        <ele>57</ele>
        <time>2013-05-20T15:12:00Z</time>
      </trkpt>
      <trkpt lat="44.72663" lon="-0.3536">
        <ele>57</ele>
        <time>2013-05-20T15:12:04Z</time>
      </trkpt>
      <trkpt lat="44.72664" lon="-0.35374">
        <ele>57</ele>
        <time>2013-05-20T15:12:10Z</time>
      </trkpt>
      <trkpt lat="44.72673" lon="-0.35396">
        <ele>57</ele>
        <time>2013-05-20T15:12:19Z</time>
      </trkpt>
      <trkpt lat="44.72682" lon="-0.35416">
        <ele>57</ele>
        <time>2013-05-20T15:12:28Z</time>
      </trkpt>
      <trkpt lat="44.72689" lon="-0.35432">
        <ele>56</ele>
        <time>2013-05-20T15:12:34Z</time>
      </trkpt>
      <trkpt lat="44.72699" lon="-0.35431">
        <ele>57</ele>
        <time>2013-05-20T15:12:40Z</time>
      </trkpt>
      <trkpt lat="44.72711" lon="-0.35425">
        <ele>58</ele>
        <time>2013-05-20T15:12:48Z</time>
      </trkpt>
      <trkpt lat="44.72723" lon="-0.35418">
        <ele>59</ele>
        <time>2013-05-20T15:12:56Z</time>
      </trkpt>
      <trkpt lat="44.72738" lon="-0.35411">
        <ele>60</ele>
        <time>2013-05-20T15:13:06Z</time>
      </trkpt>
      <trkpt lat="44.7275" lon="-0.35404">
        <ele>61</ele>
        <time>2013-05-20T15:13:14Z</time>
      </trkpt>
      <trkpt lat="44.72754" lon="-0.35402">
        <ele>61</ele>
        <time>2013-05-20T15:13:17Z</time>
      </trkpt>
      <trkpt lat="44.72767" lon="-0.35396">
        <ele>62</ele>
        <time>2013-05-20T15:13:26Z</time>
      </trkpt>
      <trkpt lat="44.72771" lon="-0.35393">
        <ele>62</ele>
        <time>2013-05-20T15:13:29Z</time>
      </trkpt>
      <trkpt lat="44.72774" lon="-0.35392">
        <ele>62</ele>
        <time>2013-05-20T15:13:34Z</time>
      </trkpt>
      <trkpt lat="44.7278" lon="-0.35402">
        <ele>62</ele>
        <time>2013-05-20T15:13:41Z</time>
      </trkpt>
      <trkpt lat="44.72782" lon="-0.35405">
        <ele>63</ele>
        <time>2013-05-20T15:13:48Z</time>
      </trkpt>
      <trkpt lat="44.72782" lon="-0.35405">
        <ele>63</ele>
        <time>2013-05-20T15:13:51Z</time>
      </trkpt>
      <trkpt lat="44.72784" lon="-0.3541">
        <ele>63</ele>
        <time>2013-05-20T15:13:55Z</time>
      </trkpt>
      <trkpt lat="44.72788" lon="-0.35429">
        <ele>63</ele>
        <time>2013-05-20T15:14:04Z</time>
      </trkpt>
      <trkpt lat="44.72791" lon="-0.35445">
        <ele>64</ele>
        <time>2013-05-20T15:14:11Z</time>
      </trkpt>
      <trkpt lat="44.72794" lon="-0.35451">
        <ele>64</ele>
        <time>2013-05-20T15:14:14Z</time>
      </trkpt>
      <trkpt lat="44.72798" lon="-0.35461">
        <ele>65</ele>
        <time>2013-05-20T15:14:19Z</time>
      </trkpt>
      <trkpt lat="44.72802" lon="-0.3548">
        <ele>65</ele>
        <time>2013-05-20T15:14:28Z</time>
      </trkpt>
      <trkpt lat="44.72805" lon="-0.35494">
        <ele>66</ele>
        <time>2013-05-20T15:14:35Z</time>
      </trkpt>
      <trkpt lat="44.72811" lon="-0.3551">
        <ele>66</ele>
        <time>2013-05-20T15:14:44Z</time>
      </trkpt>
      <trkpt lat="44.72816" lon="-0.35521">
        <ele>67</ele>
        <time>2013-05-20T15:14:50Z</time>
      </trkpt>
      <trkpt lat="44.7282" lon="-0.35533">
        <ele>68</ele>
        <time>2013-05-20T15:14:57Z</time>
      </trkpt>
      <trkpt lat="44.72823" lon="-0.3554">
        <ele>68</ele>
        <time>2013-05-20T15:15:01Z</time>
      </trkpt>
      <trkpt lat="44.72827" lon="-0.35549">
        <ele>69</ele>
        <time>2013-05-20T15:15:06Z</time>
      </trkpt>
      <trkpt lat="44.72833" lon="-0.35563">
        <ele>69</ele>
        <time>2013-05-20T15:15:14Z</time>
      </trkpt>
      <trkpt lat="44.72837" lon="-0.35583">
        <ele>70</ele>
        <time>2013-05-20T15:15:24Z</time>
      </trkpt>
      <trkpt lat="44.72843" lon="-0.35597">
        <ele>70</ele>
        <time>2013-05-20T15:15:31Z</time>
      </trkpt>
      <trkpt lat="44.72845" lon="-0.35602">
        <ele>70</ele>
        <time>2013-05-20T15:15:34Z</time>
      </trkpt>
      <trkpt lat="44.72849" lon="-0.35613">
        <ele>71</ele>
        <time>2013-05-20T15:15:41Z</time>
      </trkpt>
      <trkpt lat="44.72854" lon="-0.35624">
        <ele>71</ele>
        <time>2013-05-20T15:15:47Z</time>
      </trkpt>
      <trkpt lat="44.7286" lon="-0.35633">
        <ele>71</ele>
        <time>2013-05-20T15:15:54Z</time>
      </trkpt>
      <trkpt lat="44.72865" lon="-0.35631">
        <ele>72</ele>
        <time>2013-05-20T15:15:58Z</time>
      </trkpt>
      <trkpt lat="44.72867" lon="-0.35628">
        <ele>73</ele>
        <time>2013-05-20T15:16:01Z</time>
      </trkpt>
      <trkpt lat="44.72877" lon="-0.35619">
        <ele>74</ele>
        <time>2013-05-20T15:16:11Z</time>
      </trkpt>
      <trkpt lat="44.72878" lon="-0.35619">
        <ele>74</ele>
        <time>2013-05-20T15:16:12Z</time>
      </trkpt>
      <trkpt lat="44.72885" lon="-0.35624">
        <ele>75</ele>
        <time>2013-05-20T15:16:19Z</time>
      </trkpt>
      <trkpt lat="44.72889" lon="-0.35629">
        <ele>76</ele>
        <time>2013-05-20T15:16:23Z</time>
      </trkpt>
      <trkpt lat="44.72893" lon="-0.35639">
        <ele>76</ele>
        <time>2013-05-20T15:16:29Z</time>
      </trkpt>
      <trkpt lat="44.72899" lon="-0.35653">
        <ele>76</ele>
        <time>2013-05-20T15:16:37Z</time>
      </trkpt>
      <trkpt lat="44.72905" lon="-0.35666">
        <ele>76</ele>
        <time>2013-05-20T15:16:44Z</time>
      </trkpt>
      <trkpt lat="44.72912" lon="-0.35679">
        <ele>77</ele>
        <time>2013-05-20T15:16:50Z</time>
      </trkpt>
      <trkpt lat="44.72916" lon="-0.35686">
        <ele>77</ele>
        <time>2013-05-20T15:16:58Z</time>
      </trkpt>
      <trkpt lat="44.7292" lon="-0.35691">
        <ele>77</ele>
        <time>2013-05-20T15:17:05Z</time>
      </trkpt>
      <trkpt lat="44.72922" lon="-0.35696">
        <ele>77</ele>
        <time>2013-05-20T15:17:12Z</time>
      </trkpt>
      <trkpt lat="44.72927" lon="-0.35697">
        <ele>78</ele>
        <time>2013-05-20T15:17:19Z</time>
      </trkpt>
      <trkpt lat="44.72929" lon="-0.35695">
        <ele>78</ele>
        <time>2013-05-20T15:17:26Z</time>
      </trkpt>
      <trkpt lat="44.72929" lon="-0.35695">
        <ele>78</ele>
        <time>2013-05-20T15:17:27Z</time>
      </trkpt>
      <trkpt lat="44.72931" lon="-0.35695">
        <ele>79</ele>
        <time>2013-05-20T15:17:34Z</time>
      </trkpt>
      <trkpt lat="44.72933" lon="-0.35696">
        <ele>79</ele>
        <time>2013-05-20T15:17:42Z</time>
      </trkpt>
      <trkpt lat="44.72934" lon="-0.35696">
        <ele>79</ele>
        <time>2013-05-20T15:17:49Z</time>
      </trkpt>
      <trkpt lat="44.72935" lon="-0.35696">
        <ele>79</ele>
        <time>2013-05-20T15:17:57Z</time>
      </trkpt>
      <trkpt lat="44.72935" lon="-0.35697">
        <ele>79</ele>
        <time>2013-05-20T15:18:06Z</time>
      </trkpt>
      <trkpt lat="44.72935" lon="-0.35698">
        <ele>79</ele>
        <time>2013-05-20T15:18:20Z</time>
      </trkpt>
      <trkpt lat="44.72936" lon="-0.35698">
        <ele>79</ele>
        <time>2013-05-20T15:18:27Z</time>
      </trkpt>
      <trkpt lat="44.72943" lon="-0.35707">
        <ele>80</ele>
        <time>2013-05-20T15:18:34Z</time>
      </trkpt>
      <trkpt lat="44.72953" lon="-0.35716">
        <ele>81</ele>
        <time>2013-05-20T15:18:41Z</time>
      </trkpt>
      <trkpt lat="44.72968" lon="-0.3572">
        <ele>83</ele>
        <time>2013-05-20T15:18:49Z</time>
      </trkpt>
      <trkpt lat="44.72982" lon="-0.35719">
        <ele>85</ele>
        <time>2013-05-20T15:18:56Z</time>
      </trkpt>
      <trkpt lat="44.72999" lon="-0.35712">
        <ele>87</ele>
        <time>2013-05-20T15:19:05Z</time>
      </trkpt>
      <trkpt lat="44.73011" lon="-0.35708">
        <ele>88</ele>
        <time>2013-05-20T15:19:12Z</time>
      </trkpt>
      <trkpt lat="44.73013" lon="-0.35706">
        <ele>88</ele>
        <time>2013-05-20T15:19:14Z</time>
      </trkpt>
      <trkpt lat="44.73018" lon="-0.35704">
        <ele>89</ele>
        <time>2013-05-20T15:19:18Z</time>
      </trkpt>
      <trkpt lat="44.73028" lon="-0.35702">
        <ele>89</ele>
        <time>2013-05-20T15:19:25Z</time>
      </trkpt>
      <trkpt lat="44.73041" lon="-0.35702">
        <ele>89</ele>
        <time>2013-05-20T15:19:32Z</time>
      </trkpt>
      <trkpt lat="44.7306" lon="-0.35704">
        <ele>90</ele>
        <time>2013-05-20T15:19:41Z</time>
      </trkpt>
      <trkpt lat="44.73072" lon="-0.35705">
        <ele>90</ele>
        <time>2013-05-20T15:19:48Z</time>
      </trkpt>
      <trkpt lat="44.73087" lon="-0.3571">
        <ele>90</ele>
        <time>2013-05-20T15:19:56Z</time>
      </trkpt>
      <trkpt lat="44.73099" lon="-0.35716">
        <ele>91</ele>
        <time>2013-05-20T15:20:03Z</time>
      </trkpt>
      <trkpt lat="44.73115" lon="-0.35731">
        <ele>91</ele>
        <time>2013-05-20T15:20:13Z</time>
      </trkpt>
      <trkpt lat="44.73131" lon="-0.35754">
        <ele>91</ele>
        <time>2013-05-20T15:20:23Z</time>
      </trkpt>
      <trkpt lat="44.73133" lon="-0.3576">
        <ele>91</ele>
        <time>2013-05-20T15:20:25Z</time>
      </trkpt>
      <trkpt lat="44.73142" lon="-0.35759">
        <ele>91</ele>
        <time>2013-05-20T15:20:29Z</time>
      </trkpt>
      <trkpt lat="44.73167" lon="-0.35741">
        <ele>91</ele>
        <time>2013-05-20T15:20:36Z</time>
      </trkpt>
      <trkpt lat="44.73171" lon="-0.35738">
        <ele>91</ele>
        <time>2013-05-20T15:20:37Z</time>
      </trkpt>
      <trkpt lat="44.73175" lon="-0.35734">
        <ele>91</ele>
        <time>2013-05-20T15:20:38Z</time>
      </trkpt>
      <trkpt lat="44.73178" lon="-0.35729">
        <ele>91</ele>
        <time>2013-05-20T15:20:39Z</time>
      </trkpt>
      <trkpt lat="44.73181" lon="-0.35723">
        <ele>91</ele>
        <time>2013-05-20T15:20:40Z</time>
      </trkpt>
      <trkpt lat="44.73183" lon="-0.35717">
        <ele>91</ele>
        <time>2013-05-20T15:20:41Z</time>
      </trkpt>
      <trkpt lat="44.73184" lon="-0.3571">
        <ele>90</ele>
        <time>2013-05-20T15:20:42Z</time>
      </trkpt>
      <trkpt lat="44.73184" lon="-0.35704">
        <ele>90</ele>
        <time>2013-05-20T15:20:43Z</time>
      </trkpt>
      <trkpt lat="44.73184" lon="-0.35698">
        <ele>90</ele>
        <time>2013-05-20T15:20:44Z</time>
      </trkpt>
      <trkpt lat="44.73184" lon="-0.35656">
        <ele>89</ele>
        <time>2013-05-20T15:20:50Z</time>
      </trkpt>
      <trkpt lat="44.73185" lon="-0.35649">
        <ele>88</ele>
        <time>2013-05-20T15:20:51Z</time>
      </trkpt>
      <trkpt lat="44.73191" lon="-0.35604">
        <ele>86</ele>
        <time>2013-05-20T15:20:58Z</time>
      </trkpt>
      <trkpt lat="44.73196" lon="-0.35576">
        <ele>83</ele>
        <time>2013-05-20T15:21:02Z</time>
      </trkpt>
      <trkpt lat="44.73196" lon="-0.35566">
        <ele>82</ele>
        <time>2013-05-20T15:21:03Z</time>
      </trkpt>
      <trkpt lat="44.73195" lon="-0.35556">
        <ele>81</ele>
        <time>2013-05-20T15:21:04Z</time>
      </trkpt>
      <trkpt lat="44.73194" lon="-0.35546">
        <ele>81</ele>
        <time>2013-05-20T15:21:05Z</time>
      </trkpt>
      <trkpt lat="44.73191" lon="-0.35535">
        <ele>80</ele>
        <time>2013-05-20T15:21:06Z</time>
      </trkpt>
      <trkpt lat="44.73181" lon="-0.35492">
        <ele>76</ele>
        <time>2013-05-20T15:21:11Z</time>
      </trkpt>
      <trkpt lat="44.7317" lon="-0.35451">
        <ele>73</ele>
        <time>2013-05-20T15:21:17Z</time>
      </trkpt>
      <trkpt lat="44.73159" lon="-0.35408">
        <ele>69</ele>
        <time>2013-05-20T15:21:23Z</time>
      </trkpt>
      <trkpt lat="44.73143" lon="-0.35355">
        <ele>66</ele>
        <time>2013-05-20T15:21:30Z</time>
      </trkpt>
      <trkpt lat="44.73124" lon="-0.35296">
        <ele>63</ele>
        <time>2013-05-20T15:21:38Z</time>
      </trkpt>
      <trkpt lat="44.73113" lon="-0.35261">
        <ele>61</ele>
        <time>2013-05-20T15:21:43Z</time>
      </trkpt>
      <trkpt lat="44.73112" lon="-0.35255">
        <ele>61</ele>
        <time>2013-05-20T15:21:44Z</time>
      </trkpt>
      <trkpt lat="44.7311" lon="-0.35249">
        <ele>61</ele>
        <time>2013-05-20T15:21:45Z</time>
      </trkpt>
      <trkpt lat="44.73095" lon="-0.35197">
        <ele>58</ele>
        <time>2013-05-20T15:21:53Z</time>
      </trkpt>
      <trkpt lat="44.73094" lon="-0.3519">
        <ele>57</ele>
        <time>2013-05-20T15:21:54Z</time>
      </trkpt>
      <trkpt lat="44.73092" lon="-0.35183">
        <ele>57</ele>
        <time>2013-05-20T15:21:55Z</time>
      </trkpt>
      <trkpt lat="44.73091" lon="-0.35175">
        <ele>56</ele>
        <time>2013-05-20T15:21:56Z</time>
      </trkpt>
      <trkpt lat="44.73089" lon="-0.35167">
        <ele>56</ele>
        <time>2013-05-20T15:21:57Z</time>
      </trkpt>
      <trkpt lat="44.73088" lon="-0.35159">
        <ele>55</ele>
        <time>2013-05-20T15:21:58Z</time>
      </trkpt>
      <trkpt lat="44.73083" lon="-0.35127">
        <ele>53</ele>
        <time>2013-05-20T15:22:01Z</time>
      </trkpt>
      <trkpt lat="44.73083" lon="-0.35064">
        <ele>48</ele>
        <time>2013-05-20T15:22:07Z</time>
      </trkpt>
      <trkpt lat="44.73082" lon="-0.35052">
        <ele>47</ele>
        <time>2013-05-20T15:22:08Z</time>
      </trkpt>
      <trkpt lat="44.73072" lon="-0.34986">
        <ele>42</ele>
        <time>2013-05-20T15:22:14Z</time>
      </trkpt>
      <trkpt lat="44.7307" lon="-0.34976">
        <ele>41</ele>
        <time>2013-05-20T15:22:15Z</time>
      </trkpt>
      <trkpt lat="44.73061" lon="-0.34927">
        <ele>40</ele>
        <time>2013-05-20T15:22:21Z</time>
      </trkpt>
      <trkpt lat="44.73062" lon="-0.34909">
        <ele>40</ele>
        <time>2013-05-20T15:22:27Z</time>
      </trkpt>
      <trkpt lat="44.73062" lon="-0.34899">
        <ele>41</ele>
        <time>2013-05-20T15:22:35Z</time>
      </trkpt>
      <trkpt lat="44.73062" lon="-0.34885">
        <ele>41</ele>
        <time>2013-05-20T15:22:42Z</time>
      </trkpt>
      <trkpt lat="44.73065" lon="-0.34873">
        <ele>42</ele>
        <time>2013-05-20T15:22:48Z</time>
      </trkpt>
      <trkpt lat="44.73077" lon="-0.34864">
        <ele>42</ele>
        <time>2013-05-20T15:22:56Z</time>
      </trkpt>
      <trkpt lat="44.73089" lon="-0.34853">
        <ele>43</ele>
        <time>2013-05-20T15:23:04Z</time>
      </trkpt>
      <trkpt lat="44.73099" lon="-0.34846">
        <ele>44</ele>
        <time>2013-05-20T15:23:11Z</time>
      </trkpt>
      <trkpt lat="44.73102" lon="-0.34844">
        <ele>44</ele>
        <time>2013-05-20T15:23:13Z</time>
      </trkpt>
      <trkpt lat="44.73108" lon="-0.3484">
        <ele>45</ele>
        <time>2013-05-20T15:23:19Z</time>
      </trkpt>
      <trkpt lat="44.73121" lon="-0.34832">
        <ele>48</ele>
        <time>2013-05-20T15:23:28Z</time>
      </trkpt>
      <trkpt lat="44.73129" lon="-0.34825">
        <ele>49</ele>
        <time>2013-05-20T15:23:34Z</time>
      </trkpt>
      <trkpt lat="44.73129" lon="-0.34823">
        <ele>49</ele>
        <time>2013-05-20T15:23:40Z</time>
      </trkpt>
      <trkpt lat="44.73131" lon="-0.34822">
        <ele>50</ele>
        <time>2013-05-20T15:23:47Z</time>
      </trkpt>
      <trkpt lat="44.73134" lon="-0.3482">
        <ele>50</ele>
        <time>2013-05-20T15:23:55Z</time>
      </trkpt>
      <trkpt lat="44.73134" lon="-0.34817">
        <ele>50</ele>
        <time>2013-05-20T15:24:00Z</time>
      </trkpt>
      <trkpt lat="44.73136" lon="-0.34815">
        <ele>50</ele>
        <time>2013-05-20T15:24:08Z</time>
      </trkpt>
      <trkpt lat="44.73141" lon="-0.34806">
        <ele>51</ele>
        <time>2013-05-20T15:24:15Z</time>
      </trkpt>
      <trkpt lat="44.73141" lon="-0.34804">
        <ele>51</ele>
        <time>2013-05-20T15:24:16Z</time>
      </trkpt>
      <trkpt lat="44.73142" lon="-0.34803">
        <ele>51</ele>
        <time>2013-05-20T15:24:17Z</time>
      </trkpt>
      <trkpt lat="44.73143" lon="-0.34801">
        <ele>51</ele>
        <time>2013-05-20T15:24:18Z</time>
      </trkpt>
      <trkpt lat="44.73143" lon="-0.34799">
        <ele>51</ele>
        <time>2013-05-20T15:24:19Z</time>
      </trkpt>
      <trkpt lat="44.73144" lon="-0.34798">
        <ele>51</ele>
        <time>2013-05-20T15:24:20Z</time>
      </trkpt>
      <trkpt lat="44.73145" lon="-0.34796">
        <ele>52</ele>
        <time>2013-05-20T15:24:21Z</time>
      </trkpt>
      <trkpt lat="44.7315" lon="-0.34796">
        <ele>52</ele>
        <time>2013-05-20T15:24:28Z</time>
      </trkpt>
      <trkpt lat="44.73151" lon="-0.34798">
        <ele>52</ele>
        <time>2013-05-20T15:24:29Z</time>
      </trkpt>
      <trkpt lat="44.73158" lon="-0.34816">
        <ele>53</ele>
        <time>2013-05-20T15:24:39Z</time>
      </trkpt>
      <trkpt lat="44.73159" lon="-0.34816">
        <ele>53</ele>
        <time>2013-05-20T15:24:40Z</time>
      </trkpt>
      <trkpt lat="44.73168" lon="-0.34815">
        <ele>53</ele>
        <time>2013-05-20T15:24:47Z</time>
      </trkpt>
      <trkpt lat="44.73175" lon="-0.34809">
        <ele>54</ele>
        <time>2013-05-20T15:24:54Z</time>
      </trkpt>
      <trkpt lat="44.73182" lon="-0.34807">
        <ele>55</ele>
        <time>2013-05-20T15:25:00Z</time>
      </trkpt>
      <trkpt lat="44.73186" lon="-0.34806">
        <ele>55</ele>
        <time>2013-05-20T15:25:04Z</time>
      </trkpt>
      <trkpt lat="44.73195" lon="-0.34804">
        <ele>56</ele>
        <time>2013-05-20T15:25:11Z</time>
      </trkpt>
      <trkpt lat="44.73202" lon="-0.34801">
        <ele>57</ele>
        <time>2013-05-20T15:25:16Z</time>
      </trkpt>
      <trkpt lat="44.73203" lon="-0.34801">
        <ele>57</ele>
        <time>2013-05-20T15:25:17Z</time>
      </trkpt>
      <trkpt lat="44.73211" lon="-0.34799">
        <ele>58</ele>
        <time>2013-05-20T15:25:23Z</time>
      </trkpt>
      <trkpt lat="44.73211" lon="-0.34799">
        <ele>58</ele>
        <time>2013-05-20T15:25:24Z</time>
      </trkpt>
      <trkpt lat="44.73213" lon="-0.34799">
        <ele>58</ele>
        <time>2013-05-20T15:25:25Z</time>
      </trkpt>
      <trkpt lat="44.73214" lon="-0.34799">
        <ele>58</ele>
        <time>2013-05-20T15:25:26Z</time>
      </trkpt>
      <trkpt lat="44.73215" lon="-0.34799">
        <ele>58</ele>
        <time>2013-05-20T15:25:27Z</time>
      </trkpt>
      <trkpt lat="44.73216" lon="-0.34798">
        <ele>59</ele>
        <time>2013-05-20T15:25:28Z</time>
      </trkpt>
      <trkpt lat="44.73224" lon="-0.34796">
        <ele>59</ele>
        <time>2013-05-20T15:25:35Z</time>
      </trkpt>
      <trkpt lat="44.73231" lon="-0.34796">
        <ele>60</ele>
        <time>2013-05-20T15:25:41Z</time>
      </trkpt>
      <trkpt lat="44.73232" lon="-0.34796">
        <ele>60</ele>
        <time>2013-05-20T15:25:42Z</time>
      </trkpt>
      <trkpt lat="44.73234" lon="-0.34794">
        <ele>60</ele>
        <time>2013-05-20T15:25:48Z</time>
      </trkpt>
      <trkpt lat="44.73239" lon="-0.34794">
        <ele>61</ele>
        <time>2013-05-20T15:25:55Z</time>
      </trkpt>
      <trkpt lat="44.73246" lon="-0.34792">
        <ele>61</ele>
        <time>2013-05-20T15:26:03Z</time>
      </trkpt>
      <trkpt lat="44.73251" lon="-0.34789">
        <ele>62</ele>
        <time>2013-05-20T15:26:10Z</time>
      </trkpt>
      <trkpt lat="44.73252" lon="-0.34789">
        <ele>62</ele>
        <time>2013-05-20T15:26:16Z</time>
      </trkpt>
      <trkpt lat="44.73254" lon="-0.34788">
        <ele>62</ele>
        <time>2013-05-20T15:26:21Z</time>
      </trkpt>
      <trkpt lat="44.73262" lon="-0.34783">
        <ele>63</ele>
        <time>2013-05-20T15:26:28Z</time>
      </trkpt>
      <trkpt lat="44.73273" lon="-0.34779">
        <ele>64</ele>
        <time>2013-05-20T15:26:37Z</time>
      </trkpt>
      <trkpt lat="44.73283" lon="-0.34772">
        <ele>65</ele>
        <time>2013-05-20T15:26:46Z</time>
      </trkpt>
      <trkpt lat="44.73295" lon="-0.34764">
        <ele>66</ele>
        <time>2013-05-20T15:26:57Z</time>
      </trkpt>
      <trkpt lat="44.73305" lon="-0.3476">
        <ele>66</ele>
        <time>2013-05-20T15:27:05Z</time>
      </trkpt>
      <trkpt lat="44.73313" lon="-0.34755">
        <ele>67</ele>
        <time>2013-05-20T15:27:13Z</time>
      </trkpt>
      <trkpt lat="44.73323" lon="-0.34749">
        <ele>67</ele>
        <time>2013-05-20T15:27:21Z</time>
      </trkpt>
      <trkpt lat="44.7333" lon="-0.34744">
        <ele>68</ele>
        <time>2013-05-20T15:27:27Z</time>
      </trkpt>
      <trkpt lat="44.73331" lon="-0.34743">
        <ele>68</ele>
        <time>2013-05-20T15:27:28Z</time>
      </trkpt>
      <trkpt lat="44.73332" lon="-0.34742">
        <ele>68</ele>
        <time>2013-05-20T15:27:29Z</time>
      </trkpt>
      <trkpt lat="44.73333" lon="-0.34741">
        <ele>68</ele>
        <time>2013-05-20T15:27:30Z</time>
      </trkpt>
      <trkpt lat="44.73334" lon="-0.3474">
        <ele>68</ele>
        <time>2013-05-20T15:27:31Z</time>
      </trkpt>
      <trkpt lat="44.73335" lon="-0.34739">
        <ele>68</ele>
        <time>2013-05-20T15:27:32Z</time>
      </trkpt>
      <trkpt lat="44.73336" lon="-0.34739">
        <ele>68</ele>
        <time>2013-05-20T15:27:33Z</time>
      </trkpt>
      <trkpt lat="44.73337" lon="-0.34738">
        <ele>68</ele>
        <time>2013-05-20T15:27:34Z</time>
      </trkpt>
      <trkpt lat="44.73338" lon="-0.34737">
        <ele>68</ele>
        <time>2013-05-20T15:27:35Z</time>
      </trkpt>
      <trkpt lat="44.73347" lon="-0.34732">
        <ele>69</ele>
        <time>2013-05-20T15:27:42Z</time>
      </trkpt>
      <trkpt lat="44.73354" lon="-0.34727">
        <ele>70</ele>
        <time>2013-05-20T15:27:48Z</time>
      </trkpt>
      <trkpt lat="44.73355" lon="-0.34726">
        <ele>70</ele>
        <time>2013-05-20T15:27:49Z</time>
      </trkpt>
      <trkpt lat="44.73356" lon="-0.34725">
        <ele>70</ele>
        <time>2013-05-20T15:27:50Z</time>
      </trkpt>
      <trkpt lat="44.73358" lon="-0.34725">
        <ele>70</ele>
        <time>2013-05-20T15:27:51Z</time>
      </trkpt>
      <trkpt lat="44.73359" lon="-0.34724">
        <ele>71</ele>
        <time>2013-05-20T15:27:52Z</time>
      </trkpt>
      <trkpt lat="44.73367" lon="-0.34718">
        <ele>72</ele>
        <time>2013-05-20T15:28:00Z</time>
      </trkpt>
      <trkpt lat="44.73375" lon="-0.34715">
        <ele>72</ele>
        <time>2013-05-20T15:28:08Z</time>
      </trkpt>
      <trkpt lat="44.73384" lon="-0.34709">
        <ele>73</ele>
        <time>2013-05-20T15:28:17Z</time>
      </trkpt>
      <trkpt lat="44.73388" lon="-0.34707">
        <ele>73</ele>
        <time>2013-05-20T15:28:21Z</time>
      </trkpt>
      <trkpt lat="44.73394" lon="-0.34703">
        <ele>73</ele>
        <time>2013-05-20T15:28:28Z</time>
      </trkpt>
      <trkpt lat="44.73395" lon="-0.34702">
        <ele>74</ele>
        <time>2013-05-20T15:28:29Z</time>
      </trkpt>
      <trkpt lat="44.73402" lon="-0.347">
        <ele>74</ele>
        <time>2013-05-20T15:28:34Z</time>
      </trkpt>
      <trkpt lat="44.73403" lon="-0.34699">
        <ele>74</ele>
        <time>2013-05-20T15:28:35Z</time>
      </trkpt>
      <trkpt lat="44.73404" lon="-0.34699">
        <ele>74</ele>
        <time>2013-05-20T15:28:36Z</time>
      </trkpt>
      <trkpt lat="44.73405" lon="-0.34698">
        <ele>74</ele>
        <time>2013-05-20T15:28:37Z</time>
      </trkpt>
      <trkpt lat="44.73406" lon="-0.34697">
        <ele>74</ele>
        <time>2013-05-20T15:28:38Z</time>
      </trkpt>
      <trkpt lat="44.73406" lon="-0.34696">
        <ele>74</ele>
        <time>2013-05-20T15:28:39Z</time>
      </trkpt>
      <trkpt lat="44.73407" lon="-0.34696">
        <ele>75</ele>
        <time>2013-05-20T15:28:40Z</time>
      </trkpt>
      <trkpt lat="44.73408" lon="-0.34696">
        <ele>75</ele>
        <time>2013-05-20T15:28:41Z</time>
      </trkpt>
      <trkpt lat="44.7341" lon="-0.34695">
        <ele>75</ele>
        <time>2013-05-20T15:28:42Z</time>
      </trkpt>
      <trkpt lat="44.73411" lon="-0.34696">
        <ele>75</ele>
        <time>2013-05-20T15:28:43Z</time>
      </trkpt>
      <trkpt lat="44.73412" lon="-0.34696">
        <ele>75</ele>
        <time>2013-05-20T15:28:44Z</time>
      </trkpt>
      <trkpt lat="44.73413" lon="-0.34695">
        <ele>75</ele>
        <time>2013-05-20T15:28:45Z</time>
      </trkpt>
      <trkpt lat="44.73414" lon="-0.34694">
        <ele>75</ele>
        <time>2013-05-20T15:28:46Z</time>
      </trkpt>
      <trkpt lat="44.73415" lon="-0.34694">
        <ele>75</ele>
        <time>2013-05-20T15:28:47Z</time>
      </trkpt>
      <trkpt lat="44.73416" lon="-0.34693">
        <ele>75</ele>
        <time>2013-05-20T15:28:48Z</time>
      </trkpt>
      <trkpt lat="44.73417" lon="-0.34692">
        <ele>75</ele>
        <time>2013-05-20T15:28:49Z</time>
      </trkpt>
      <trkpt lat="44.73419" lon="-0.3469">
        <ele>75</ele>
        <time>2013-05-20T15:28:51Z</time>
      </trkpt>
      <trkpt lat="44.7342" lon="-0.3469">
        <ele>75</ele>
        <time>2013-05-20T15:28:52Z</time>
      </trkpt>
      <trkpt lat="44.73421" lon="-0.34689">
        <ele>75</ele>
        <time>2013-05-20T15:28:53Z</time>
      </trkpt>
      <trkpt lat="44.73423" lon="-0.34688">
        <ele>76</ele>
        <time>2013-05-20T15:28:54Z</time>
      </trkpt>
      <trkpt lat="44.73423" lon="-0.34688">
        <ele>76</ele>
        <time>2013-05-20T15:28:55Z</time>
      </trkpt>
      <trkpt lat="44.73424" lon="-0.34687">
        <ele>76</ele>
        <time>2013-05-20T15:28:56Z</time>
      </trkpt>
      <trkpt lat="44.73431" lon="-0.34683">
        <ele>76</ele>
        <time>2013-05-20T15:29:02Z</time>
      </trkpt>
      <trkpt lat="44.73432" lon="-0.34681">
        <ele>76</ele>
        <time>2013-05-20T15:29:03Z</time>
      </trkpt>
      <trkpt lat="44.73433" lon="-0.3468">
        <ele>77</ele>
        <time>2013-05-20T15:29:04Z</time>
      </trkpt>
      <trkpt lat="44.73435" lon="-0.34679">
        <ele>77</ele>
        <time>2013-05-20T15:29:05Z</time>
      </trkpt>
      <trkpt lat="44.73436" lon="-0.34678">
        <ele>77</ele>
        <time>2013-05-20T15:29:06Z</time>
      </trkpt>
      <trkpt lat="44.73437" lon="-0.34677">
        <ele>77</ele>
        <time>2013-05-20T15:29:07Z</time>
      </trkpt>
      <trkpt lat="44.73447" lon="-0.34671">
        <ele>78</ele>
        <time>2013-05-20T15:29:15Z</time>
      </trkpt>
      <trkpt lat="44.73456" lon="-0.34665">
        <ele>79</ele>
        <time>2013-05-20T15:29:23Z</time>
      </trkpt>
      <trkpt lat="44.73458" lon="-0.34664">
        <ele>79</ele>
        <time>2013-05-20T15:29:24Z</time>
      </trkpt>
      <trkpt lat="44.73459" lon="-0.34663">
        <ele>79</ele>
        <time>2013-05-20T15:29:25Z</time>
      </trkpt>
      <trkpt lat="44.7346" lon="-0.34663">
        <ele>79</ele>
        <time>2013-05-20T15:29:26Z</time>
      </trkpt>
      <trkpt lat="44.73461" lon="-0.34662">
        <ele>79</ele>
        <time>2013-05-20T15:29:27Z</time>
      </trkpt>
      <trkpt lat="44.73463" lon="-0.34662">
        <ele>79</ele>
        <time>2013-05-20T15:29:28Z</time>
      </trkpt>
      <trkpt lat="44.7347" lon="-0.34658">
        <ele>80</ele>
        <time>2013-05-20T15:29:34Z</time>
      </trkpt>
      <trkpt lat="44.73471" lon="-0.34657">
        <ele>80</ele>
        <time>2013-05-20T15:29:35Z</time>
      </trkpt>
      <trkpt lat="44.73472" lon="-0.34657">
        <ele>80</ele>
        <time>2013-05-20T15:29:36Z</time>
      </trkpt>
      <trkpt lat="44.73474" lon="-0.34656">
        <ele>80</ele>
        <time>2013-05-20T15:29:37Z</time>
      </trkpt>
      <trkpt lat="44.7348" lon="-0.34652">
        <ele>81</ele>
        <time>2013-05-20T15:29:43Z</time>
      </trkpt>
      <trkpt lat="44.7349" lon="-0.34645">
        <ele>82</ele>
        <time>2013-05-20T15:29:52Z</time>
      </trkpt>
      <trkpt lat="44.73501" lon="-0.34639">
        <ele>82</ele>
        <time>2013-05-20T15:30:02Z</time>
      </trkpt>
      <trkpt lat="44.73509" lon="-0.34634">
        <ele>83</ele>
        <time>2013-05-20T15:30:09Z</time>
      </trkpt>
      <trkpt lat="44.7351" lon="-0.34633">
        <ele>83</ele>
        <time>2013-05-20T15:30:10Z</time>
      </trkpt>
      <trkpt lat="44.73511" lon="-0.34633">
        <ele>83</ele>
        <time>2013-05-20T15:30:11Z</time>
      </trkpt>
      <trkpt lat="44.73512" lon="-0.34632">
        <ele>84</ele>
        <time>2013-05-20T15:30:12Z</time>
      </trkpt>
      <trkpt lat="44.73513" lon="-0.3463">
        <ele>84</ele>
        <time>2013-05-20T15:30:13Z</time>
      </trkpt>
      <trkpt lat="44.73513" lon="-0.34629">
        <ele>84</ele>
        <time>2013-05-20T15:30:14Z</time>
      </trkpt>
      <trkpt lat="44.73514" lon="-0.34628">
        <ele>84</ele>
        <time>2013-05-20T15:30:15Z</time>
      </trkpt>
      <trkpt lat="44.73513" lon="-0.34626">
        <ele>84</ele>
        <time>2013-05-20T15:30:16Z</time>
      </trkpt>
      <trkpt lat="44.73513" lon="-0.34624">
        <ele>84</ele>
        <time>2013-05-20T15:30:17Z</time>
      </trkpt>
      <trkpt lat="44.73511" lon="-0.34617">
        <ele>85</ele>
        <time>2013-05-20T15:30:23Z</time>
      </trkpt>
      <trkpt lat="44.73511" lon="-0.34614">
        <ele>86</ele>
        <time>2013-05-20T15:30:25Z</time>
      </trkpt>
      <trkpt lat="44.7351" lon="-0.34613">
        <ele>86</ele>
        <time>2013-05-20T15:30:26Z</time>
      </trkpt>
      <trkpt lat="44.73509" lon="-0.34606">
        <ele>87</ele>
        <time>2013-05-20T15:30:31Z</time>
      </trkpt>
      <trkpt lat="44.73506" lon="-0.34597">
        <ele>88</ele>
        <time>2013-05-20T15:30:38Z</time>
      </trkpt>
      <trkpt lat="44.73504" lon="-0.34588">
        <ele>88</ele>
        <time>2013-05-20T15:30:45Z</time>
      </trkpt>
      <trkpt lat="44.73503" lon="-0.34586">
        <ele>89</ele>
        <time>2013-05-20T15:30:47Z</time>
      </trkpt>
      <trkpt lat="44.73502" lon="-0.34585">
        <ele>89</ele>
        <time>2013-05-20T15:30:48Z</time>
      </trkpt>
      <trkpt lat="44.73502" lon="-0.34583">
        <ele>89</ele>
        <time>2013-05-20T15:30:49Z</time>
      </trkpt>
      <trkpt lat="44.73502" lon="-0.34582">
        <ele>89</ele>
        <time>2013-05-20T15:30:50Z</time>
      </trkpt>
      <trkpt lat="44.73501" lon="-0.3458">
        <ele>89</ele>
        <time>2013-05-20T15:30:51Z</time>
      </trkpt>
      <trkpt lat="44.735" lon="-0.34576">
        <ele>89</ele>
        <time>2013-05-20T15:30:54Z</time>
      </trkpt>
      <trkpt lat="44.735" lon="-0.34575">
        <ele>89</ele>
        <time>2013-05-20T15:30:55Z</time>
      </trkpt>
      <trkpt lat="44.73497" lon="-0.34565">
        <ele>90</ele>
        <time>2013-05-20T15:31:02Z</time>
      </trkpt>
      <trkpt lat="44.73496" lon="-0.34562">
        <ele>90</ele>
        <time>2013-05-20T15:31:04Z</time>
      </trkpt>
      <trkpt lat="44.73496" lon="-0.34561">
        <ele>90</ele>
        <time>2013-05-20T15:31:05Z</time>
      </trkpt>
      <trkpt lat="44.73495" lon="-0.3456">
        <ele>90</ele>
        <time>2013-05-20T15:31:06Z</time>
      </trkpt>
      <trkpt lat="44.73493" lon="-0.34554">
        <ele>91</ele>
        <time>2013-05-20T15:31:10Z</time>
      </trkpt>
      <trkpt lat="44.73491" lon="-0.34545">
        <ele>91</ele>
        <time>2013-05-20T15:31:17Z</time>
      </trkpt>
      <trkpt lat="44.7349" lon="-0.34537">
        <ele>92</ele>
        <time>2013-05-20T15:31:24Z</time>
      </trkpt>
      <trkpt lat="44.73487" lon="-0.34528">
        <ele>92</ele>
        <time>2013-05-20T15:31:31Z</time>
      </trkpt>
      <trkpt lat="44.73485" lon="-0.3452">
        <ele>92</ele>
        <time>2013-05-20T15:31:38Z</time>
      </trkpt>
      <trkpt lat="44.73484" lon="-0.34518">
        <ele>92</ele>
        <time>2013-05-20T15:31:40Z</time>
      </trkpt>
      <trkpt lat="44.7348" lon="-0.34505">
        <ele>93</ele>
        <time>2013-05-20T15:31:49Z</time>
      </trkpt>
      <trkpt lat="44.73479" lon="-0.34502">
        <ele>93</ele>
        <time>2013-05-20T15:31:51Z</time>
      </trkpt>
      <trkpt lat="44.73479" lon="-0.34501">
        <ele>93</ele>
        <time>2013-05-20T15:31:52Z</time>
      </trkpt>
      <trkpt lat="44.73479" lon="-0.34499">
        <ele>93</ele>
        <time>2013-05-20T15:31:53Z</time>
      </trkpt>
      <trkpt lat="44.73477" lon="-0.34491">
        <ele>93</ele>
        <time>2013-05-20T15:31:59Z</time>
      </trkpt>
      <trkpt lat="44.73473" lon="-0.34478">
        <ele>93</ele>
        <time>2013-05-20T15:32:08Z</time>
      </trkpt>
      <trkpt lat="44.73469" lon="-0.34463">
        <ele>93</ele>
        <time>2013-05-20T15:32:17Z</time>
      </trkpt>
      <trkpt lat="44.73465" lon="-0.34453">
        <ele>93</ele>
        <time>2013-05-20T15:32:24Z</time>
      </trkpt>
      <trkpt lat="44.73458" lon="-0.34438">
        <ele>93</ele>
        <time>2013-05-20T15:32:32Z</time>
      </trkpt>
      <trkpt lat="44.73457" lon="-0.34438">
        <ele>93</ele>
        <time>2013-05-20T15:32:33Z</time>
      </trkpt>
      <trkpt lat="44.73456" lon="-0.34438">
        <ele>93</ele>
        <time>2013-05-20T15:32:34Z</time>
      </trkpt>
      <trkpt lat="44.73455" lon="-0.34439">
        <ele>93</ele>
        <time>2013-05-20T15:32:35Z</time>
      </trkpt>
      <trkpt lat="44.73453" lon="-0.3444">
        <ele>93</ele>
        <time>2013-05-20T15:32:36Z</time>
      </trkpt>
      <trkpt lat="44.73452" lon="-0.34441">
        <ele>93</ele>
        <time>2013-05-20T15:32:37Z</time>
      </trkpt>
      <trkpt lat="44.7344" lon="-0.34448">
        <ele>92</ele>
        <time>2013-05-20T15:32:45Z</time>
      </trkpt>
      <trkpt lat="44.73436" lon="-0.34447">
        <ele>91</ele>
        <time>2013-05-20T15:32:52Z</time>
      </trkpt>
      <trkpt lat="44.73436" lon="-0.34445">
        <ele>92</ele>
        <time>2013-05-20T15:33:12Z</time>
      </trkpt>
      <trkpt lat="44.73436" lon="-0.34445">
        <ele>91</ele>
        <time>2013-05-20T15:33:29Z</time>
      </trkpt>
      <trkpt lat="44.73434" lon="-0.34443">
        <ele>91</ele>
        <time>2013-05-20T15:33:31Z</time>
      </trkpt>
      <trkpt lat="44.73429" lon="-0.3443">
        <ele>91</ele>
        <time>2013-05-20T15:33:38Z</time>
      </trkpt>
      <trkpt lat="44.73427" lon="-0.34418">
        <ele>91</ele>
        <time>2013-05-20T15:33:45Z</time>
      </trkpt>
      <trkpt lat="44.73424" lon="-0.34412">
        <ele>91</ele>
        <time>2013-05-20T15:33:51Z</time>
      </trkpt>
      <trkpt lat="44.73424" lon="-0.34414">
        <ele>91</ele>
        <time>2013-05-20T15:33:58Z</time>
      </trkpt>
      <trkpt lat="44.73425" lon="-0.34414">
        <ele>91</ele>
        <time>2013-05-20T15:34:10Z</time>
      </trkpt>
      <trkpt lat="44.73425" lon="-0.34415">
        <ele>91</ele>
        <time>2013-05-20T15:34:20Z</time>
      </trkpt>
      <trkpt lat="44.73426" lon="-0.34415">
        <ele>91</ele>
        <time>2013-05-20T15:34:31Z</time>
      </trkpt>
      <trkpt lat="44.73426" lon="-0.34415">
        <ele>91</ele>
        <time>2013-05-20T15:34:39Z</time>
      </trkpt>
      <trkpt lat="44.73423" lon="-0.3441">
        <ele>91</ele>
        <time>2013-05-20T15:34:43Z</time>
      </trkpt>
      <trkpt lat="44.73424" lon="-0.34408">
        <ele>91</ele>
        <time>2013-05-20T15:34:44Z</time>
      </trkpt>
      <trkpt lat="44.73423" lon="-0.34406">
        <ele>91</ele>
        <time>2013-05-20T15:34:45Z</time>
      </trkpt>
      <trkpt lat="44.73422" lon="-0.34404">
        <ele>91</ele>
        <time>2013-05-20T15:34:46Z</time>
      </trkpt>
      <trkpt lat="44.73417" lon="-0.34394">
        <ele>91</ele>
        <time>2013-05-20T15:34:53Z</time>
      </trkpt>
      <trkpt lat="44.73412" lon="-0.34378">
        <ele>91</ele>
        <time>2013-05-20T15:35:04Z</time>
      </trkpt>
      <trkpt lat="44.73412" lon="-0.34377">
        <ele>91</ele>
        <time>2013-05-20T15:35:10Z</time>
      </trkpt>
      <trkpt lat="44.73411" lon="-0.34376">
        <ele>91</ele>
        <time>2013-05-20T15:35:11Z</time>
      </trkpt>
      <trkpt lat="44.73411" lon="-0.34375">
        <ele>91</ele>
        <time>2013-05-20T15:35:12Z</time>
      </trkpt>
      <trkpt lat="44.7341" lon="-0.34373">
        <ele>91</ele>
        <time>2013-05-20T15:35:13Z</time>
      </trkpt>
      <trkpt lat="44.73411" lon="-0.34372">
        <ele>91</ele>
        <time>2013-05-20T15:35:14Z</time>
      </trkpt>
      <trkpt lat="44.73411" lon="-0.34369">
        <ele>91</ele>
        <time>2013-05-20T15:35:15Z</time>
      </trkpt>
      <trkpt lat="44.73412" lon="-0.34367">
        <ele>91</ele>
        <time>2013-05-20T15:35:16Z</time>
      </trkpt>
      <trkpt lat="44.73413" lon="-0.34365">
        <ele>92</ele>
        <time>2013-05-20T15:35:17Z</time>
      </trkpt>
      <trkpt lat="44.73421" lon="-0.34356">
        <ele>92</ele>
        <time>2013-05-20T15:35:24Z</time>
      </trkpt>
      <trkpt lat="44.73434" lon="-0.3435">
        <ele>93</ele>
        <time>2013-05-20T15:35:32Z</time>
      </trkpt>
      <trkpt lat="44.73445" lon="-0.3434">
        <ele>94</ele>
        <time>2013-05-20T15:35:40Z</time>
      </trkpt>
      <trkpt lat="44.73445" lon="-0.34338">
        <ele>94</ele>
        <time>2013-05-20T15:35:41Z</time>
      </trkpt>
      <trkpt lat="44.73445" lon="-0.34336">
        <ele>94</ele>
        <time>2013-05-20T15:35:42Z</time>
      </trkpt>
      <trkpt lat="44.73439" lon="-0.3432">
        <ele>94</ele>
        <time>2013-05-20T15:35:50Z</time>
      </trkpt>
      <trkpt lat="44.73436" lon="-0.3431">
        <ele>94</ele>
        <time>2013-05-20T15:35:55Z</time>
      </trkpt>
      <trkpt lat="44.73434" lon="-0.343">
        <ele>94</ele>
        <time>2013-05-20T15:35:59Z</time>
      </trkpt>
      <trkpt lat="44.73427" lon="-0.34278">
        <ele>93</ele>
        <time>2013-05-20T15:36:08Z</time>
      </trkpt>
      <trkpt lat="44.7342" lon="-0.34261">
        <ele>92</ele>
        <time>2013-05-20T15:36:16Z</time>
      </trkpt>
      <trkpt lat="44.73419" lon="-0.34248">
        <ele>92</ele>
        <time>2013-05-20T15:36:22Z</time>
      </trkpt>
      <trkpt lat="44.73427" lon="-0.34246">
        <ele>92</ele>
        <time>2013-05-20T15:36:27Z</time>
      </trkpt>
      <trkpt lat="44.73435" lon="-0.3424">
        <ele>92</ele>
        <time>2013-05-20T15:36:31Z</time>
      </trkpt>
      <trkpt lat="44.73452" lon="-0.34224">
        <ele>93</ele>
        <time>2013-05-20T15:36:39Z</time>
      </trkpt>
      <trkpt lat="44.73466" lon="-0.34208">
        <ele>93</ele>
        <time>2013-05-20T15:36:46Z</time>
      </trkpt>
      <trkpt lat="44.73477" lon="-0.3419">
        <ele>92</ele>
        <time>2013-05-20T15:36:54Z</time>
      </trkpt>
      <trkpt lat="44.73482" lon="-0.34166">
        <ele>91</ele>
        <time>2013-05-20T15:37:01Z</time>
      </trkpt>
      <trkpt lat="44.73484" lon="-0.34133">
        <ele>90</ele>
        <time>2013-05-20T15:37:08Z</time>
      </trkpt>
      <trkpt lat="44.73484" lon="-0.34111">
        <ele>89</ele>
        <time>2013-05-20T15:37:14Z</time>
      </trkpt>
      <trkpt lat="44.73488" lon="-0.34076">
        <ele>88</ele>
        <time>2013-05-20T15:37:22Z</time>
      </trkpt>
      <trkpt lat="44.73491" lon="-0.34047">
        <ele>87</ele>
        <time>2013-05-20T15:37:29Z</time>
      </trkpt>
      <trkpt lat="44.73496" lon="-0.33999">
        <ele>86</ele>
        <time>2013-05-20T15:37:41Z</time>
      </trkpt>
      <trkpt lat="44.73499" lon="-0.33972">
        <ele>85</ele>
        <time>2013-05-20T15:37:50Z</time>
      </trkpt>
      <trkpt lat="44.735" lon="-0.33953">
        <ele>86</ele>
        <time>2013-05-20T15:37:57Z</time>
      </trkpt>
      <trkpt lat="44.73503" lon="-0.33936">
        <ele>87</ele>
        <time>2013-05-20T15:38:05Z</time>
      </trkpt>
      <trkpt lat="44.73504" lon="-0.33925">
        <ele>87</ele>
        <time>2013-05-20T15:38:11Z</time>
      </trkpt>
      <trkpt lat="44.73507" lon="-0.33911">
        <ele>88</ele>
        <time>2013-05-20T15:38:18Z</time>
      </trkpt>
      <trkpt lat="44.73509" lon="-0.33892">
        <ele>90</ele>
        <time>2013-05-20T15:38:27Z</time>
      </trkpt>
      <trkpt lat="44.7351" lon="-0.33877">
        <ele>91</ele>
        <time>2013-05-20T15:38:35Z</time>
      </trkpt>
      <trkpt lat="44.73513" lon="-0.33867">
        <ele>92</ele>
        <time>2013-05-20T15:38:41Z</time>
      </trkpt>
      <trkpt lat="44.73515" lon="-0.33858">
        <ele>92</ele>
        <time>2013-05-20T15:38:48Z</time>
      </trkpt>
      <trkpt lat="44.73516" lon="-0.33848">
        <ele>93</ele>
        <time>2013-05-20T15:38:55Z</time>
      </trkpt>
      <trkpt lat="44.73517" lon="-0.33839">
        <ele>94</ele>
        <time>2013-05-20T15:39:02Z</time>
      </trkpt>
      <trkpt lat="44.73517" lon="-0.33832">
        <ele>94</ele>
        <time>2013-05-20T15:39:07Z</time>
      </trkpt>
      <trkpt lat="44.73519" lon="-0.33823">
        <ele>95</ele>
        <time>2013-05-20T15:39:14Z</time>
      </trkpt>
      <trkpt lat="44.73521" lon="-0.33813">
        <ele>95</ele>
        <time>2013-05-20T15:39:21Z</time>
      </trkpt>
      <trkpt lat="44.73525" lon="-0.33809">
        <ele>95</ele>
        <time>2013-05-20T15:39:25Z</time>
      </trkpt>
      <trkpt lat="44.73529" lon="-0.33812">
        <ele>95</ele>
        <time>2013-05-20T15:39:31Z</time>
      </trkpt>
      <trkpt lat="44.73531" lon="-0.33812">
        <ele>95</ele>
        <time>2013-05-20T15:39:33Z</time>
      </trkpt>
      <trkpt lat="44.73535" lon="-0.33815">
        <ele>95</ele>
        <time>2013-05-20T15:39:37Z</time>
      </trkpt>
      <trkpt lat="44.73545" lon="-0.33818">
        <ele>96</ele>
        <time>2013-05-20T15:39:46Z</time>
      </trkpt>
      <trkpt lat="44.73552" lon="-0.33822">
        <ele>96</ele>
        <time>2013-05-20T15:39:54Z</time>
      </trkpt>
      <trkpt lat="44.73557" lon="-0.33824">
        <ele>96</ele>
        <time>2013-05-20T15:40:01Z</time>
      </trkpt>
      <trkpt lat="44.73564" lon="-0.33828">
        <ele>96</ele>
        <time>2013-05-20T15:40:09Z</time>
      </trkpt>
      <trkpt lat="44.7357" lon="-0.3383">
        <ele>96</ele>
        <time>2013-05-20T15:40:16Z</time>
      </trkpt>
      <trkpt lat="44.73572" lon="-0.33826">
        <ele>96</ele>
        <time>2013-05-20T15:40:20Z</time>
      </trkpt>
      <trkpt lat="44.73577" lon="-0.33817">
        <ele>97</ele>
        <time>2013-05-20T15:40:28Z</time>
      </trkpt>
      <trkpt lat="44.73579" lon="-0.3381">
        <ele>97</ele>
        <time>2013-05-20T15:40:32Z</time>
      </trkpt>
      <trkpt lat="44.73582" lon="-0.33803">
        <ele>97</ele>
        <time>2013-05-20T15:40:36Z</time>
      </trkpt>
      <trkpt lat="44.7359" lon="-0.33784">
        <ele>97</ele>
        <time>2013-05-20T15:40:46Z</time>
      </trkpt>
      <trkpt lat="44.73596" lon="-0.33769">
        <ele>95</ele>
        <time>2013-05-20T15:40:56Z</time>
      </trkpt>
      <trkpt lat="44.73596" lon="-0.33768">
        <ele>95</ele>
        <time>2013-05-20T15:41:03Z</time>
      </trkpt>
      <trkpt lat="44.73597" lon="-0.33766">
        <ele>95</ele>
        <time>2013-05-20T15:41:09Z</time>
      </trkpt>
      <trkpt lat="44.73596" lon="-0.33766">
        <ele>95</ele>
        <time>2013-05-20T15:41:15Z</time>
      </trkpt>
      <trkpt lat="44.73597" lon="-0.33763">
        <ele>95</ele>
        <time>2013-05-20T15:41:22Z</time>
      </trkpt>
      <trkpt lat="44.73598" lon="-0.33761">
        <ele>94</ele>
        <time>2013-05-20T15:41:28Z</time>
      </trkpt>
      <trkpt lat="44.73598" lon="-0.33761">
        <ele>94</ele>
        <time>2013-05-20T15:41:36Z</time>
      </trkpt>
      <trkpt lat="44.73598" lon="-0.33761">
        <ele>94</ele>
        <time>2013-05-20T15:41:44Z</time>
      </trkpt>
      <trkpt lat="44.73598" lon="-0.3376">
        <ele>94</ele>
        <time>2013-05-20T15:41:57Z</time>
      </trkpt>
      <trkpt lat="44.73599" lon="-0.33758">
        <ele>94</ele>
        <time>2013-05-20T15:42:00Z</time>
      </trkpt>
      <trkpt lat="44.73602" lon="-0.33756">
        <ele>94</ele>
        <time>2013-05-20T15:42:03Z</time>
      </trkpt>
      <trkpt lat="44.73617" lon="-0.3377">
        <ele>95</ele>
        <time>2013-05-20T15:42:13Z</time>
      </trkpt>
      <trkpt lat="44.73637" lon="-0.33786">
        <ele>95</ele>
        <time>2013-05-20T15:42:23Z</time>
      </trkpt>
      <trkpt lat="44.73652" lon="-0.33796">
        <ele>95</ele>
        <time>2013-05-20T15:42:30Z</time>
      </trkpt>
      <trkpt lat="44.73671" lon="-0.33799">
        <ele>96</ele>
        <time>2013-05-20T15:42:37Z</time>
      </trkpt>
      <trkpt lat="44.73698" lon="-0.33796">
        <ele>96</ele>
        <time>2013-05-20T15:42:46Z</time>
      </trkpt>
      <trkpt lat="44.7373" lon="-0.33789">
        <ele>98</ele>
        <time>2013-05-20T15:42:56Z</time>
      </trkpt>
      <trkpt lat="44.73758" lon="-0.33783">
        <ele>99</ele>
        <time>2013-05-20T15:43:04Z</time>
      </trkpt>
      <trkpt lat="44.7379" lon="-0.33775">
        <ele>100</ele>
        <time>2013-05-20T15:43:13Z</time>
      </trkpt>
      <trkpt lat="44.73816" lon="-0.33769">
        <ele>100</ele>
        <time>2013-05-20T15:43:21Z</time>
      </trkpt>
      <trkpt lat="44.7384" lon="-0.33764">
        <ele>101</ele>
        <time>2013-05-20T15:43:28Z</time>
      </trkpt>
      <trkpt lat="44.73873" lon="-0.33757">
        <ele>100</ele>
        <time>2013-05-20T15:43:37Z</time>
      </trkpt>
      <trkpt lat="44.73885" lon="-0.33754">
        <ele>100</ele>
        <time>2013-05-20T15:43:40Z</time>
      </trkpt>
      <trkpt lat="44.73889" lon="-0.33754">
        <ele>100</ele>
        <time>2013-05-20T15:43:41Z</time>
      </trkpt>
      <trkpt lat="44.73894" lon="-0.33752">
        <ele>100</ele>
        <time>2013-05-20T15:43:42Z</time>
      </trkpt>
      <trkpt lat="44.73898" lon="-0.33751">
        <ele>99</ele>
        <time>2013-05-20T15:43:43Z</time>
      </trkpt>
      <trkpt lat="44.73903" lon="-0.3375">
        <ele>99</ele>
        <time>2013-05-20T15:43:44Z</time>
      </trkpt>
      <trkpt lat="44.73908" lon="-0.3375">
        <ele>99</ele>
        <time>2013-05-20T15:43:45Z</time>
      </trkpt>
      <trkpt lat="44.73912" lon="-0.3375">
        <ele>99</ele>
        <time>2013-05-20T15:43:46Z</time>
      </trkpt>
      <trkpt lat="44.73917" lon="-0.33749">
        <ele>99</ele>
        <time>2013-05-20T15:43:47Z</time>
      </trkpt>
      <trkpt lat="44.73951" lon="-0.3374">
        <ele>97</ele>
        <time>2013-05-20T15:43:55Z</time>
      </trkpt>
      <trkpt lat="44.73976" lon="-0.33734">
        <ele>96</ele>
        <time>2013-05-20T15:44:02Z</time>
      </trkpt>
      <trkpt lat="44.73998" lon="-0.33728">
        <ele>96</ele>
        <time>2013-05-20T15:44:08Z</time>
      </trkpt>
      <trkpt lat="44.74022" lon="-0.33724">
        <ele>96</ele>
        <time>2013-05-20T15:44:15Z</time>
      </trkpt>
      <trkpt lat="44.74034" lon="-0.33722">
        <ele>97</ele>
        <time>2013-05-20T15:44:18Z</time>
      </trkpt>
      <trkpt lat="44.74038" lon="-0.33721">
        <ele>97</ele>
        <time>2013-05-20T15:44:19Z</time>
      </trkpt>
      <trkpt lat="44.74042" lon="-0.33722">
        <ele>97</ele>
        <time>2013-05-20T15:44:20Z</time>
      </trkpt>
      <trkpt lat="44.74047" lon="-0.33724">
        <ele>98</ele>
        <time>2013-05-20T15:44:21Z</time>
      </trkpt>
      <trkpt lat="44.74051" lon="-0.33727">
        <ele>98</ele>
        <time>2013-05-20T15:44:22Z</time>
      </trkpt>
      <trkpt lat="44.74056" lon="-0.33731">
        <ele>98</ele>
        <time>2013-05-20T15:44:23Z</time>
      </trkpt>
      <trkpt lat="44.74059" lon="-0.33735">
        <ele>99</ele>
        <time>2013-05-20T15:44:24Z</time>
      </trkpt>
      <trkpt lat="44.74062" lon="-0.33739">
        <ele>99</ele>
        <time>2013-05-20T15:44:25Z</time>
      </trkpt>
      <trkpt lat="44.7408" lon="-0.33774">
        <ele>100</ele>
        <time>2013-05-20T15:44:33Z</time>
      </trkpt>
      <trkpt lat="44.74099" lon="-0.33812">
        <ele>101</ele>
        <time>2013-05-20T15:44:42Z</time>
      </trkpt>
      <trkpt lat="44.7411" lon="-0.33835">
        <ele>101</ele>
        <time>2013-05-20T15:44:50Z</time>
      </trkpt>
      <trkpt lat="44.74117" lon="-0.33848">
        <ele>101</ele>
        <time>2013-05-20T15:44:56Z</time>
      </trkpt>
      <trkpt lat="44.74127" lon="-0.33842">
        <ele>101</ele>
        <time>2013-05-20T15:45:02Z</time>
      </trkpt>
      <trkpt lat="44.74129" lon="-0.33841">
        <ele>101</ele>
        <time>2013-05-20T15:45:03Z</time>
      </trkpt>
      <trkpt lat="44.74132" lon="-0.33838">
        <ele>101</ele>
        <time>2013-05-20T15:45:05Z</time>
      </trkpt>
      <trkpt lat="44.7414" lon="-0.33831">
        <ele>101</ele>
        <time>2013-05-20T15:45:11Z</time>
      </trkpt>
      <trkpt lat="44.74147" lon="-0.33826">
        <ele>101</ele>
        <time>2013-05-20T15:45:18Z</time>
      </trkpt>
      <trkpt lat="44.74147" lon="-0.33826">
        <ele>101</ele>
        <time>2013-05-20T15:45:25Z</time>
      </trkpt>
      <trkpt lat="44.74147" lon="-0.33826">
        <ele>101</ele>
        <time>2013-05-20T15:45:34Z</time>
      </trkpt>
      <trkpt lat="44.74146" lon="-0.33827">
        <ele>101</ele>
        <time>2013-05-20T15:45:41Z</time>
      </trkpt>
      <trkpt lat="44.74146" lon="-0.33828">
        <ele>101</ele>
        <time>2013-05-20T15:45:53Z</time>
      </trkpt>
      <trkpt lat="44.74146" lon="-0.33828">
        <ele>101</ele>
        <time>2013-05-20T15:46:03Z</time>
      </trkpt>
      <trkpt lat="44.74145" lon="-0.33828">
        <ele>101</ele>
        <time>2013-05-20T15:46:19Z</time>
      </trkpt>
      <trkpt lat="44.74146" lon="-0.33828">
        <ele>101</ele>
        <time>2013-05-20T15:46:35Z</time>
      </trkpt>
      <trkpt lat="44.74146" lon="-0.33828">
        <ele>101</ele>
        <time>2013-05-20T15:46:49Z</time>
      </trkpt>
      <trkpt lat="44.74146" lon="-0.33827">
        <ele>101</ele>
        <time>2013-05-20T15:47:02Z</time>
      </trkpt>
      <trkpt lat="44.74146" lon="-0.33827">
        <ele>101</ele>
        <time>2013-05-20T15:47:18Z</time>
      </trkpt>
      <trkpt lat="44.74146" lon="-0.33827">
        <ele>101</ele>
        <time>2013-05-20T15:47:34Z</time>
      </trkpt>
      <trkpt lat="44.74146" lon="-0.33828">
        <ele>101</ele>
        <time>2013-05-20T15:47:56Z</time>
      </trkpt>
      <trkpt lat="44.74145" lon="-0.33828">
        <ele>101</ele>
        <time>2013-05-20T15:48:08Z</time>
      </trkpt>
      <trkpt lat="44.74145" lon="-0.33828">
        <ele>101</ele>
        <time>2013-05-20T15:48:24Z</time>
      </trkpt>
      <trkpt lat="44.74145" lon="-0.33828">
        <ele>101</ele>
        <time>2013-05-20T15:48:39Z</time>
      </trkpt>
      <trkpt lat="44.74145" lon="-0.33827">
        <ele>101</ele>
        <time>2013-05-20T15:48:55Z</time>
      </trkpt>
      <trkpt lat="44.74145" lon="-0.33827">
        <ele>101</ele>
        <time>2013-05-20T15:49:10Z</time>
      </trkpt>
      <trkpt lat="44.74145" lon="-0.33826">
        <ele>101</ele>
        <time>2013-05-20T15:49:32Z</time>
      </trkpt>
      <trkpt lat="44.74145" lon="-0.33826">
        <ele>101</ele>
        <time>2013-05-20T15:49:46Z</time>
      </trkpt>
      <trkpt lat="44.74145" lon="-0.33826">
        <ele>101</ele>
        <time>2013-05-20T15:50:01Z</time>
      </trkpt>
      <trkpt lat="44.74144" lon="-0.33827">
        <ele>101</ele>
        <time>2013-05-20T15:50:19Z</time>
      </trkpt>
      <trkpt lat="44.74144" lon="-0.33827">
        <ele>101</ele>
        <time>2013-05-20T15:50:34Z</time>
      </trkpt>
      <trkpt lat="44.74144" lon="-0.33827">
        <ele>101</ele>
        <time>2013-05-20T15:50:42Z</time>
      </trkpt>
      <trkpt lat="44.74144" lon="-0.33827">
        <ele>101</ele>
        <time>2013-05-20T15:50:56Z</time>
      </trkpt>
      <trkpt lat="44.74145" lon="-0.33827">
        <ele>101</ele>
        <time>2013-05-20T15:51:05Z</time>
      </trkpt>
      <trkpt lat="44.74145" lon="-0.33827">
        <ele>101</ele>
        <time>2013-05-20T15:51:19Z</time>
      </trkpt>
      <trkpt lat="44.74145" lon="-0.33827">
        <ele>101</ele>
        <time>2013-05-20T15:51:31Z</time>
      </trkpt>
      <trkpt lat="44.74145" lon="-0.33828">
        <ele>101</ele>
        <time>2013-05-20T15:51:41Z</time>
      </trkpt>
      <trkpt lat="44.74145" lon="-0.33828">
        <ele>101</ele>
        <time>2013-05-20T15:51:53Z</time>
      </trkpt>
      <trkpt lat="44.74145" lon="-0.33829">
        <ele>101</ele>
        <time>2013-05-20T15:52:04Z</time>
      </trkpt>
      <trkpt lat="44.74145" lon="-0.33828">
        <ele>101</ele>
        <time>2013-05-20T15:52:18Z</time>
      </trkpt>
      <trkpt lat="44.74145" lon="-0.33828">
        <ele>101</ele>
        <time>2013-05-20T15:52:38Z</time>
      </trkpt>
      <trkpt lat="44.74146" lon="-0.33828">
        <ele>101</ele>
        <time>2013-05-20T15:52:55Z</time>
      </trkpt>
      <trkpt lat="44.74146" lon="-0.33828">
        <ele>101</ele>
        <time>2013-05-20T15:53:06Z</time>
      </trkpt>
      <trkpt lat="44.74146" lon="-0.33828">
        <ele>101</ele>
        <time>2013-05-20T15:53:19Z</time>
      </trkpt>
      <trkpt lat="44.74146" lon="-0.33828">
        <ele>101</ele>
        <time>2013-05-20T15:53:30Z</time>
      </trkpt>
      <trkpt lat="44.74146" lon="-0.33828">
        <ele>101</ele>
        <time>2013-05-20T15:53:47Z</time>
      </trkpt>
      <trkpt lat="44.74147" lon="-0.33827">
        <ele>101</ele>
        <time>2013-05-20T15:54:02Z</time>
      </trkpt>
      <trkpt lat="44.74146" lon="-0.33827">
        <ele>101</ele>
        <time>2013-05-20T15:54:15Z</time>
      </trkpt>
      <trkpt lat="44.74146" lon="-0.33827">
        <ele>101</ele>
        <time>2013-05-20T15:54:26Z</time>
      </trkpt>
      <trkpt lat="44.74145" lon="-0.33827">
        <ele>101</ele>
        <time>2013-05-20T15:54:43Z</time>
      </trkpt>
      <trkpt lat="44.74145" lon="-0.33828">
        <ele>101</ele>
        <time>2013-05-20T15:54:55Z</time>
      </trkpt>
      <trkpt lat="44.74146" lon="-0.33829">
        <ele>101</ele>
        <time>2013-05-20T15:55:09Z</time>
      </trkpt>
      <trkpt lat="44.74146" lon="-0.33829">
        <ele>101</ele>
        <time>2013-05-20T15:55:19Z</time>
      </trkpt>
      <trkpt lat="44.74146" lon="-0.33829">
        <ele>101</ele>
        <time>2013-05-20T15:55:32Z</time>
      </trkpt>
      <trkpt lat="44.74146" lon="-0.33829">
        <ele>101</ele>
        <time>2013-05-20T15:55:46Z</time>
      </trkpt>
      <trkpt lat="44.74146" lon="-0.33828">
        <ele>101</ele>
        <time>2013-05-20T15:56:01Z</time>
      </trkpt>
      <trkpt lat="44.74145" lon="-0.33829">
        <ele>101</ele>
        <time>2013-05-20T15:56:16Z</time>
      </trkpt>
      <trkpt lat="44.74146" lon="-0.33828">
        <ele>101</ele>
        <time>2013-05-20T15:56:26Z</time>
      </trkpt>
      <trkpt lat="44.74145" lon="-0.33829">
        <ele>101</ele>
        <time>2013-05-20T15:56:38Z</time>
      </trkpt>
      <trkpt lat="44.74145" lon="-0.33829">
        <ele>101</ele>
        <time>2013-05-20T15:56:50Z</time>
      </trkpt>
      <trkpt lat="44.74147" lon="-0.33827">
        <ele>101</ele>
        <time>2013-05-20T15:56:55Z</time>
      </trkpt>
      <trkpt lat="44.74156" lon="-0.33821">
        <ele>101</ele>
        <time>2013-05-20T15:57:02Z</time>
      </trkpt>
      <trkpt lat="44.74168" lon="-0.33811">
        <ele>101</ele>
        <time>2013-05-20T15:57:09Z</time>
      </trkpt>
      <trkpt lat="44.74177" lon="-0.33804">
        <ele>101</ele>
        <time>2013-05-20T15:57:16Z</time>
      </trkpt>
      <trkpt lat="44.74192" lon="-0.3379">
        <ele>101</ele>
        <time>2013-05-20T15:57:25Z</time>
      </trkpt>
      <trkpt lat="44.74213" lon="-0.33774">
        <ele>101</ele>
        <time>2013-05-20T15:57:32Z</time>
      </trkpt>
      <trkpt lat="44.74238" lon="-0.33752">
        <ele>102</ele>
        <time>2013-05-20T15:57:40Z</time>
      </trkpt>
      <trkpt lat="44.74258" lon="-0.33736">
        <ele>102</ele>
        <time>2013-05-20T15:57:48Z</time>
      </trkpt>
      <trkpt lat="44.74273" lon="-0.33724">
        <ele>103</ele>
        <time>2013-05-20T15:57:55Z</time>
      </trkpt>
      <trkpt lat="44.74289" lon="-0.33712">
        <ele>103</ele>
        <time>2013-05-20T15:58:03Z</time>
      </trkpt>
      <trkpt lat="44.74303" lon="-0.33705">
        <ele>103</ele>
        <time>2013-05-20T15:58:09Z</time>
      </trkpt>
      <trkpt lat="44.74319" lon="-0.33694">
        <ele>103</ele>
        <time>2013-05-20T15:58:17Z</time>
      </trkpt>
      <trkpt lat="44.74334" lon="-0.33684">
        <ele>103</ele>
        <time>2013-05-20T15:58:25Z</time>
      </trkpt>
      <trkpt lat="44.7434" lon="-0.33681">
        <ele>103</ele>
        <time>2013-05-20T15:58:29Z</time>
      </trkpt>
      <trkpt lat="44.74343" lon="-0.33676">
        <ele>103</ele>
        <time>2013-05-20T15:58:32Z</time>
      </trkpt>
      <trkpt lat="44.74341" lon="-0.33662">
        <ele>103</ele>
        <time>2013-05-20T15:58:40Z</time>
      </trkpt>
      <trkpt lat="44.74338" lon="-0.33651">
        <ele>104</ele>
        <time>2013-05-20T15:58:47Z</time>
      </trkpt>
      <trkpt lat="44.74337" lon="-0.33649">
        <ele>104</ele>
        <time>2013-05-20T15:58:48Z</time>
      </trkpt>
      <trkpt lat="44.74331" lon="-0.33632">
        <ele>104</ele>
        <time>2013-05-20T15:58:55Z</time>
      </trkpt>
      <trkpt lat="44.74323" lon="-0.33613">
        <ele>105</ele>
        <time>2013-05-20T15:59:03Z</time>
      </trkpt>
      <trkpt lat="44.74321" lon="-0.3361">
        <ele>105</ele>
        <time>2013-05-20T15:59:10Z</time>
      </trkpt>
      <trkpt lat="44.74322" lon="-0.3361">
        <ele>105</ele>
        <time>2013-05-20T15:59:23Z</time>
      </trkpt>
      <trkpt lat="44.74322" lon="-0.3361">
        <ele>105</ele>
        <time>2013-05-20T15:59:35Z</time>
      </trkpt>
      <trkpt lat="44.74322" lon="-0.33612">
        <ele>105</ele>
        <time>2013-05-20T15:59:54Z</time>
      </trkpt>
      <trkpt lat="44.74322" lon="-0.33611">
        <ele>105</ele>
        <time>2013-05-20T16:00:07Z</time>
      </trkpt>
      <trkpt lat="44.74321" lon="-0.336">
        <ele>105</ele>
        <time>2013-05-20T16:00:13Z</time>
      </trkpt>
      <trkpt lat="44.74321" lon="-0.33598">
        <ele>105</ele>
        <time>2013-05-20T16:00:14Z</time>
      </trkpt>
      <trkpt lat="44.74319" lon="-0.33585">
        <ele>106</ele>
        <time>2013-05-20T16:00:21Z</time>
      </trkpt>
      <trkpt lat="44.74327" lon="-0.33571">
        <ele>106</ele>
        <time>2013-05-20T16:00:26Z</time>
      </trkpt>
      <trkpt lat="44.7433" lon="-0.33569">
        <ele>106</ele>
        <time>2013-05-20T16:00:27Z</time>
      </trkpt>
      <trkpt lat="44.7435" lon="-0.33553">
        <ele>106</ele>
        <time>2013-05-20T16:00:35Z</time>
      </trkpt>
      <trkpt lat="44.74368" lon="-0.3354">
        <ele>106</ele>
        <time>2013-05-20T16:00:43Z</time>
      </trkpt>
      <trkpt lat="44.74382" lon="-0.33526">
        <ele>106</ele>
        <time>2013-05-20T16:00:50Z</time>
      </trkpt>
      <trkpt lat="44.74393" lon="-0.33515">
        <ele>105</ele>
        <time>2013-05-20T16:00:56Z</time>
      </trkpt>
      <trkpt lat="44.74407" lon="-0.335">
        <ele>105</ele>
        <time>2013-05-20T16:01:02Z</time>
      </trkpt>
      <trkpt lat="44.74437" lon="-0.33474">
        <ele>104</ele>
        <time>2013-05-20T16:01:12Z</time>
      </trkpt>
      <trkpt lat="44.74467" lon="-0.33453">
        <ele>104</ele>
        <time>2013-05-20T16:01:21Z</time>
      </trkpt>
      <trkpt lat="44.74499" lon="-0.33432">
        <ele>104</ele>
        <time>2013-05-20T16:01:28Z</time>
      </trkpt>
      <trkpt lat="44.74546" lon="-0.33406">
        <ele>103</ele>
        <time>2013-05-20T16:01:38Z</time>
      </trkpt>
      <trkpt lat="44.74591" lon="-0.3338">
        <ele>102</ele>
        <time>2013-05-20T16:01:48Z</time>
      </trkpt>
      <trkpt lat="44.74625" lon="-0.33361">
        <ele>102</ele>
        <time>2013-05-20T16:01:55Z</time>
      </trkpt>
      <trkpt lat="44.74665" lon="-0.33337">
        <ele>103</ele>
        <time>2013-05-20T16:02:03Z</time>
      </trkpt>
      <trkpt lat="44.74703" lon="-0.33311">
        <ele>104</ele>
        <time>2013-05-20T16:02:11Z</time>
      </trkpt>
      <trkpt lat="44.74742" lon="-0.33282">
        <ele>105</ele>
        <time>2013-05-20T16:02:20Z</time>
      </trkpt>
      <trkpt lat="44.74778" lon="-0.33253">
        <ele>105</ele>
        <time>2013-05-20T16:02:29Z</time>
      </trkpt>
      <trkpt lat="44.74819" lon="-0.33223">
        <ele>106</ele>
        <time>2013-05-20T16:02:39Z</time>
      </trkpt>
      <trkpt lat="44.7486" lon="-0.33193">
        <ele>106</ele>
        <time>2013-05-20T16:02:49Z</time>
      </trkpt>
      <trkpt lat="44.74903" lon="-0.33163">
        <ele>105</ele>
        <time>2013-05-20T16:02:59Z</time>
      </trkpt>
      <trkpt lat="44.74928" lon="-0.33152">
        <ele>104</ele>
        <time>2013-05-20T16:03:05Z</time>
      </trkpt>
      <trkpt lat="44.74937" lon="-0.33152">
        <ele>104</ele>
        <time>2013-05-20T16:03:07Z</time>
      </trkpt>
      <trkpt lat="44.74941" lon="-0.33152">
        <ele>104</ele>
        <time>2013-05-20T16:03:08Z</time>
      </trkpt>
      <trkpt lat="44.74945" lon="-0.33153">
        <ele>104</ele>
        <time>2013-05-20T16:03:09Z</time>
      </trkpt>
      <trkpt lat="44.74949" lon="-0.33154">
        <ele>104</ele>
        <time>2013-05-20T16:03:10Z</time>
      </trkpt>
      <trkpt lat="44.74953" lon="-0.33155">
        <ele>104</ele>
        <time>2013-05-20T16:03:11Z</time>
      </trkpt>
      <trkpt lat="44.74956" lon="-0.33155">
        <ele>104</ele>
        <time>2013-05-20T16:03:12Z</time>
      </trkpt>
      <trkpt lat="44.74958" lon="-0.33154">
        <ele>104</ele>
        <time>2013-05-20T16:03:13Z</time>
      </trkpt>
      <trkpt lat="44.7496" lon="-0.33152">
        <ele>104</ele>
        <time>2013-05-20T16:03:14Z</time>
      </trkpt>
      <trkpt lat="44.74961" lon="-0.3315">
        <ele>104</ele>
        <time>2013-05-20T16:03:15Z</time>
      </trkpt>
      <trkpt lat="44.74962" lon="-0.33148">
        <ele>104</ele>
        <time>2013-05-20T16:03:16Z</time>
      </trkpt>
      <trkpt lat="44.74964" lon="-0.33147">
        <ele>104</ele>
        <time>2013-05-20T16:03:17Z</time>
      </trkpt>
      <trkpt lat="44.74976" lon="-0.33134">
        <ele>104</ele>
        <time>2013-05-20T16:03:24Z</time>
      </trkpt>
      <trkpt lat="44.74987" lon="-0.33129">
        <ele>104</ele>
        <time>2013-05-20T16:03:30Z</time>
      </trkpt>
      <trkpt lat="44.74998" lon="-0.33123">
        <ele>104</ele>
        <time>2013-05-20T16:03:37Z</time>
      </trkpt>
      <trkpt lat="44.75009" lon="-0.33118">
        <ele>105</ele>
        <time>2013-05-20T16:03:44Z</time>
      </trkpt>
      <trkpt lat="44.7501" lon="-0.33118">
        <ele>105</ele>
        <time>2013-05-20T16:03:45Z</time>
      </trkpt>
      <trkpt lat="44.75014" lon="-0.33116">
        <ele>105</ele>
        <time>2013-05-20T16:03:49Z</time>
      </trkpt>
      <trkpt lat="44.75015" lon="-0.33116">
        <ele>105</ele>
        <time>2013-05-20T16:03:50Z</time>
      </trkpt>
      <trkpt lat="44.75029" lon="-0.33109">
        <ele>105</ele>
        <time>2013-05-20T16:03:58Z</time>
      </trkpt>
      <trkpt lat="44.75042" lon="-0.33101">
        <ele>105</ele>
        <time>2013-05-20T16:04:06Z</time>
      </trkpt>
      <trkpt lat="44.75052" lon="-0.33097">
        <ele>105</ele>
        <time>2013-05-20T16:04:13Z</time>
      </trkpt>
      <trkpt lat="44.75069" lon="-0.3309">
        <ele>105</ele>
        <time>2013-05-20T16:04:21Z</time>
      </trkpt>
      <trkpt lat="44.75088" lon="-0.33082">
        <ele>105</ele>
        <time>2013-05-20T16:04:30Z</time>
      </trkpt>
      <trkpt lat="44.75104" lon="-0.33074">
        <ele>105</ele>
        <time>2013-05-20T16:04:39Z</time>
      </trkpt>
      <trkpt lat="44.75119" lon="-0.33067">
        <ele>105</ele>
        <time>2013-05-20T16:04:47Z</time>
      </trkpt>
      <trkpt lat="44.7513" lon="-0.33062">
        <ele>106</ele>
        <time>2013-05-20T16:04:54Z</time>
      </trkpt>
      <trkpt lat="44.7514" lon="-0.33058">
        <ele>106</ele>
        <time>2013-05-20T16:05:00Z</time>
      </trkpt>
      <trkpt lat="44.75141" lon="-0.33057">
        <ele>106</ele>
        <time>2013-05-20T16:05:01Z</time>
      </trkpt>
      <trkpt lat="44.75143" lon="-0.33056">
        <ele>106</ele>
        <time>2013-05-20T16:05:02Z</time>
      </trkpt>
      <trkpt lat="44.75152" lon="-0.33052">
        <ele>106</ele>
        <time>2013-05-20T16:05:07Z</time>
      </trkpt>
      <trkpt lat="44.75154" lon="-0.33051">
        <ele>106</ele>
        <time>2013-05-20T16:05:08Z</time>
      </trkpt>
      <trkpt lat="44.75164" lon="-0.33047">
        <ele>106</ele>
        <time>2013-05-20T16:05:14Z</time>
      </trkpt>
      <trkpt lat="44.75166" lon="-0.33046">
        <ele>106</ele>
        <time>2013-05-20T16:05:15Z</time>
      </trkpt>
      <trkpt lat="44.75168" lon="-0.33046">
        <ele>106</ele>
        <time>2013-05-20T16:05:16Z</time>
      </trkpt>
      <trkpt lat="44.75169" lon="-0.33046">
        <ele>106</ele>
        <time>2013-05-20T16:05:17Z</time>
      </trkpt>
      <trkpt lat="44.75171" lon="-0.33045">
        <ele>106</ele>
        <time>2013-05-20T16:05:18Z</time>
      </trkpt>
      <trkpt lat="44.75173" lon="-0.33045">
        <ele>106</ele>
        <time>2013-05-20T16:05:19Z</time>
      </trkpt>
      <trkpt lat="44.75176" lon="-0.33044">
        <ele>106</ele>
        <time>2013-05-20T16:05:20Z</time>
      </trkpt>
      <trkpt lat="44.75196" lon="-0.33037">
        <ele>106</ele>
        <time>2013-05-20T16:05:28Z</time>
      </trkpt>
      <trkpt lat="44.75216" lon="-0.33034">
        <ele>106</ele>
        <time>2013-05-20T16:05:35Z</time>
      </trkpt>
      <trkpt lat="44.75239" lon="-0.33024">
        <ele>106</ele>
        <time>2013-05-20T16:05:43Z</time>
      </trkpt>
      <trkpt lat="44.7526" lon="-0.33017">
        <ele>106</ele>
        <time>2013-05-20T16:05:51Z</time>
      </trkpt>
      <trkpt lat="44.75277" lon="-0.3301">
        <ele>106</ele>
        <time>2013-05-20T16:05:58Z</time>
      </trkpt>
      <trkpt lat="44.75295" lon="-0.33004">
        <ele>106</ele>
        <time>2013-05-20T16:06:05Z</time>
      </trkpt>
      <trkpt lat="44.75313" lon="-0.32997">
        <ele>106</ele>
        <time>2013-05-20T16:06:12Z</time>
      </trkpt>
      <trkpt lat="44.75328" lon="-0.3299">
        <ele>107</ele>
        <time>2013-05-20T16:06:19Z</time>
      </trkpt>
      <trkpt lat="44.75342" lon="-0.32984">
        <ele>107</ele>
        <time>2013-05-20T16:06:25Z</time>
      </trkpt>
      <trkpt lat="44.75358" lon="-0.32978">
        <ele>107</ele>
        <time>2013-05-20T16:06:33Z</time>
      </trkpt>
      <trkpt lat="44.75374" lon="-0.3297">
        <ele>107</ele>
        <time>2013-05-20T16:06:40Z</time>
      </trkpt>
      <trkpt lat="44.7539" lon="-0.32964">
        <ele>108</ele>
        <time>2013-05-20T16:06:48Z</time>
      </trkpt>
      <trkpt lat="44.75406" lon="-0.32957">
        <ele>108</ele>
        <time>2013-05-20T16:06:56Z</time>
      </trkpt>
      <trkpt lat="44.75422" lon="-0.32952">
        <ele>108</ele>
        <time>2013-05-20T16:07:04Z</time>
      </trkpt>
      <trkpt lat="44.75439" lon="-0.32945">
        <ele>109</ele>
        <time>2013-05-20T16:07:13Z</time>
      </trkpt>
      <trkpt lat="44.75455" lon="-0.32941">
        <ele>109</ele>
        <time>2013-05-20T16:07:20Z</time>
      </trkpt>
      <trkpt lat="44.75476" lon="-0.32938">
        <ele>109</ele>
        <time>2013-05-20T16:07:29Z</time>
      </trkpt>
      <trkpt lat="44.75491" lon="-0.32934">
        <ele>109</ele>
        <time>2013-05-20T16:07:36Z</time>
      </trkpt>
      <trkpt lat="44.7551" lon="-0.32931">
        <ele>109</ele>
        <time>2013-05-20T16:07:45Z</time>
      </trkpt>
      <trkpt lat="44.75524" lon="-0.32936">
        <ele>109</ele>
        <time>2013-05-20T16:07:52Z</time>
      </trkpt>
      <trkpt lat="44.75532" lon="-0.32946">
        <ele>109</ele>
        <time>2013-05-20T16:07:59Z</time>
      </trkpt>
      <trkpt lat="44.75534" lon="-0.32949">
        <ele>108</ele>
        <time>2013-05-20T16:08:01Z</time>
      </trkpt>
      <trkpt lat="44.75553" lon="-0.32932">
        <ele>108</ele>
        <time>2013-05-20T16:09:22Z</time>
      </trkpt>
      <trkpt lat="44.75567" lon="-0.32916">
        <ele>108</ele>
        <time>2013-05-20T16:09:28Z</time>
      </trkpt>
      <trkpt lat="44.75588" lon="-0.32894">
        <ele>108</ele>
        <time>2013-05-20T16:09:35Z</time>
      </trkpt>
      <trkpt lat="44.75602" lon="-0.32883">
        <ele>107</ele>
        <time>2013-05-20T16:09:39Z</time>
      </trkpt>
      <trkpt lat="44.75612" lon="-0.32871">
        <ele>107</ele>
        <time>2013-05-20T16:10:38Z</time>
      </trkpt>
      <trkpt lat="44.75632" lon="-0.32855">
        <ele>107</ele>
        <time>2013-05-20T16:10:45Z</time>
      </trkpt>
      <trkpt lat="44.75656" lon="-0.32839">
        <ele>107</ele>
        <time>2013-05-20T16:10:53Z</time>
      </trkpt>
      <trkpt lat="44.75674" lon="-0.32827">
        <ele>107</ele>
        <time>2013-05-20T16:11:00Z</time>
      </trkpt>
      <trkpt lat="44.75693" lon="-0.32811">
        <ele>106</ele>
        <time>2013-05-20T16:11:06Z</time>
      </trkpt>
      <trkpt lat="44.75705" lon="-0.32801">
        <ele>105</ele>
        <time>2013-05-20T16:11:09Z</time>
      </trkpt>
      <trkpt lat="44.75709" lon="-0.32798">
        <ele>105</ele>
        <time>2013-05-20T16:11:10Z</time>
      </trkpt>
      <trkpt lat="44.75727" lon="-0.32785">
        <ele>104</ele>
        <time>2013-05-20T16:11:14Z</time>
      </trkpt>
      <trkpt lat="44.75744" lon="-0.32765">
        <ele>103</ele>
        <time>2013-05-20T16:11:19Z</time>
      </trkpt>
      <trkpt lat="44.75746" lon="-0.32761">
        <ele>103</ele>
        <time>2013-05-20T16:11:20Z</time>
      </trkpt>
      <trkpt lat="44.75748" lon="-0.32756">
        <ele>103</ele>
        <time>2013-05-20T16:11:21Z</time>
      </trkpt>
      <trkpt lat="44.75768" lon="-0.32705">
        <ele>101</ele>
        <time>2013-05-20T16:11:30Z</time>
      </trkpt>
      <trkpt lat="44.75785" lon="-0.32655">
        <ele>101</ele>
        <time>2013-05-20T16:11:38Z</time>
      </trkpt>
      <trkpt lat="44.75801" lon="-0.32604">
        <ele>102</ele>
        <time>2013-05-20T16:11:46Z</time>
      </trkpt>
      <trkpt lat="44.75819" lon="-0.32552">
        <ele>104</ele>
        <time>2013-05-20T16:11:54Z</time>
      </trkpt>
      <trkpt lat="44.75829" lon="-0.3252">
        <ele>104</ele>
        <time>2013-05-20T16:11:59Z</time>
      </trkpt>
      <trkpt lat="44.75833" lon="-0.32508">
        <ele>104</ele>
        <time>2013-05-20T16:12:01Z</time>
      </trkpt>
      <trkpt lat="44.75848" lon="-0.32449">
        <ele>105</ele>
        <time>2013-05-20T16:12:10Z</time>
      </trkpt>
      <trkpt lat="44.75858" lon="-0.32399">
        <ele>105</ele>
        <time>2013-05-20T16:12:18Z</time>
      </trkpt>
      <trkpt lat="44.75859" lon="-0.32392">
        <ele>105</ele>
        <time>2013-05-20T16:12:19Z</time>
      </trkpt>
      <trkpt lat="44.75865" lon="-0.32352">
        <ele>105</ele>
        <time>2013-05-20T16:12:26Z</time>
      </trkpt>
      <trkpt lat="44.75866" lon="-0.32346">
        <ele>105</ele>
        <time>2013-05-20T16:12:27Z</time>
      </trkpt>
      <trkpt lat="44.75881" lon="-0.32285">
        <ele>106</ele>
        <time>2013-05-20T16:12:38Z</time>
      </trkpt>
      <trkpt lat="44.75901" lon="-0.32229">
        <ele>107</ele>
        <time>2013-05-20T16:12:48Z</time>
      </trkpt>
      <trkpt lat="44.75909" lon="-0.32213">
        <ele>107</ele>
        <time>2013-05-20T16:12:51Z</time>
      </trkpt>
      <trkpt lat="44.75915" lon="-0.3219">
        <ele>107</ele>
        <time>2013-05-20T16:12:55Z</time>
      </trkpt>
      <trkpt lat="44.75916" lon="-0.32184">
        <ele>107</ele>
        <time>2013-05-20T16:12:56Z</time>
      </trkpt>
      <trkpt lat="44.7592" lon="-0.32159">
        <ele>107</ele>
        <time>2013-05-20T16:13:00Z</time>
      </trkpt>
      <trkpt lat="44.75924" lon="-0.32114">
        <ele>107</ele>
        <time>2013-05-20T16:13:08Z</time>
      </trkpt>
      <trkpt lat="44.75928" lon="-0.32067">
        <ele>107</ele>
        <time>2013-05-20T16:13:16Z</time>
      </trkpt>
      <trkpt lat="44.75928" lon="-0.32061">
        <ele>107</ele>
        <time>2013-05-20T16:13:17Z</time>
      </trkpt>
      <trkpt lat="44.75931" lon="-0.3201">
        <ele>107</ele>
        <time>2013-05-20T16:13:25Z</time>
      </trkpt>
      <trkpt lat="44.75931" lon="-0.31951">
        <ele>107</ele>
        <time>2013-05-20T16:13:34Z</time>
      </trkpt>
      <trkpt lat="44.75927" lon="-0.31877">
        <ele>107</ele>
        <time>2013-05-20T16:13:45Z</time>
      </trkpt>
      <trkpt lat="44.75926" lon="-0.31862">
        <ele>107</ele>
        <time>2013-05-20T16:13:47Z</time>
      </trkpt>
      <trkpt lat="44.75931" lon="-0.318">
        <ele>108</ele>
        <time>2013-05-20T16:13:56Z</time>
      </trkpt>
      <trkpt lat="44.7594" lon="-0.31754">
        <ele>108</ele>
        <time>2013-05-20T16:14:03Z</time>
      </trkpt>
      <trkpt lat="44.75944" lon="-0.31737">
        <ele>109</ele>
        <time>2013-05-20T16:14:06Z</time>
      </trkpt>
      <trkpt lat="44.75953" lon="-0.31708">
        <ele>109</ele>
        <time>2013-05-20T16:14:11Z</time>
      </trkpt>
      <trkpt lat="44.75962" lon="-0.31687">
        <ele>109</ele>
        <time>2013-05-20T16:14:15Z</time>
      </trkpt>
      <trkpt lat="44.75985" lon="-0.31649">
        <ele>108</ele>
        <time>2013-05-20T16:14:23Z</time>
      </trkpt>
      <trkpt lat="44.75987" lon="-0.31644">
        <ele>108</ele>
        <time>2013-05-20T16:14:24Z</time>
      </trkpt>
      <trkpt lat="44.75997" lon="-0.31588">
        <ele>108</ele>
        <time>2013-05-20T16:14:33Z</time>
      </trkpt>
      <trkpt lat="44.76003" lon="-0.31531">
        <ele>107</ele>
        <time>2013-05-20T16:14:42Z</time>
      </trkpt>
      <trkpt lat="44.76009" lon="-0.3148">
        <ele>107</ele>
        <time>2013-05-20T16:14:50Z</time>
      </trkpt>
      <trkpt lat="44.7601" lon="-0.31468">
        <ele>107</ele>
        <time>2013-05-20T16:14:52Z</time>
      </trkpt>
      <trkpt lat="44.7601" lon="-0.31462">
        <ele>108</ele>
        <time>2013-05-20T16:14:53Z</time>
      </trkpt>
      <trkpt lat="44.76015" lon="-0.31419">
        <ele>108</ele>
        <time>2013-05-20T16:15:00Z</time>
      </trkpt>
      <trkpt lat="44.76019" lon="-0.31378">
        <ele>110</ele>
        <time>2013-05-20T16:15:08Z</time>
      </trkpt>
      <trkpt lat="44.76017" lon="-0.31374">
        <ele>110</ele>
        <time>2013-05-20T16:15:09Z</time>
      </trkpt>
      <trkpt lat="44.76014" lon="-0.31371">
        <ele>110</ele>
        <time>2013-05-20T16:15:10Z</time>
      </trkpt>
      <trkpt lat="44.76011" lon="-0.31369">
        <ele>110</ele>
        <time>2013-05-20T16:15:11Z</time>
      </trkpt>
      <trkpt lat="44.76007" lon="-0.31368">
        <ele>110</ele>
        <time>2013-05-20T16:15:12Z</time>
      </trkpt>
      <trkpt lat="44.76003" lon="-0.31368">
        <ele>110</ele>
        <time>2013-05-20T16:15:13Z</time>
      </trkpt>
      <trkpt lat="44.75963" lon="-0.3136">
        <ele>110</ele>
        <time>2013-05-20T16:15:22Z</time>
      </trkpt>
      <trkpt lat="44.7593" lon="-0.31355">
        <ele>110</ele>
        <time>2013-05-20T16:15:30Z</time>
      </trkpt>
      <trkpt lat="44.75886" lon="-0.31347">
        <ele>110</ele>
        <time>2013-05-20T16:15:40Z</time>
      </trkpt>
      <trkpt lat="44.75848" lon="-0.31342">
        <ele>109</ele>
        <time>2013-05-20T16:15:48Z</time>
      </trkpt>
      <trkpt lat="44.75809" lon="-0.31334">
        <ele>108</ele>
        <time>2013-05-20T16:15:56Z</time>
      </trkpt>
      <trkpt lat="44.75775" lon="-0.31328">
        <ele>106</ele>
        <time>2013-05-20T16:16:03Z</time>
      </trkpt>
      <trkpt lat="44.7577" lon="-0.31326">
        <ele>106</ele>
        <time>2013-05-20T16:16:04Z</time>
      </trkpt>
      <trkpt lat="44.75766" lon="-0.31324">
        <ele>106</ele>
        <time>2013-05-20T16:16:05Z</time>
      </trkpt>
      <trkpt lat="44.75761" lon="-0.31323">
        <ele>106</ele>
        <time>2013-05-20T16:16:06Z</time>
      </trkpt>
      <trkpt lat="44.75756" lon="-0.31322">
        <ele>106</ele>
        <time>2013-05-20T16:16:07Z</time>
      </trkpt>
      <trkpt lat="44.7575" lon="-0.31321">
        <ele>105</ele>
        <time>2013-05-20T16:16:08Z</time>
      </trkpt>
      <trkpt lat="44.75706" lon="-0.31314">
        <ele>104</ele>
        <time>2013-05-20T16:16:14Z</time>
      </trkpt>
      <trkpt lat="44.7566" lon="-0.31308">
        <ele>102</ele>
        <time>2013-05-20T16:16:21Z</time>
      </trkpt>
      <trkpt lat="44.75649" lon="-0.31306">
        <ele>102</ele>
        <time>2013-05-20T16:16:23Z</time>
      </trkpt>
    </trkseg>
  </trk>
</gpx>